[[{"header":{"parameterUnit":"m.s-1","parameterCategory":1,"la1":30.6,"la2":28.766,"lo1":-90.7593,"lo2":-88.6598,"dx":0.0162,"dy":0.0183,"nx":116,"ny":114,"refTime":"2022-12-23T06:00:00:Z","depth":0,"parameterNumber":2,"parameterNumberName":"U-component_of_WINDS"},"data":[0.0,0.0,0.0,0.0,0.0,0.0,0.0,0.0,0.0,0.0,0.0,0.0,0.0,0.0,0.0,0.0,0.0,0.0,0.0,0.0,0.0,0.0,0.0,0.0,0.0,0.0,0.0,0.0,0.0,0.0,0.0,0.0,0.0,0.0,0.0,0.0,0.0,0.0,0.0,0.0,0.0,0.0,0.0,0.0,0.0,0.0,0.0,0.0,0.0,0.0,0.0,0.0,0.0,0.0,0.0,0.0,0.0,0.0,0.0,0.0,0.0,0.0,0.0,0.0,0.0,0.0,0.0,0.0,0.0,0.0,0.0,0.0,0.0,0.0,0.0,0.0,0.0,0.0,0.0,0.0,0.0,0.0,0.0,0.0,0.0,0.0,0.0,0.0,0.0,0.0,0.0,0.0,0.0,0.0,0.0,0.0,0.0,0.0,0.0,0.0,0.0,0.0,0.0,0.0,0.0,0.0,0.0,0.0,0.0,0.0,0.0,0.0,0.0,0.0,0.0,0.0,0.0,0.0,0.0,0.0,0.0,0.0,0.0,0.0,0.0,0.0,0.0,0.0,0.0,0.0,0.0,0.0,0.0,0.0,0.0,0.0,0.0,0.0,0.0,0.0,0.0,0.0,0.0,0.0,0.0,0.0,0.0,0.0,0.0,0.0,0.0,0.0,0.0,0.0,0.0,0.0,0.0,0.0,0.0,0.0,0.0,0.0,0.0,0.0,0.0,0.0,0.0,0.0,0.0,0.0,0.0,0.0,0.0,0.0,0.0,0.0,0.0,0.0,0.0,0.0,0.0,0.0,0.0,0.0,0.0,0.0,0.0,0.0,0.0,0.0,0.0,0.0,0.0,0.0,0.0,0.0,0.0,0.0,0.0,0.0,0.0,0.0,0.0,0.0,0.0,0.0,0.0,0.0,0.0,0.0,0.0,0.0,0.0,0.0,0.0,0.0,0.0,0.0,0.0,0.0,0.0,0.0,0.0,0.0,0.0,0.0,0.0,0.0,0.0,0.0,0.0,0.0,0.0,0.0,0.0,0.0,0.0,0.0,0.0,0.0,0.0,0.0,0.0,0.0,0.0,0.0,0.0,0.0,0.0,0.0,0.0,0.0,0.0,0.0,0.0,0.0,0.0,0.0,0.0,0.0,0.0,0.0,0.0,0.0,0.0,0.0,0.0,0.0,0.0,0.0,0.0,0.0,0.0,0.0,0.0,0.0,0.0,0.0,0.0,0.0,0.0,0.0,0.0,0.0,0.0,0.0,0.0,0.0,0.0,0.0,0.0,0.0,0.0,0.0,0.0,0.0,0.0,0.0,0.0,0.0,0.0,0.0,0.0,0.0,0.0,0.0,0.0,0.0,0.0,0.0,0.0,0.0,0.0,0.0,0.0,0.0,0.0,0.0,0.0,0.0,0.0,0.0,0.0,0.0,0.0,0.0,0.0,0.0,0.0,0.0,0.0,0.0,0.0,0.0,0.0,0.0,0.0,0.0,0.0,0.0,0.0,0.0,0.0,0.0,0.0,0.0,0.0,0.0,0.0,0.0,0.0,0.0,0.0,0.0,0.0,0.0,0.0,0.0,0.0,0.0,0.0,0.0,0.0,0.0,0.0,0.0,0.0,0.0,0.0,0.0,0.0,0.0,0.0,0.0,0.0,0.0,0.0,0.0,0.0,0.0,0.0,0.0,0.0,0.0,0.0,0.0,0.0,0.0,0.0,0.0,0.0,0.0,0.0,0.0,0.0,0.0,0.0,0.0,0.0,0.0,0.0,0.0,0.0,0.0,0.0,0.0,0.0,0.0,0.0,0.0,0.0,0.0,0.0,0.0,0.0,0.0,0.0,0.0,0.0,0.0,0.0,0.0,0.0,0.0,0.0,0.0,0.0,0.0,0.0,0.0,0.0,0.0,0.0,0.0,0.0,0.0,0.0,0.0,0.0,0.0,0.0,0.0,0.0,0.0,0.0,0.0,0.0,0.0,0.0,0.0,0.0,0.0,0.0,0.0,0.0,0.0,0.0,0.0,0.0,0.0,0.0,0.0,0.0,0.0,0.0,0.0,0.0,0.0,0.0,0.0,0.0,0.0,0.0,0.0,0.0,0.0,0.0,0.0,0.0,0.0,0.0,0.0,0.0,0.0,0.0,0.0,0.0,0.0,0.0,0.0,0.0,0.0,0.0,0.0,0.0,0.0,0.0,0.0,0.0,0.0,0.0,0.0,0.0,0.0,0.0,0.0,0.0,0.0,0.0,0.0,0.0,0.0,0.0,0.0,0.0,0.0,0.0,0.0,0.0,0.0,0.0,0.0,0.0,0.0,0.0,0.0,0.0,0.0,0.0,0.0,0.0,0.0,0.0,0.0,0.0,0.0,0.0,0.0,0.0,0.0,0.0,0.0,0.0,0.0,0.0,0.0,0.0,0.0,0.0,0.0,0.0,0.0,0.0,0.0,0.0,0.0,0.0,0.0,0.0,0.0,0.0,0.0,0.0,0.0,0.0,0.0,0.0,0.0,0.0,0.0,0.0,0.0,0.0,0.0,0.0,0.0,0.0,0.0,0.0,0.0,0.0,0.0,0.0,0.0,0.0,0.0,0.0,0.0,0.0,0.0,0.0,0.0,0.0,0.0,0.0,0.0,0.0,0.0,0.0,0.0,0.0,0.0,0.0,0.0,0.0,0.0,0.0,0.0,0.0,0.0,0.0,0.0,0.0,0.0,0.0,0.0,0.0,0.0,0.0,0.0,0.0,0.0,0.0,0.0,0.0,0.0,0.0,0.0,0.0,0.0,0.0,0.0,0.0,0.0,0.0,0.0,0.0,0.0,0.0,0.0,0.0,0.0,0.0,0.0,0.0,0.0,0.0,0.0,0.0,0.0,0.0,0.0,0.0,0.0,0.0,0.0,0.0,0.0,0.0,0.0,0.0,0.0,0.0,0.0,0.0,0.0,0.0,0.0,0.0,0.0,0.0,0.0,0.0,0.0,0.0,0.0,0.0,0.0,0.0,0.0,0.0,0.0,0.0,0.0,0.0,0.0,0.0,0.0,0.0,0.0,0.0,0.0,0.0,0.0,0.0,0.0,0.0,0.0,0.0,0.0,0.0,0.0,0.0,0.0,0.0,0.0,0.0,0.0,0.0,0.0,0.0,0.0,0.0,0.0,0.0,0.0,0.0,0.0,0.0,0.0,0.0,0.0,0.0,0.0,0.0,0.0,0.0,0.0,0.0,0.0,0.0,0.0,0.0,0.0,0.0,0.0,0.0,0.0,0.0,0.0,0.0,0.0,0.0,0.0,0.0,0.0,0.0,0.0,0.0,0.0,0.0,0.0,0.0,0.0,0.0,0.0,0.0,0.0,0.0,0.0,0.0,0.0,0.0,0.0,0.0,0.0,0.0,0.0,0.0,0.0,0.0,0.0,0.0,0.0,0.0,0.0,0.0,0.0,0.0,0.0,0.0,0.0,0.0,0.0,0.0,0.0,0.0,0.0,0.0,0.0,0.0,0.0,0.0,0.0,0.0,0.0,0.0,0.0,0.0,0.0,0.0,0.0,0.0,0.0,0.0,0.0,0.0,0.0,0.0,0.0,0.0,0.0,0.0,0.0,0.0,0.0,0.0,0.0,0.0,0.0,0.0,0.0,0.0,0.0,0.0,0.0,0.0,0.0,0.0,0.0,0.0,0.0,0.0,0.0,0.0,0.0,0.0,0.0,0.0,0.0,0.0,0.0,0.0,0.0,0.0,0.0,0.0,0.0,0.0,0.0,0.0,0.0,0.0,0.0,0.0,0.0,0.0,0.0,0.0,0.0,0.0,0.0,0.0,0.0,0.0,0.0,0.0,0.0,0.0,0.0,0.0,0.0,0.0,0.0,0.0,0.0,0.0,0.0,0.0,0.0,0.0,0.0,0.0,0.0,0.0,0.0,0.0,0.0,0.0,0.0,0.0,0.0,0.0,0.0,0.0,0.0,0.0,0.0,0.0,0.0,0.0,0.0,0.0,0.0,0.0,0.0,0.0,0.0,0.0,0.0,0.0,0.0,0.0,0.0,0.0,0.0,0.0,0.0,0.0,0.0,0.0,0.0,0.0,0.0,0.0,0.0,0.0,0.0,0.0,0.0,0.0,0.0,0.0,0.0,0.0,0.0,0.0,0.0,0.0,0.0,0.0,0.0,0.0,0.0,0.0,0.0,0.0,0.0,0.0,0.0,0.0,0.0,0.0,0.0,0.0,0.0,0.0,0.0,0.0,0.0,0.0,0.0,0.0,0.0,0.0,0.0,0.0,0.0,0.0,0.0,0.0,0.0,0.0,0.0,0.0,0.0,0.0,0.0,0.0,0.0,0.0,0.0,0.0,0.0,0.0,0.0,0.0,0.0,0.0,0.0,0.0,0.0,0.0,0.0,0.0,0.0,0.0,0.0,0.0,0.0,0.0,0.0,0.0,0.0,0.0,0.0,0.0,0.0,0.0,0.0,0.0,0.0,0.0,0.0,0.0,0.0,0.0,0.0,0.0,0.0,0.0,0.0,0.0,0.0,0.0,0.0,0.0,0.0,0.0,0.0,0.0,0.0,0.0,0.0,0.0,0.0,0.0,0.0,0.0,0.0,0.0,0.0,0.0,0.0,0.0,0.0,0.0,0.0,0.0,0.0,0.0,0.0,0.0,0.0,0.0,0.0,0.0,0.0,0.0,0.0,0.0,0.0,0.0,0.0,0.0,0.0,0.0,0.0,0.0,0.0,0.0,0.0,0.0,0.0,0.0,0.0,0.0,0.0,0.0,0.0,0.0,0.0,0.0,0.0,0.0,0.0,0.0,0.0,0.0,0.0,0.0,0.0,0.0,0.0,0.0,0.0,0.0,0.0,0.0,0.0,0.0,0.0,0.0,0.0,0.0,0.0,0.0,0.0,0.0,0.0,0.0,0.0,0.0,0.0,0.0,0.0,0.0,0.0,0.0,0.0,0.0,0.0,0.0,0.0,0.0,0.0,0.0,0.0,0.0,0.0,0.0,0.0,0.0,0.0,0.0,0.0,0.0,0.0,0.0,0.0,0.0,0.0,0.0,0.0,0.0,0.0,0.0,0.0,0.0,0.0,0.0,0.0,0.0,0.0,0.0,0.0,0.0,0.0,0.0,0.0,0.0,0.0,0.0,0.0,0.0,0.0,0.0,0.0,0.0,0.0,0.0,0.0,0.0,0.0,0.0,0.0,0.0,0.0,0.0,0.0,0.0,0.0,0.0,0.0,0.0,0.0,0.0,0.0,0.0,0.0,0.0,0.0,0.0,0.0,0.0,0.0,0.0,0.0,0.0,0.0,0.0,0.0,0.0,0.0,0.0,0.0,0.0,0.0,0.0,0.0,0.0,0.0,0.0,0.0,0.0,0.0,0.0,0.0,0.0,0.0,0.0,0.0,0.0,0.0,0.0,0.0,0.0,0.0,0.0,0.0,0.0,0.0,0.0,0.0,0.0,0.0,0.0,0.0,0.0,0.0,0.0,0.0,0.0,0.0,0.0,0.0,0.0,0.0,0.0,0.0,0.0,0.0,0.0,0.0,0.0,0.0,0.0,0.0,0.0,0.0,0.0,0.0,0.0,0.0,0.0,0.0,0.0,0.0,0.0,0.0,0.0,0.0,0.0,0.0,0.0,0.0,0.0,0.0,0.0,0.0,0.0,0.0,0.0,0.0,0.0,0.0,0.0,0.0,0.0,0.0,0.0,0.0,0.0,0.0,0.0,0.0,0.0,0.0,0.0,0.0,0.0,0.0,0.0,0.0,0.0,0.0,0.0,0.0,0.0,0.0,0.0,0.0,0.0,0.0,0.0,0.0,0.0,0.0,0.0,0.0,0.0,0.0,0.0,0.0,0.0,0.0,0.0,0.0,0.0,0.0,0.0,0.0,0.0,0.0,0.0,0.0,0.0,0.0,0.0,0.0,0.0,0.0,0.0,0.0,0.0,0.0,0.0,0.0,0.0,0.0,0.0,0.0,0.0,0.0,0.0,0.0,0.0,0.0,0.0,0.0,0.0,0.0,0.0,0.0,0.0,0.0,0.0,0.0,0.0,0.0,0.0,0.0,0.0,0.0,0.0,0.0,0.0,0.0,0.0,0.0,8.8083,0.0,0.0,0.0,0.0,0.0,0.0,0.0,0.0,0.0,0.0,0.0,0.0,0.0,0.0,0.0,0.0,0.0,0.0,0.0,0.0,0.0,0.0,0.0,0.0,6.2695,6.3726,6.4314,6.4954,0.0,0.0,0.0,0.0,0.0,0.0,0.0,0.0,0.0,6.4217,6.7299,6.7263,7.0345,7.6011,7.4542,7.2937,7.1398,0.0,0.0,0.0,0.0,0.0,0.0,0.0,0.0,0.0,0.0,0.0,0.0,0.0,0.0,0.0,0.0,0.0,0.0,0.0,0.0,0.0,0.0,0.0,0.0,0.0,0.0,0.0,0.0,0.0,0.0,0.0,0.0,0.0,0.0,0.0,0.0,0.0,0.0,0.0,0.0,0.0,0.0,0.0,0.0,0.0,0.0,0.0,0.0,0.0,0.0,0.0,0.0,0.0,0.0,0.0,0.0,0.0,0.0,0.0,0.0,0.0,0.0,0.0,0.0,0.0,0.0,0.0,0.0,0.0,0.0,0.0,9.1734,0.0,0.0,0.0,0.0,0.0,0.0,0.0,0.0,0.0,0.0,0.0,0.0,0.0,0.0,0.0,0.0,0.0,0.0,0.0,0.0,0.0,6.0933,6.1887,6.3652,6.5201,6.6611,6.695,6.6975,6.6866,6.6704,0.0,0.0,0.0,0.0,6.5338,6.5713,6.737,7.0303,7.3274,7.6922,8.117,8.2477,8.117,7.763,7.3553,0.0,0.0,0.0,0.0,0.0,0.0,0.0,0.0,0.0,0.0,0.0,0.0,0.0,0.0,0.0,0.0,0.0,0.0,0.0,0.0,0.0,0.0,0.0,0.0,0.0,0.0,0.0,0.0,0.0,0.0,0.0,0.0,0.0,0.0,0.0,0.0,0.0,0.0,0.0,0.0,0.0,0.0,0.0,0.0,0.0,0.0,0.0,0.0,0.0,0.0,0.0,0.0,0.0,0.0,0.0,0.0,0.0,0.0,0.0,0.0,0.0,0.0,0.0,0.0,0.0,10.1497,10.0671,10.1559,10.3502,9.927,9.7855,9.8077,0.0,0.0,0.0,0.0,0.0,0.0,0.0,0.0,0.0,0.0,0.0,0.0,0.0,0.0,0.0,0.0,0.0,0.0,0.0,0.0,6.2034,6.3576,6.5642,6.7505,6.9164,6.9122,6.9303,6.9988,6.8227,0.0,0.0,0.0,6.5338,6.5338,6.7172,6.9415,7.1947,8.1198,8.5973,8.6478,8.9556,9.071,8.9863,8.2785,7.9554,7.9169,0.0,0.0,0.0,0.0,0.0,0.0,0.0,0.0,0.0,0.0,0.0,0.0,0.0,0.0,0.0,0.0,0.0,0.0,0.0,0.0,0.0,0.0,0.0,0.0,0.0,0.0,0.0,0.0,0.0,0.0,0.0,0.0,0.0,0.0,0.0,0.0,0.0,0.0,0.0,0.0,0.0,8.4352,8.538,0.0,0.0,0.0,0.0,0.0,0.0,0.0,0.0,0.0,0.0,0.0,0.0,0.0,0.0,9.9485,10.1047,10.2669,10.417,10.4212,10.4991,10.6544,10.5799,10.6387,10.7867,10.6544,0.0,9.9931,9.8977,0.0,0.0,0.0,0.0,0.0,0.0,0.0,0.0,0.0,0.0,0.0,0.0,0.0,0.0,0.0,0.0,0.0,0.0,0.0,0.0,0.0,6.8724,7.1433,7.4695,7.4577,7.3979,7.327,7.1916,0.0,0.0,6.7369,6.722,6.732,7.0066,7.4573,8.1035,8.7309,9.1335,9.3095,9.4634,9.5326,9.5172,9.1787,8.7401,8.2324,8.0092,0.0,0.0,0.0,0.0,0.0,0.0,0.0,0.0,0.0,0.0,0.0,0.0,0.0,0.0,0.0,0.0,0.0,0.0,0.0,0.0,0.0,0.0,0.0,0.0,0.0,0.0,0.0,0.0,0.0,0.0,0.0,0.0,0.0,0.0,0.0,0.0,0.0,0.0,0.0,8.6804,8.967,9.0443,9.0273,8.9602,0.0,0.0,0.0,0.0,0.0,0.0,0.0,0.0,0.0,9.8814,10.1237,10.2948,10.3711,10.5302,10.6701,10.7922,10.7952,10.8505,10.9606,10.9312,10.9533,11.012,10.9826,10.8211,10.5652,10.3264,10.1203,9.9183,0.0,0.0,0.0,0.0,0.0,0.0,0.0,0.0,0.0,0.0,0.0,0.0,0.0,0.0,0.0,0.0,0.0,0.0,6.9286,7.2604,7.6155,7.9973,7.9816,7.8979,7.7788,7.5893,7.3586,7.0668,6.9407,6.9298,7.0258,7.4634,8.0839,8.8729,9.2564,9.5711,9.8173,9.8865,9.9173,9.9173,9.9173,9.4403,8.6478,8.5324,8.1862,7.6938,0.0,0.0,0.0,0.0,0.0,0.0,0.0,0.0,0.0,0.0,0.0,0.0,0.0,0.0,0.0,0.0,0.0,0.0,0.0,0.0,0.0,0.0,0.0,0.0,0.0,0.0,0.0,0.0,0.0,0.0,0.0,0.0,0.0,0.0,0.0,0.0,0.0,9.1518,9.4244,9.5072,9.5364,9.4911,0.0,0.0,0.0,0.0,0.0,0.0,9.9035,10.0723,10.1971,10.2999,10.5201,10.667,10.7257,10.8725,10.99,11.0854,11.0854,11.1515,11.2396,11.2396,11.2396,11.2396,11.2396,11.2102,11.1309,10.7707,10.5207,10.3353,10.135,9.9941,0.0,9.8385,9.8227,9.8746,0.0,0.0,0.0,0.0,0.0,0.0,0.0,0.0,0.0,0.0,0.0,6.936,7.1824,7.7505,8.1728,8.3599,8.3515,8.3676,8.4368,7.9312,7.6197,7.6007,7.1927,7.1116,7.4029,8.1866,8.7657,9.1059,9.6865,9.9788,10.0019,10.2404,10.3558,10.3558,10.3558,10.0173,9.4172,9.0171,8.7786,8.6094,7.8861,0.0,0.0,0.0,0.0,0.0,0.0,0.0,0.0,0.0,0.0,0.0,0.0,0.0,0.0,0.0,0.0,0.0,0.0,0.0,0.0,0.0,0.0,0.0,0.0,0.0,0.0,0.0,0.0,0.0,0.0,0.0,0.0,0.0,0.0,0.0,0.0,0.0,0.0,9.764,9.8452,0.0,0.0,0.0,0.0,9.7713,9.9181,10.0796,10.2412,10.4027,10.5568,10.7183,10.8872,10.9753,10.9753,11.0707,11.1882,11.335,11.335,11.4158,11.5773,11.5773,11.5773,11.5773,11.5773,11.5699,11.5406,11.1456,10.837,10.6093,10.5211,10.3815,10.2419,10.2412,10.2412,10.2779,0.0,0.0,0.0,5.9145,5.8804,5.851,5.8731,5.9024,5.9538,6.0272,6.571,7.1012,7.4877,8.049,8.5437,8.9151,8.8871,8.794,8.6632,8.2578,7.9765,7.8903,7.5778,7.661,8.2101,8.6154,9.0759,9.6095,9.8788,10.1481,10.4174,10.5713,10.6328,10.6328,10.6328,10.4328,10.0481,9.6788,9.3095,8.9479,8.5093,8.1016,0.0,0.0,0.0,0.0,0.0,0.0,0.0,0.0,0.0,0.0,0.0,0.0,0.0,0.0,0.0,0.0,0.0,0.0,0.0,0.0,0.0,0.0,0.0,0.0,0.0,0.0,0.0,0.0,0.0,0.0,0.0,0.0,0.0,0.0,0.0,0.0,0.0,10.0062,10.0503,0.0,0.0,10.0209,10.087,10.2412,10.3586,10.5201,10.7257,10.7918,10.8799,10.99,11.1515,11.2322,11.2322,11.357,11.4818,11.592,11.592,11.6801,11.8269,11.8269,11.8563,11.9223,11.9223,11.9223,11.9003,11.7608,11.4305,11.012,10.8799,10.7257,10.5789,10.5275,10.5128,10.5422,0.0,5.7997,0.0,5.8731,5.8364,5.829,5.9098,5.9465,6.0419,6.2548,6.8129,7.3733,7.8511,8.4282,8.9113,9.2597,9.2633,9.1633,8.9633,8.6094,8.3456,8.2258,8.0537,8.2108,8.7345,9.0373,9.4445,9.9635,10.1404,10.3789,10.6867,10.8021,10.8713,10.9021,10.8713,10.7559,10.579,10.2404,9.8173,9.348,9.0402,8.6247,8.1631,0.0,0.0,0.0,0.0,0.0,0.0,0.0,0.0,0.0,0.0,0.0,0.0,0.0,0.0,0.0,0.0,0.0,0.0,0.0,0.0,0.0,0.0,0.0,0.0,0.0,0.0,0.0,0.0,0.0,0.0,0.0,0.0,0.0,0.0,0.0,10.1531,10.2632,10.3219,10.3586,10.3586,10.3806,10.4687,10.6596,10.733,10.875,11.1605,11.141,11.1838,11.3303,11.4354,11.5073,11.5665,11.6691,11.7867,11.9429,11.897,11.9632,12.1348,12.1348,12.1917,12.2719,12.2418,12.2234,12.2234,12.2234,11.9724,11.5517,11.3014,11.1116,10.9612,10.8382,10.7991,10.8297,0.0,5.7997,5.807,5.807,5.807,5.8364,5.9171,5.9979,6.2181,6.7026,7.2436,7.7722,8.2624,8.8726,9.2864,9.371,9.4557,9.4711,9.3787,8.9863,8.7094,8.6247,8.6324,8.7382,8.9373,9.483,9.8865,10.1404,10.4789,10.6867,10.7867,10.9483,11.0791,11.1483,11.0714,11.0329,11.0021,10.6713,10.2866,9.8711,9.4403,9.1171,8.8402,0.0,0.0,0.0,0.0,0.0,0.0,0.0,0.0,0.0,0.0,0.0,0.0,0.0,0.0,0.0,0.0,0.0,0.0,0.0,0.0,0.0,0.0,0.0,0.0,0.0,0.0,0.0,0.0,0.0,0.0,0.0,0.0,0.0,9.7933,10.0796,10.3439,10.4981,10.667,10.7697,10.7697,10.8431,10.9166,10.9973,11.012,11.1594,11.4893,11.4275,11.5,11.7501,11.7436,11.8174,11.9959,11.9798,12.0979,12.361,12.2584,12.312,12.4803,12.4803,12.5314,12.6251,12.5307,12.4803,12.4803,12.4803,12.3759,12.1961,11.7879,11.5247,11.385,11.211,11.1383,11.1778,5.7997,5.851,5.9024,5.9612,5.9758,5.9979,6.0786,6.1594,6.3282,6.6439,7.2585,7.8555,8.3503,8.9108,9.3557,9.6249,9.6634,9.6172,9.4711,9.1864,8.9787,8.8863,9.1864,9.4366,9.6098,9.8827,10.1481,10.4097,10.6328,10.8406,11.0483,11.2175,11.3099,11.333,11.3099,11.2329,11.1021,10.9483,10.7405,10.4789,9.925,9.5172,9.2018,0.0,0.0,0.0,0.0,0.0,0.0,0.0,0.0,0.0,0.0,0.0,0.0,0.0,0.0,0.0,0.0,0.0,0.0,0.0,0.0,0.0,0.0,0.0,0.0,0.0,0.0,0.0,0.0,0.0,0.0,0.0,0.0,10.109,10.131,10.366,10.6009,10.7624,10.8725,10.9606,11.0193,11.0414,11.0928,11.1662,11.2249,11.3529,11.5651,11.7281,11.8392,11.9043,12.0911,12.1726,12.1551,12.1985,12.272,12.3469,12.3088,12.3529,12.4649,12.4649,12.5133,12.5783,12.5556,12.5534,12.546,12.487,12.4468,12.399,12.1658,11.9782,11.8198,11.7229,11.6855,11.708,5.8951,5.9098,5.9538,6.0713,6.0639,6.0786,6.1961,6.2475,6.4412,6.8823,7.4151,7.9854,8.61,9.053,9.4249,9.725,9.748,9.6788,9.5095,9.2941,9.2018,9.2556,9.5326,9.7942,10.0327,10.202,10.4097,10.6713,10.8406,11.0406,11.2637,11.3868,11.4714,11.5022,11.4714,11.4022,11.3022,11.1406,11.0175,10.8867,10.4405,10.0481,9.7096,9.4172,9.171,8.9479,8.7863,8.6555,8.5401,8.5093,0.0,0.0,0.0,0.0,0.0,0.0,0.0,0.0,0.0,0.0,0.0,0.0,0.0,0.0,0.0,0.0,0.0,0.0,0.0,0.0,0.0,0.0,0.0,0.0,10.1017,10.41,10.5128,10.6523,10.7991,10.9606,11.0487,11.1544,11.3166,11.3325,11.3843,11.5025,11.5839,11.7047,11.9189,12.027,12.1309,12.2312,12.3451,12.3972,12.3799,12.3858,12.408,12.4542,12.3669,12.3985,12.5211,12.5211,12.5953,0.0,12.623,12.5955,12.5955,12.5435,12.5075,0.0,0.0,0.0,0.0,0.0,11.9331,11.9331,6.0272,5.9905,5.9979,6.1594,6.13,6.13,6.2842,6.3209,6.5667,7.2522,7.6291,8.1306,8.9228,9.2257,9.4711,9.725,9.7557,9.7019,9.5557,9.3941,9.4172,9.6634,9.7711,9.9712,10.302,10.4713,10.6713,10.9175,11.0868,11.2637,11.4176,11.5022,11.5792,11.6484,11.5792,11.5407,11.5176,11.2868,11.1868,11.1637,10.9098,10.6097,10.2712,9.9481,9.7711,9.6711,9.4326,9.2402,9.0787,9.0094,0.0,0.0,0.0,0.0,0.0,0.0,0.0,0.0,0.0,0.0,0.0,0.0,0.0,0.0,0.0,0.0,0.0,0.0,0.0,0.0,0.0,0.0,0.0,0.0,10.3366,10.6302,10.8725,10.9312,10.9973,11.1441,11.2322,11.3793,11.6289,11.6607,11.7283,11.8923,11.9661,12.1192,0.0,0.0,0.0,0.0,0.0,12.5389,12.5948,12.515,12.5307,12.6251,12.4514,12.4691,12.6476,12.6476,12.7462,12.9023,12.7261,12.6476,12.6476,12.64,12.5945,12.5115,12.3534,12.2849,12.2952,12.1282,12.0673,0.0,6.0493,6.0786,6.1667,6.3356,6.3503,6.3723,6.4677,6.5411,6.7447,7.2097,7.6455,8.1733,8.8669,9.198,9.4711,9.725,9.8173,9.8404,9.8096,9.7096,9.7403,9.925,10.1481,10.3635,10.5636,10.7328,10.9098,11.1021,11.2714,11.4022,11.5099,11.5869,11.6407,11.6484,11.633,11.5869,11.533,11.4791,11.4176,11.3407,11.1483,10.8713,10.5405,10.3405,10.2097,10.1173,10.0019,9.8481,9.7019,9.6865,9.4788,9.2095,9.1479,8.971,0.0,0.0,0.0,0.0,0.0,0.0,0.0,0.0,0.0,0.0,0.0,0.0,0.0,0.0,0.0,0.0,0.0,0.0,0.0,10.2045,10.5495,10.8725,11.0487,11.2396,11.3791,11.4084,11.4818,11.6011,11.783,11.8712,11.9669,12.0638,12.1375,12.2353,12.3572,12.5406,0.0,12.4912,12.6212,12.6287,12.4838,12.4826,12.5186,12.6038,0.0,0.0,12.8211,12.8211,12.8433,12.8797,12.836,12.8211,12.8211,12.7457,12.7206,12.7112,12.6147,12.5924,12.5902,12.5487,12.5378,12.5267,6.1667,6.1594,6.2108,6.3796,6.409,6.4237,6.4604,6.5705,6.8068,7.2425,7.648,8.1231,8.7286,9.034,9.2715,9.4901,9.6597,9.825,9.9942,9.925,9.9942,10.2481,10.4174,10.5867,10.7636,10.9329,11.1021,11.2791,11.4022,11.5099,11.5869,11.6792,11.6869,11.6484,11.7023,11.6715,11.5869,11.5484,11.5022,11.4484,11.333,11.1483,10.9329,10.679,10.5482,10.502,10.4174,10.302,10.202,10.202,10.0327,9.8019,9.7173,9.548,9.348,0.0,0.0,0.0,0.0,0.0,0.0,0.0,0.0,0.0,0.0,0.0,0.0,0.0,0.0,9.441,0.0,0.0,10.3366,10.5422,10.8138,11.0707,11.2689,11.4378,11.5406,11.5406,11.6507,11.8033,12.0052,12.1324,12.2174,12.295,12.4591,12.5573,12.5561,12.6681,12.6886,12.5995,12.6512,12.6112,12.4654,12.5207,12.5706,12.6081,12.6628,12.7296,12.8171,12.8171,12.8516,12.8839,12.8374,12.8171,12.8171,12.7792,12.7861,12.84,12.8105,12.8025,12.7898,12.7435,12.7195,12.7084,6.2842,6.2254,6.2377,6.3947,6.4365,6.4488,6.4365,6.5717,6.8107,7.2199,7.5655,7.9725,8.5046,8.7601,8.9838,9.2073,9.4288,9.7174,10.0789,10.0789,10.1866,10.502,10.6097,10.7405,10.8867,11.0791,11.2483,11.4022,11.5022,11.5869,11.6484,11.7176,11.7176,11.6484,11.7176,11.7176,11.6484,11.5792,11.5484,11.5484,11.4561,11.3714,11.2637,10.979,10.8482,10.8098,10.7175,10.6328,10.5559,10.5559,10.4636,10.3174,10.2097,10.0866,9.9327,9.6942,9.6249,0.0,0.0,0.0,0.0,0.0,0.0,0.0,0.0,9.422,9.4934,9.5148,9.6025,9.764,10.087,10.3219,10.5495,10.8285,11.0487,11.2616,11.4672,11.614,11.7021,11.7021,11.8122,11.9818,12.2287,12.3609,12.4519,12.5141,12.7514,12.8592,12.7757,12.7731,12.7643,12.738,12.6744,12.6112,12.5365,12.61,12.654,12.6691,12.6978,12.7604,12.8458,12.8687,12.9188,12.9898,12.9284,12.8993,12.8993,12.8993,12.955,13.0179,13.0179,13.0179,13.0052,12.8462,12.7999,12.794,6.2842,6.2768,6.3113,6.4448,6.5328,6.5807,6.5451,6.6462,6.7858,6.9793,7.3044,7.6803,8.1041,8.354,8.6434,9.0241,9.216,9.5202,9.9942,10.1481,10.3174,10.502,10.6713,10.8021,10.8867,11.1329,11.3022,11.4022,11.5561,11.6407,11.6484,11.6561,11.6561,11.6484,11.6561,11.6561,11.6484,11.6407,11.6407,11.633,11.5484,11.4561,11.3714,11.2637,11.1175,10.979,10.8867,10.8098,10.7405,10.7405,10.679,10.5713,10.4097,10.3482,10.302,10.1096,10.0635,10.0635,10.0481,10.0635,10.0673,10.0556,9.9584,9.865,0.0,9.8277,9.7725,9.8374,9.9769,10.1017,10.1384,10.4614,10.7477,10.8578,11.1882,11.4672,11.5699,11.8489,12.0398,12.0398,12.0471,12.1375,12.3014,12.4851,12.6325,12.708,12.8307,12.882,12.8588,12.9191,12.8874,12.7297,12.7968,12.7985,12.7156,12.7404,12.7861,12.8762,12.9571,13.0511,13.1308,13.2076,13.2513,13.2564,13.3359,13.3614,13.3614,13.3614,13.3589,13.3718,13.3718,13.3718,13.3333,13.0154,12.9001,12.9001,6.3178,6.3224,6.3617,6.4784,6.5595,6.6014,6.5651,6.6811,6.8316,7.0113,7.205,7.4331,7.7143,7.9887,8.3537,8.8443,9.1276,9.5083,10.0365,10.2404,10.4097,10.579,10.7482,10.879,10.956,11.1714,11.3407,11.4791,11.5484,11.6022,11.6484,11.7023,11.7023,11.6484,11.7023,11.7023,11.6484,11.6484,11.6484,11.6484,11.6099,11.5176,11.4022,11.3637,11.2406,11.0868,11.0483,11.0175,0.0,10.9867,10.9021,10.7713,10.6482,10.5405,10.4328,10.2635,10.2712,10.3712,10.4713,10.3866,10.3174,10.4713,10.3838,10.2613,10.2958,10.2595,10.2081,10.1917,10.2412,10.3293,10.4761,10.6816,10.9166,0.0,11.4084,11.6287,11.8489,12.0031,12.1426,12.282,12.2967,12.3261,12.3922,12.5739,12.708,12.7275,12.9865,13.1024,13.0426,13.0586,13.0302,12.9036,12.8436,12.7758,12.7531,12.8136,12.9054,13.049,13.1479,13.241,13.318,13.3564,13.3795,13.3795,13.4103,13.4334,13.4334,13.4334,13.4334,13.4334,13.4334,13.4334,13.4103,13.2718,13.2179,13.2179,6.3718,6.3718,6.3896,6.49,6.5879,6.64,6.6061,6.7087,6.8445,6.9873,7.0683,7.1991,7.428,7.679,8.0451,8.5671,8.9457,9.3994,9.9904,10.2327,10.4405,10.6328,10.779,10.9021,10.979,11.1483,11.3099,11.4561,11.5099,11.5561,11.6176,11.7023,11.71,11.6484,11.7176,11.7023,11.6176,11.6176,11.6022,11.5792,11.5792,11.4868,11.3637,11.3637,11.2791,11.1483,11.1175,11.1098,11.1098,11.0637,10.9867,10.9021,10.7713,10.679,10.5867,10.4405,10.4866,10.6097,10.7405,10.6482,10.579,10.7867,10.7279,10.6154,10.624,10.5723,10.5013,10.4458,10.4419,10.5128,10.689,10.8652,11.0781,11.4011,11.592,11.7902,12.0471,12.1499,12.2527,12.4289,12.4729,12.4729,12.4509,12.6081,12.7217,12.7626,13.0246,13.1696,13.1253,13.1418,13.1113,13.0337,12.9378,12.9019,12.8991,12.9955,13.11,13.2324,13.2992,13.3718,13.4334,13.4487,13.4795,13.5026,13.5026,13.5026,13.5026,13.5026,13.5026,13.5026,13.5026,13.5026,13.5026,13.4718,13.4487,13.4334,6.4138,6.3937,6.3896,6.49,6.6434,6.7477,6.7088,6.737,6.7715,6.8032,6.8346,6.9892,7.3324,7.4515,7.6903,8.1623,8.5847,9.092,9.7212,10.0789,10.3789,10.6328,10.7328,10.8098,10.8867,11.0637,11.1945,11.2791,11.4484,11.533,11.5407,11.6176,11.6484,11.6484,11.6484,11.6099,11.533,11.533,11.4791,11.4099,11.4099,11.3483,11.2714,11.2714,11.2175,11.1406,11.0483,11.0175,11.0021,10.8406,10.8867,10.9713,10.7175,10.7482,10.8636,10.779,10.7636,10.7636,10.7713,10.8175,10.9021,10.9867,10.9542,10.8894,10.8918,10.7006,10.5204,10.5207,10.5785,10.6302,10.6376,10.9606,11.2616,11.3497,11.6874,11.9811,12.0765,12.2894,12.4362,12.4509,12.517,12.539,0.0,12.5447,12.6803,12.8437,12.8906,12.9421,13.0198,13.1037,13.1037,13.0198,13.1659,13.263,13.282,13.3666,13.4205,13.4205,13.418,13.4334,13.4334,13.5103,13.5872,13.6719,13.6719,13.6719,13.6719,13.6719,13.6719,13.6719,13.6719,13.6719,13.6565,13.5795,13.5026,13.4334,6.5237,6.535,6.5635,6.6279,6.7362,6.8109,6.7987,6.852,6.896,6.8866,6.8772,0.0,0.0,0.0,0.0,0.0,8.5496,9.0159,9.7058,9.9635,10.2635,10.6174,10.6713,10.7482,10.8867,11.0021,11.1098,11.1945,11.3637,11.4714,11.533,11.6099,11.6484,11.6484,11.5869,11.5561,11.533,11.4714,11.433,11.4022,11.4022,11.3483,11.2791,11.333,11.2022,10.979,0.0,11.0175,11.0021,10.8867,10.8482,10.8406,10.7482,10.7328,10.7405,10.8175,10.8867,10.956,11.0714,11.1175,11.1791,11.3176,11.3427,11.2992,11.2434,11.171,11.0718,10.9613,10.9453,10.9809,11.0248,11.2405,11.4378,11.5773,11.8489,12.1197,12.3134,12.4133,12.526,12.7084,12.6341,0.0,0.0,0.0,0.0,12.7551,12.9019,13.035,13.18,13.2749,13.3189,13.2882,13.3496,13.376,13.3872,13.418,13.4564,13.5103,13.6334,13.6796,13.6796,13.7719,13.8181,13.8488,13.8488,13.8488,13.8488,13.8488,13.8488,13.8488,13.8488,13.8104,13.7565,13.7257,13.6719,13.5795,6.7113,6.7207,6.7355,6.7499,6.8321,0.0,0.0,0.0,0.0,0.0,0.0,0.0,0.0,0.0,0.0,0.0,0.0,8.8425,9.4521,9.7328,10.0481,10.4405,10.4866,10.579,10.7482,10.8406,10.9329,11.0098,11.2099,11.3407,11.4022,11.5099,11.5561,11.5561,11.5099,11.4714,11.433,11.3791,11.3714,11.3868,11.3022,11.2714,11.2714,11.2329,11.0637,0.0,10.879,10.8636,10.8175,10.7405,10.7175,10.7098,10.6482,10.679,10.7482,10.8636,10.9713,11.1098,11.3099,11.3637,11.4099,11.6176,11.6407,11.6009,11.5548,11.4703,11.3688,11.2615,11.1816,11.1465,11.2434,11.3843,11.5406,11.7314,12.0031,12.2375,12.4393,12.487,12.546,12.7009,12.6167,12.558,0.0,0.0,0.0,12.7751,12.8499,12.9995,13.269,13.3453,13.4026,13.4334,13.4564,13.4718,13.4718,13.5026,13.5565,13.6411,13.7565,13.8257,13.8488,13.9104,13.9335,13.9335,13.9335,13.9335,13.9335,13.9335,13.9335,13.9335,13.9335,13.8796,13.8104,13.7796,13.7103,13.618,6.9616,6.9344,6.8915,0.0,0.0,0.0,0.0,0.0,0.0,0.0,0.0,0.0,0.0,0.0,0.0,0.0,0.0,0.0,8.9936,9.387,9.7557,10.1019,10.202,10.3174,10.4866,10.579,10.6713,10.7405,11.0021,11.1329,11.1329,11.3022,11.3791,11.3791,11.3791,11.333,11.2483,11.2406,11.2791,11.333,11.0868,11.0868,11.2099,10.9713,10.8329,10.7405,10.6713,10.579,10.4789,10.4174,10.5097,10.6328,10.4713,10.6405,10.9021,10.9021,11.0329,11.2329,11.4714,11.5484,11.6099,11.8561,11.8638,11.81,11.81,11.6161,11.4312,11.4236,11.2826,11.1763,11.2509,11.3917,11.5699,11.8122,12.1205,12.3555,12.4534,12.5269,12.5416,0.0,0.0,12.4515,0.0,0.0,0.0,12.8901,0.0,12.845,13.2716,13.2974,13.3487,13.4334,13.5103,13.5565,13.5565,13.6411,13.7257,13.8181,13.8181,13.8565,13.9412,13.9412,13.9412,13.9412,13.9412,13.9412,13.9412,13.9412,13.9412,13.9412,13.9412,13.8873,13.8104,13.718,13.6411,13.5719,0.0,0.0,0.0,0.0,0.0,0.0,0.0,0.0,0.0,0.0,0.0,0.0,0.0,0.0,0.0,0.0,0.0,0.0,8.8061,9.0915,9.4557,9.925,9.9635,10.0866,10.3174,10.4097,10.4328,10.3866,10.7098,10.8329,10.779,11.0098,11.1175,11.1098,11.0483,11.0098,10.979,10.8482,10.779,10.7328,10.6713,10.6713,10.7098,10.779,10.6713,10.5097,10.679,10.5174,10.2635,10.502,10.6867,10.8175,10.779,10.9098,11.0791,11.0791,11.2868,11.5407,11.6022,11.7561,11.9331,12.0562,12.1331,12.1639,12.1639,12.0476,11.8986,11.7079,11.5843,11.4818,11.4446,11.5543,11.7168,11.9003,12.1499,12.3773,12.5464,12.5092,12.5355,12.6594,12.6244,12.6024,12.6586,12.7006,0.0,0.0,12.9926,12.9961,13.1586,13.3727,13.5026,13.518,13.6026,13.6488,13.6488,13.7257,13.8181,13.9027,13.9719,14.0104,14.0335,14.0873,14.1181,14.1181,14.1181,14.1181,14.1181,14.1181,14.1181,14.1181,14.1181,14.0335,13.9027,13.8719,13.7719,13.6488,0.0,0.0,0.0,0.0,0.0,0.0,0.0,0.0,0.0,0.0,0.0,0.0,0.0,0.0,0.0,0.0,0.0,0.0,0.0,8.8041,9.1479,9.5865,9.6403,9.7557,9.9788,10.0712,10.0866,10.0404,10.302,10.4328,10.4174,10.602,10.7098,10.7405,10.6482,10.6097,10.602,10.4713,10.4328,0.0,0.0,10.3866,10.4559,10.4789,10.3789,10.2404,10.3866,10.3482,10.2789,10.5482,10.7021,10.7867,10.8713,11.0098,11.1714,11.2791,11.4714,11.6715,11.7869,11.9485,12.11,12.2024,12.2793,12.3332,12.3024,12.2192,12.0829,11.8204,11.6868,11.5956,11.5489,11.6726,11.8416,12.0398,12.282,12.4729,12.569,12.5438,12.5313,12.6081,12.5845,12.5796,12.632,12.7124,12.8364,0.0,13.0323,13.1113,13.3042,13.459,13.5719,13.6103,13.6873,13.7488,13.7873,13.8411,13.9027,13.9873,14.0412,14.0796,14.1181,14.172,14.1874,14.1874,0.0,14.1874,14.1874,14.1874,14.1874,14.1874,14.1874,14.0796,13.9335,13.9335,13.8181,13.6796,0.0,0.0,0.0,0.0,0.0,0.0,0.0,0.0,0.0,7.2803,7.3879,7.48,7.519,7.5749,0.0,0.0,0.0,0.0,0.0,0.0,8.8632,9.1864,9.2787,9.4018,9.5788,9.6557,9.6942,9.6865,9.8557,9.9635,10.0173,10.1327,10.2174,10.2866,10.2174,10.1866,10.1866,10.1019,10.1404,10.2558,10.1096,10.1404,10.2558,0.0,10.0404,9.9788,10.0096,10.1789,10.402,10.579,10.6713,10.7328,10.879,11.0483,11.2483,11.4791,11.6099,11.7407,11.9715,12.1023,12.2024,12.2793,12.3716,12.4101,12.3408,12.2515,12.1041,11.8356,11.6902,11.6099,11.6005,11.7067,11.9003,12.1719,12.3922,12.5463,12.5684,12.561,12.5342,12.4877,12.487,12.5207,12.5449,12.6926,12.8433,12.9487,13.0332,13.2094,13.5098,13.5589,13.618,13.7103,13.7873,13.8565,13.9488,13.9488,13.9873,14.0796,14.0796,14.1181,14.1874,14.1874,14.1874,14.1874,0.0,0.0,14.1874,14.1874,14.1874,14.1874,14.1874,14.0796,13.9335,13.9335,13.8181,13.6796,0.0,0.0,0.0,0.0,0.0,0.0,0.0,0.0,0.0,0.0,7.6284,7.5652,0.0,0.0,0.0,0.0,0.0,0.0,0.0,0.0,0.0,8.9248,9.0094,9.1402,9.3095,9.3941,9.4018,9.3403,9.5095,9.5249,9.4095,9.6326,9.748,9.7634,9.8173,9.8404,9.8327,9.748,9.6942,9.648,9.6172,9.6249,9.6634,9.7711,9.8096,0.0,10.0327,10.1789,10.3174,10.5636,10.8329,11.0714,11.1021,11.2714,11.4868,11.6022,11.7407,11.8869,12.0023,12.1485,12.287,12.3716,12.4486,12.5101,12.5024,12.3647,12.1579,11.8417,11.6325,11.5111,11.5061,11.5808,11.7682,12.1499,12.2967,12.4215,12.5463,12.5096,12.4973,12.5702,12.6525,12.7606,12.921,13.018,13.171,0.0,0.0,0.0,13.4189,13.6391,13.8027,13.8796,13.9027,13.9488,14.0412,14.0412,14.0796,14.172,14.172,14.1797,14.1874,14.1874,14.1874,14.1874,0.0,0.0,14.1874,14.1874,14.1874,14.1874,14.1874,14.0796,13.9335,13.9335,13.8181,13.6796,0.0,0.0,0.0,0.0,0.0,0.0,0.0,7.7707,7.9031,8.2211,8.146,7.9872,7.7998,7.7812,7.8127,0.0,0.0,0.0,0.0,0.0,0.0,8.794,8.8402,8.9402,9.1095,9.1095,9.1095,9.1171,0.0,9.1556,9.1171,9.2402,9.3249,9.3633,9.3557,9.3787,9.4172,9.3326,9.3018,9.3095,9.348,9.371,9.3787,9.5095,9.5788,0.0,9.9635,10.1173,10.2404,10.5405,10.8713,11.1637,11.2022,11.3868,11.6176,11.7484,11.8715,11.9869,12.0716,12.2177,12.3639,12.4024,12.4793,12.5178,12.4332,12.3087,12.1211,11.7794,11.6288,11.5507,11.4836,11.6136,11.7975,12.0398,12.26,12.4215,12.5023,12.5096,12.522,12.5818,12.6222,12.7318,12.9267,12.9721,13.1217,13.451,0.0,0.0,0.0,13.7788,13.9104,13.9873,14.0027,14.0412,14.1335,14.1335,14.1489,14.1874,14.1874,14.1874,14.1874,14.1874,14.1874,14.1874,0.0,0.0,14.1874,14.1874,14.1874,14.1874,14.1874,14.0796,13.9335,13.9335,13.8181,13.6796,0.0,0.0,0.0,0.0,0.0,0.0,0.0,8.0323,8.1862,8.6863,8.7082,8.5071,8.0605,8.0226,7.9949,0.0,0.0,0.0,0.0,0.0,0.0,0.0,8.6863,8.7632,8.9325,0.0,0.0,8.9402,8.8709,0.0,0.0,0.0,0.0,0.0,8.9863,9.0094,9.0864,9.0171,9.0402,0.0,0.0,9.2249,9.2326,0.0,0.0,0.0,0.0,10.0712,10.2097,10.5328,10.8406,11.1098,11.2099,11.433,11.6792,11.8561,11.9485,12.0331,12.1485,12.3024,12.4101,12.4332,12.487,12.5024,12.3332,12.21,12.0372,11.717,11.6043,11.5635,11.4975,11.643,11.8122,11.959,12.216,12.4068,12.4509,12.517,12.5808,12.6093,12.6198,12.7208,12.9545,12.9515,13.0688,13.4023,0.0,0.0,0.0,13.9181,14.0027,14.0873,14.0873,14.1181,14.1874,14.1874,14.1874,14.1874,14.1874,14.1874,14.1874,14.1874,14.1874,14.1874,0.0,0.0,0.0,14.1874,14.1874,14.1874,14.1874,14.0873,13.9642,13.9412,13.8411,13.7103,0.0,0.0,0.0,0.0,0.0,0.0,0.0,8.4478,8.694,9.1325,9.1828,9.0262,8.6188,8.3915,8.2217,0.0,0.0,0.0,0.0,0.0,0.0,0.0,0.0,0.0,0.0,0.0,0.0,8.7632,8.7555,0.0,0.0,0.0,0.0,0.0,0.0,8.9248,9.0017,8.994,0.0,0.0,0.0,0.0,0.0,0.0,0.0,0.0,0.0,10.1096,10.2866,10.5482,10.7636,10.9406,11.1098,11.3868,11.6792,11.8561,11.9177,11.9715,12.21,12.3408,12.4332,12.5101,12.5332,12.5024,12.3332,12.1639,11.968,11.7017,11.5195,11.428,11.4826,11.5025,11.6434,12.0178,12.1572,12.282,12.4289,12.517,12.6114,12.7224,12.7766,12.9625,13.3383,13.2713,13.2893,0.0,0.0,0.0,0.0,14.0412,14.0873,14.1797,14.1797,14.1797,14.1874,14.1874,14.1874,14.1874,14.1874,14.1874,14.1874,14.1874,14.1874,14.1874,0.0,0.0,0.0,14.1874,14.1874,14.1874,14.1874,14.1335,14.0412,13.9642,13.8719,13.7873,0.0,0.0,0.0,0.0,0.0,0.0,8.3632,8.5324,8.8017,9.3326,9.448,9.3561,9.0493,8.8845,8.6199,8.1804,0.0,0.0,0.0,0.0,0.0,0.0,0.0,0.0,0.0,0.0,8.7094,8.8171,8.7632,0.0,0.0,0.0,0.0,0.0,0.0,8.8863,8.9171,8.9171,0.0,0.0,0.0,0.0,0.0,0.0,0.0,0.0,0.0,0.0,10.2174,10.4789,10.7098,10.9175,11.1021,11.3483,11.6099,11.7792,11.9408,12.0869,12.2485,12.387,12.5101,12.6024,12.5794,12.5024,12.3332,12.1562,11.9592,11.7001,11.5115,11.3965,11.4221,11.4557,11.5479,11.7608,11.9884,12.1793,12.2894,12.5023,12.6663,12.7252,12.8865,13.1053,13.3793,13.3718,13.4643,0.0,0.0,0.0,0.0,0.0,14.1489,14.1874,14.1874,14.1874,14.1874,14.1874,14.1874,14.1874,14.1874,14.1874,14.1874,14.1874,14.1874,14.1874,0.0,0.0,0.0,14.1874,14.1874,14.1874,14.1874,14.1412,14.0489,13.9642,13.8796,13.8027,0.0,0.0,0.0,0.0,0.0,7.9323,8.417,8.6247,8.9094,9.4326,9.5788,9.5403,9.3095,9.1402,8.8528,8.3676,8.2491,0.0,0.0,0.0,0.0,0.0,0.0,0.0,0.0,0.0,8.694,8.794,8.7863,8.7786,0.0,0.0,8.8017,8.694,0.0,0.0,0.0,0.0,0.0,0.0,0.0,0.0,0.0,0.0,0.0,0.0,0.0,0.0,0.0,0.0,0.0,10.8406,10.9867,11.2329,11.5099,11.7792,11.9792,12.1716,12.3793,12.5101,12.6101,12.7178,12.6563,12.5332,12.3332,12.1562,11.9562,11.7023,11.5282,11.4199,11.394,11.4375,11.5282,11.6609,11.9412,12.1699,12.2731,12.567,12.7764,12.7634,13.0296,13.2644,13.4185,13.4545,0.0,0.0,0.0,0.0,0.0,0.0,14.1874,14.1874,14.1874,14.1874,14.1874,14.1874,14.1874,14.1874,14.1874,14.1874,14.1874,14.1874,14.1874,0.0,0.0,0.0,0.0,14.2027,14.2027,14.2181,14.2027,14.1489,14.0873,14.0027,13.9181,13.8334,0.0,0.0,0.0,0.0,0.0,0.0,8.4247,8.7709,9.1095,9.4557,9.5788,9.5634,9.3864,9.071,8.8325,8.7401,8.5016,0.0,0.0,0.0,0.0,0.0,0.0,0.0,0.0,0.0,8.694,8.617,8.7863,8.8709,8.8709,8.8709,8.8709,8.8632,0.0,0.0,0.0,0.0,0.0,0.0,0.0,0.0,9.1479,0.0,0.0,0.0,0.0,0.0,0.0,0.0,0.0,0.0,0.0,11.0021,11.3714,11.8792,12.0331,12.1408,12.6486,12.7332,12.7101,12.8794,12.7871,12.6024,12.3485,12.1562,11.9562,11.7023,11.5804,11.4945,11.4146,11.4384,11.5633,11.832,12.0779,12.2865,12.4493,12.7662,12.9635,12.8467,13.2248,13.5011,13.5176,13.5995,0.0,0.0,0.0,0.0,0.0,0.0,14.1874,14.1874,14.1874,14.1874,14.1874,14.1874,14.1874,14.1874,14.1874,14.1874,14.1874,14.1874,0.0,0.0,0.0,0.0,0.0,14.2181,14.2412,14.3028,14.2181,14.1874,14.1797,14.0873,14.0027,13.9181,0.0,0.0,0.0,0.0,0.0,0.0,0.0,8.517,8.8556,9.1941,9.3633,9.4326,9.3787,9.1171,8.9171,8.8325,8.594,0.0,0.0,0.0,0.0,0.0,0.0,0.0,0.0,0.0,8.7248,8.7017,8.9325,8.9787,8.8709,9.0479,9.0017,8.7863,8.9633,9.0248,0.0,0.0,0.0,0.0,0.0,9.1325,9.3095,0.0,0.0,0.0,0.0,0.0,0.0,0.0,0.0,0.0,0.0,0.0,0.0,11.7407,11.9792,12.1716,12.387,12.5101,12.587,12.6486,12.5794,12.4562,12.3178,12.1562,11.9715,11.7792,11.6187,11.4869,11.4146,11.4458,11.5464,11.7451,11.9355,12.1695,12.5089,12.7532,12.9291,13.0232,13.3193,13.57,13.6967,0.0,0.0,0.0,0.0,0.0,0.0,0.0,14.1874,14.1874,14.1874,14.1874,14.1874,14.1874,14.1874,14.1874,14.1874,14.1874,14.1874,14.1874,0.0,0.0,0.0,0.0,0.0,14.2027,14.2104,14.2258,14.2027,14.1874,14.1874,14.1566,14.1335,14.1027,0.0,0.0,0.0,0.0,0.0,0.0,0.0,8.3016,8.617,8.894,9.0787,9.2018,9.271,9.0479,8.9017,8.9171,8.7094,0.0,0.0,0.0,0.0,0.0,0.0,0.0,0.0,8.6401,8.8017,8.8325,9.0864,9.1941,9.1556,9.2864,9.2095,8.9863,9.1095,9.1248,0.0,0.0,0.0,0.0,9.0094,9.1556,9.3403,0.0,0.0,0.0,0.0,0.0,0.0,0.0,0.0,0.0,0.0,0.0,0.0,0.0,11.8177,12.0716,12.3178,12.4409,12.5101,12.5717,12.5178,12.4178,12.2716,12.1331,11.9715,11.7715,11.6387,11.5391,11.4588,11.5005,11.6031,11.7479,11.9168,12.1482,12.5026,12.7575,13.0249,13.3383,13.4871,13.6468,0.0,0.0,0.0,0.0,0.0,0.0,0.0,0.0,14.1874,14.1874,14.1874,14.1874,14.1874,14.1874,14.1874,14.1874,14.1874,14.1874,14.1874,0.0,0.0,0.0,0.0,0.0,0.0,14.2027,14.2104,14.2412,14.2412,14.2412,14.2412,14.272,14.2566,14.2412,0.0,0.0,0.0,0.0,0.0,0.0,0.0,8.1323,8.4016,8.5709,8.7401,8.9094,9.0787,8.8786,8.794,8.9556,0.0,0.0,0.0,0.0,0.0,0.0,0.0,0.0,0.0,8.694,8.9094,8.994,9.2556,9.4711,9.6172,9.5557,9.4711,9.3633,9.2941,9.2018,0.0,0.0,0.0,0.0,9.0864,9.1787,0.0,0.0,0.0,0.0,0.0,0.0,0.0,0.0,0.0,0.0,0.0,0.0,0.0,0.0,0.0,0.0,0.0,12.4332,12.4178,12.5794,12.5563,12.4332,12.2024,12.0716,0.0,11.71,11.6484,11.63,11.5413,11.6011,11.7017,11.8614,12.0288,12.2336,12.4693,12.82,13.24,13.725,13.6975,13.7539,0.0,0.0,0.0,0.0,0.0,0.0,0.0,0.0,0.0,14.1874,14.1874,14.1874,14.1874,14.1874,14.1874,14.1874,14.1874,14.1874,14.1874,0.0,0.0,0.0,0.0,0.0,0.0,14.2181,14.2412,14.3105,14.3105,14.3105,14.3258,14.4182,14.4028,14.3258,0.0,0.0,0.0,0.0,0.0,0.0,0.0,0.0,0.0,0.0,8.5632,8.7094,8.8171,8.7171,8.6863,0.0,0.0,0.0,0.0,0.0,0.0,0.0,0.0,0.0,0.0,8.694,8.9094,8.994,9.3787,9.5557,9.5326,9.7096,9.6403,9.371,9.348,9.2249,0.0,0.0,0.0,0.0,9.0864,9.2095,0.0,0.0,0.0,0.0,9.8634,10.0096,0.0,0.0,0.0,0.0,0.0,0.0,0.0,0.0,11.4791,11.71,11.8331,0.0,12.11,12.0869,12.0716,12.0408,0.0,11.9023,11.8177,11.7638,11.7023,11.6377,11.6253,11.6926,11.793,11.9521,12.1721,12.428,12.7564,13.0855,13.3835,13.5704,13.6278,13.7768,0.0,0.0,0.0,0.0,0.0,0.0,0.0,0.0,0.0,14.1874,14.1874,14.1874,14.1874,14.1874,14.1874,14.1874,14.1874,14.1874,14.1874,0.0,0.0,0.0,0.0,0.0,14.2181,14.2027,14.2412,14.3105,14.3105,14.3489,14.4182,14.5105,14.5336,14.5182,0.0,0.0,0.0,0.0,0.0,0.0,0.0,0.0,0.0,0.0,0.0,8.5863,8.6709,8.6401,0.0,0.0,0.0,0.0,0.0,0.0,0.0,0.0,0.0,0.0,8.3555,8.694,8.9633,9.1633,9.4788,9.7019,9.8481,9.9096,9.8173,9.5942,9.4018,9.2172,0.0,0.0,0.0,9.0556,9.1018,0.0,0.0,0.0,0.0,0.0,9.9481,10.1019,0.0,10.4866,10.6174,10.7405,0.0,0.0,0.0,0.0,11.3714,11.5407,11.5407,11.7792,12.0177,11.9792,12.0023,12.01,11.9715,11.9023,11.8331,11.7869,11.71,11.6624,11.7055,11.8102,11.9419,12.1026,12.34,12.6484,13.0732,13.3478,13.5502,13.6484,13.7616,13.8961,0.0,0.0,0.0,0.0,0.0,0.0,0.0,0.0,0.0,0.0,14.1874,14.1874,14.1874,14.1874,14.1874,14.1874,14.1874,14.2104,14.2489,0.0,0.0,0.0,0.0,0.0,14.3028,14.2566,14.2874,14.372,14.4105,14.4566,14.5105,14.5874,14.6336,14.6336,0.0,0.0,0.0,0.0,0.0,0.0,0.0,0.0,0.0,0.0,0.0,0.0,0.0,0.0,0.0,0.0,0.0,0.0,0.0,0.0,0.0,0.0,0.0,8.3555,8.3939,8.694,9.0171,9.371,9.5711,9.8634,10.2404,10.1327,10.0096,9.8634,9.4634,9.2326,0.0,0.0,9.1171,9.1171,9.1171,0.0,0.0,0.0,0.0,0.0,0.0,0.0,0.0,10.6713,10.7713,10.8329,11.0637,0.0,0.0,0.0,0.0,0.0,11.433,11.7484,12.0485,11.9869,12.0408,12.0793,11.9869,11.9177,11.8484,11.7792,11.71,11.7023,11.8177,11.9638,12.1293,12.3242,12.5572,12.878,13.3084,13.5196,13.6669,13.7655,13.9434,0.0,0.0,0.0,0.0,0.0,0.0,0.0,0.0,0.0,0.0,0.0,14.1874,14.1874,14.1874,14.1874,14.1874,14.1874,14.2027,14.2412,14.3105,14.3181,0.0,0.0,0.0,0.0,14.4336,14.3566,14.3797,14.472,14.5413,14.5797,14.6028,14.6567,14.6875,14.6875,0.0,0.0,0.0,0.0,0.0,0.0,0.0,0.0,0.0,0.0,0.0,0.0,0.0,0.0,0.0,0.0,0.0,0.0,0.0,0.0,0.0,0.0,0.0,0.0,8.5709,8.694,8.9633,9.371,9.6865,9.9481,10.1481,10.3405,10.2404,9.8711,9.5865,9.371,9.2249,9.1479,9.1171,9.1171,9.1171,0.0,0.0,0.0,0.0,0.0,0.0,0.0,0.0,10.602,10.7482,10.8867,11.0021,0.0,0.0,0.0,0.0,0.0,11.5869,11.9177,12.1639,11.8023,11.7715,11.8177,11.733,11.7023,11.6869,11.6715,11.7176,11.8331,12.0562,12.1793,12.3514,12.6568,12.9181,13.1118,13.1773,13.4091,13.5931,13.6698,0.0,0.0,0.0,0.0,0.0,0.0,0.0,0.0,0.0,0.0,0.0,0.0,0.0,14.1874,14.1874,14.1874,14.1874,14.1874,14.2566,14.3028,14.3105,14.3874,14.4336,0.0,0.0,14.4336,14.4412,14.4336,14.472,14.549,14.5567,14.6105,14.6721,14.6875,14.6875,14.6721,0.0,0.0,0.0,0.0,0.0,0.0,0.0,0.0,0.0,0.0,0.0,0.0,0.0,0.0,0.0,0.0,0.0,0.0,0.0,0.0,0.0,0.0,0.0,0.0,0.0,8.8786,9.2018,9.5711,9.9635,10.2866,10.5405,10.4789,10.2712,9.9327,9.6326,9.4095,9.2479,9.2095,9.1864,9.1864,0.0,0.0,0.0,0.0,0.0,0.0,0.0,0.0,0.0,0.0,10.7867,10.9098,10.9867,0.0,0.0,0.0,0.0,0.0,11.633,11.8869,12.11,11.9562,12.0869,12.2485,12.21,12.2024,12.2024,12.2024,12.1562,12.1793,12.4024,12.4716,12.6409,13.0718,13.2333,13.3691,13.551,13.681,13.7842,0.0,0.0,0.0,0.0,0.0,0.0,0.0,0.0,0.0,0.0,0.0,0.0,0.0,0.0,0.0,14.1874,14.1874,14.1874,14.1874,14.272,14.3335,14.3797,14.472,14.5336,14.572,0.0,14.5336,14.572,14.5336,14.5567,14.6336,14.6336,14.6567,14.6875,14.6875,14.6567,14.6105,0.0,0.0,0.0,0.0,0.0,0.0,0.0,0.0,0.0,0.0,0.0,0.0,0.0,0.0,0.0,0.0,0.0,0.0,0.0,0.0,0.0,0.0,0.0,0.0,0.0,9.1325,9.4711,9.8096,10.2404,10.6097,10.9098,10.579,10.2866,10.0481,9.7096,9.4634,9.3095,9.2864,9.2787,9.2787,0.0,0.0,0.0,0.0,0.0,0.0,0.0,0.0,0.0,0.0,0.0,0.0,0.0,0.0,0.0,11.2791,11.4099,11.5561,11.6792,11.8792,12.0869,12.187,12.3716,12.5409,12.6024,12.587,12.587,12.6332,12.5563,12.5486,12.7025,12.7871,12.9794,13.3872,13.4872,13.5872,13.8104,0.0,0.0,0.0,0.0,0.0,0.0,0.0,0.0,0.0,0.0,0.0,0.0,0.0,0.0,0.0,0.0,0.0,14.1874,14.2104,14.2181,14.2181,14.3028,14.3874,14.472,14.5567,14.6336,14.6875,14.6182,14.6336,14.6875,14.6182,14.6336,14.6875,14.6875,14.6875,14.6875,14.6875,14.6413,14.5567,0.0,0.0,0.0,0.0,0.0,0.0,0.0,0.0,0.0,0.0,0.0,0.0,0.0,0.0,0.0,0.0,0.0,0.0,0.0,0.0,0.0,0.0,0.0,0.0,0.0,9.4249,9.648,9.9865,10.4097,10.7636,11.0021,10.6559,10.4097,10.2327,9.8865,9.6403,9.4788,9.3941,9.3633,9.3633,9.3633,0.0,0.0,0.0,0.0,0.0,0.0,0.0,0.0,0.0,0.0,0.0,0.0,0.0,11.2791,11.3714,11.4561,11.5792,11.8331,12.0177,12.187,12.3485,12.2331,12.1408,12.3716,12.3716,12.3639,12.5178,12.664,12.7871,12.8794,13.1564,13.4103,13.518,13.6796,13.7334,0.0,0.0,0.0,0.0,0.0,0.0,0.0,0.0,0.0,0.0,0.0,0.0,0.0,0.0,0.0,0.0,0.0,0.0,14.1874,14.2566,14.3028,14.3028,14.3874,14.4797,14.5567,14.6413,14.6798,14.6875,14.6798,14.6798,14.6875,14.6798,14.6798,14.6875,14.6875,14.6875,14.6875,14.6875,14.6413,14.5567,0.0,0.0,0.0,0.0,0.0,0.0,0.0,0.0,0.0,0.0,0.0,0.0,0.0,0.0,0.0,0.0,0.0,0.0,0.0,0.0,0.0,0.0,0.0,9.2402,9.5942,9.7942,10.0635,10.402,10.879,11.1329,11.1714,10.7175,10.4174,10.2404,9.8481,9.6095,9.4941,9.4634,9.448,9.448,9.448,9.5018,0.0,0.0,0.0,0.0,0.0,0.0,0.0,0.0,10.8713,10.9867,11.1175,11.2483,11.3714,11.4561,11.5407,11.6407,11.7869,12.0331,12.2716,12.3793,12.4178,12.487,12.7486,12.8717,12.9487,13.0718,13.1025,13.1025,13.0794,13.3103,13.5334,13.618,13.6873,13.7257,0.0,0.0,0.0,0.0,0.0,0.0,0.0,0.0,0.0,0.0,0.0,0.0,0.0,0.0,0.0,0.0,0.0,0.0,0.0,14.2874,14.3412,14.3874,14.4797,14.5413,14.572,14.649,14.6875,14.6875,14.6875,14.6875,14.6875,14.6875,14.6875,14.6875,14.6875,14.6875,14.6875,14.6875,14.6028,14.4797,0.0,0.0,0.0,0.0,0.0,0.0,0.0,0.0,0.0,0.0,0.0,0.0,0.0,0.0,0.0,0.0,0.0,0.0,8.6555,8.5555,8.6324,8.9479,9.0633,9.2941,9.6634,10.0019,10.3328,10.6405,11.1175,11.3176,11.2175,10.7636,10.4789,10.3174,9.925,9.7173,9.6557,9.6019,9.5788,9.5788,9.5788,9.6019,0.0,0.0,0.0,0.0,0.0,0.0,0.0,0.0,10.8636,11.0021,11.1406,11.2791,11.4176,11.5022,11.6407,11.7792,11.8407,12.0485,12.287,12.4486,12.5563,12.7101,13.0179,13.1795,13.3026,13.4411,13.418,13.3487,13.2718,13.418,13.5795,13.6719,13.718,0.0,0.0,0.0,0.0,0.0,0.0,0.0,0.0,0.0,0.0,0.0,0.0,0.0,0.0,0.0,0.0,0.0,0.0,0.0,0.0,14.3412,14.3874,14.4797,14.572,14.5874,14.572,14.649,14.6875,14.6875,14.6875,14.6875,14.6875,14.6875,14.6875,14.6875,14.6875,14.6875,14.6875,14.6567,14.5567,14.4412,0.0,0.0,0.0,0.0,0.0,0.0,0.0,0.0,0.0,0.0,0.0,0.0,0.0,0.0,0.0,0.0,0.0,0.0,8.4939,8.4863,8.5247,8.6094,8.9402,9.2326,9.4864,9.9942,10.3789,10.6405,11.0637,11.2329,11.1406,10.8021,10.5867,10.4866,10.1558,10.0096,9.9942,9.825,9.748,9.748,9.748,9.7019,9.6634,0.0,0.0,0.0,0.0,0.0,0.0,0.0,10.956,10.9713,11.3868,11.4714,11.4176,11.5099,11.7715,12.0331,12.0331,12.0869,12.2408,12.5794,12.6101,12.6563,13.0794,13.1718,13.241,13.5026,13.5488,13.518,13.4487,13.5026,13.5795,13.6719,0.0,0.0,0.0,0.0,0.0,0.0,0.0,0.0,0.0,0.0,0.0,0.0,0.0,0.0,0.0,0.0,0.0,0.0,0.0,0.0,0.0,14.4028,14.4797,14.572,14.649,14.649,14.572,14.649,14.6875,14.6875,14.6875,14.6875,14.6875,14.6875,14.6875,14.6875,14.6875,14.6875,14.6798,14.6028,14.5105,14.4336,0.0,0.0,0.0,0.0,0.0,0.0,0.0,0.0,0.0,0.0,0.0,0.0,0.0,0.0,0.0,0.0,0.0,0.0,8.4863,8.3785,8.4016,8.6017,8.8248,9.0325,9.2249,9.7942,10.3482,10.9098,11.0868,11.1098,10.9637,10.679,10.4713,10.3174,0.0,9.9788,9.9096,9.7942,9.7865,9.8404,9.8404,9.825,9.825,0.0,0.0,0.0,0.0,0.0,0.0,0.0,0.0,0.0,11.2714,11.4099,11.5099,11.5869,11.6792,11.7792,11.8407,12.1331,12.4486,12.5486,12.8717,13.2025,13.318,13.3487,13.3872,13.518,13.5026,13.4795,13.5103,13.6334,0.0,0.0,0.0,0.0,0.0,0.0,0.0,0.0,0.0,0.0,0.0,0.0,0.0,0.0,0.0,0.0,0.0,0.0,0.0,0.0,0.0,0.0,0.0,0.0,14.4489,14.4797,14.5567,14.5874,14.572,14.649,14.6567,14.6105,14.6721,14.6875,14.6875,14.6875,14.6875,14.6875,14.6875,14.6875,14.6798,14.6028,14.5105,14.4412,0.0,0.0,0.0,0.0,0.0,0.0,0.0,0.0,8.3247,8.3785,8.4478,8.5093,0.0,0.0,0.0,8.6094,8.4863,0.0,8.4401,8.3708,8.4016,8.5555,8.7632,9.0094,9.3172,9.7711,10.2404,10.7175,10.8713,10.8944,10.7867,10.7021,10.5713,10.4097,10.3405,10.2327,10.0712,9.9558,9.9327,9.9788,9.9788,9.9635,9.9481,0.0,0.0,0.0,0.0,0.0,0.0,0.0,0.0,0.0,11.2099,11.3407,11.4561,11.6099,11.7715,11.9408,12.0869,12.3793,12.6794,12.8486,13.0871,13.318,13.4872,13.5334,13.518,13.5103,13.518,13.518,13.5103,13.6719,0.0,0.0,0.0,0.0,0.0,0.0,0.0,0.0,0.0,0.0,0.0,0.0,0.0,0.0,0.0,0.0,0.0,0.0,0.0,0.0,0.0,0.0,0.0,0.0,14.4412,14.4412,14.4874,14.5028,14.472,14.6182,14.6567,14.6182,14.6721,14.6875,14.6875,14.6875,14.6875,14.6875,14.6875,14.6875,14.6798,14.6028,14.5413,14.4874,0.0,0.0,0.0,0.0,0.0,0.0,0.0,8.2708,8.2247,8.2401,8.3785,8.4863,0.0,0.0,0.0,8.6094,8.5401,8.4555,8.3785,8.4401,8.4863,8.5016,8.7555,9.1171,9.6095,9.8481,10.0481,10.2327,10.4866,10.6328,10.6405,10.8021,10.8021,10.6636,10.7328,10.6328,10.3789,10.202,10.1327,10.1404,10.1404,10.1019,10.0481,10.2174,0.0,0.0,0.0,0.0,0.0,0.0,0.0,0.0,11.1791,11.2637,11.3176,11.5715,11.9331,12.3101,12.5717,12.7178,12.9102,13.318,13.2564,13.2102,13.5795,13.6719,13.6411,13.4795,13.5719,13.6411,13.4872,0.0,0.0,0.0,0.0,0.0,0.0,0.0,0.0,0.0,0.0,0.0,0.0,0.0,0.0,0.0,0.0,0.0,0.0,0.0,0.0,0.0,0.0,0.0,0.0,14.4028,14.4412,0.0,14.4412,14.3874,14.3258,14.5567,14.6721,14.6798,14.6875,14.6875,14.6875,14.6875,14.6875,14.6875,14.6875,14.6875,14.6875,14.6028,14.572,14.572,0.0,0.0,0.0,0.0,0.0,0.0,8.2554,8.1862,8.1862,8.317,8.3632,8.4401,8.5709,8.6017,0.0,8.6094,8.5401,8.4786,8.4632,8.417,8.4478,8.5786,8.894,9.2095,9.5172,9.5788,9.725,9.9635,10.2866,10.5097,10.6405,10.7482,10.779,10.7405,10.7636,10.6328,10.3789,10.202,10.1712,10.2327,10.2327,10.2174,10.2174,10.3866,10.3097,0.0,0.0,0.0,0.0,0.0,0.0,0.0,11.1175,11.2175,11.3099,11.5022,11.7561,12.0485,12.3024,12.6794,13.0487,13.2718,13.4411,13.5488,13.5719,13.6334,13.6719,13.6334,13.6488,13.6873,0.0,0.0,0.0,0.0,0.0,0.0,0.0,0.0,0.0,0.0,0.0,0.0,0.0,0.0,0.0,0.0,0.0,0.0,0.0,0.0,0.0,0.0,0.0,0.0,14.5105,14.4643,14.472,0.0,14.4028,14.3566,14.4105,14.472,14.5336,14.6028,14.6567,14.6875,14.6875,14.6875,14.6875,14.6875,14.6875,14.7259,14.7721,14.6182,14.6105,14.649,0.0,0.0,0.0,0.0,0.0,0.0,0.0,0.0,8.2016,8.2862,8.3324,8.4093,8.5401,8.5863,0.0,0.0,8.5709,8.5324,8.4939,8.5247,8.617,8.7863,9.0402,9.2633,9.4326,9.4788,9.6019,9.8173,10.0404,10.2866,10.579,10.7867,10.8713,10.8329,10.8713,10.7482,10.502,10.3328,10.3328,10.4405,10.402,10.3789,10.3866,10.4789,10.3789,10.2174,10.4328,0.0,0.0,0.0,0.0,0.0,0.0,0.0,11.2483,11.4714,11.6792,11.9485,12.4101,12.7486,13.0487,13.3026,13.518,13.6565,13.5719,13.6488,13.7411,13.7411,13.7411,0.0,0.0,0.0,0.0,0.0,0.0,0.0,0.0,0.0,0.0,0.0,0.0,0.0,0.0,0.0,0.0,0.0,0.0,0.0,0.0,0.0,0.0,0.0,0.0,14.4028,14.4489,14.4028,14.3797,14.3874,14.3028,14.2797,14.3181,14.4489,14.5336,14.572,14.6567,14.6875,14.6875,14.6875,14.6875,14.6875,14.7413,14.7798,14.8106,14.7182,14.7182,14.7413,0.0,0.0,0.0,0.0,0.0,0.0,0.0,0.0,0.0,8.2477,8.317,8.3939,8.5016,8.5709,8.617,0.0,0.0,0.0,8.5401,8.6786,8.8325,8.9863,9.171,9.3018,9.371,9.4557,9.5711,9.7326,9.8327,10.1019,10.5174,10.8406,10.979,10.9406,11.0098,10.9021,10.6482,10.4789,10.4866,10.6097,10.5174,10.502,10.5097,10.5097,10.4174,10.302,10.4713,10.5174,10.5405,10.7098,0.0,0.0,0.0,0.0,11.2022,11.4561,11.6484,11.91,12.5178,12.8179,13.041,13.3718,13.5719,13.6565,13.5719,13.6796,13.8104,13.8257,13.8411,0.0,0.0,0.0,0.0,0.0,0.0,0.0,0.0,0.0,0.0,0.0,0.0,0.0,0.0,0.0,0.0,0.0,0.0,0.0,0.0,0.0,0.0,0.0,14.3258,14.3412,14.3489,14.3258,14.2797,14.2335,14.2181,14.2181,14.2412,14.472,14.572,14.5797,14.6721,14.7182,14.7336,14.7336,14.7336,14.7413,14.8106,14.849,14.8567,14.8259,14.8259,14.8259,0.0,0.0,0.0,0.0,0.0,0.0,0.0,0.0,0.0,0.0,8.3555,8.417,8.5786,8.6017,8.6401,8.7171,8.6555,8.6401,8.7017,0.0,0.0,8.9863,9.2249,9.3557,9.371,9.4557,9.548,9.648,9.8019,10.1019,10.5174,10.779,10.979,11.1175,11.1329,10.9867,10.7405,10.5713,10.5097,10.5174,10.4405,10.4482,10.5097,10.5097,10.4482,10.3866,10.5636,10.5713,10.5405,10.7098,10.8175,0.0,0.0,0.0,11.2022,11.4561,11.6484,11.8484,12.1562,12.6794,13.2025,13.4718,13.6103,13.6565,13.5719,13.6796,13.8257,0.0,0.0,0.0,0.0,0.0,0.0,0.0,0.0,0.0,0.0,0.0,0.0,0.0,0.0,0.0,0.0,0.0,0.0,0.0,0.0,0.0,0.0,0.0,14.3335,14.4182,14.4182,14.4566,14.5336,14.3874,14.3412,14.4105,14.3335,14.3335,14.4105,14.5182,14.572,14.5797,14.7259,14.849,14.9183,14.9183,14.9183,14.9183,14.9337,14.9798,15.0183,14.8721,14.8721,14.9106,0.0,0.0,0.0,0.0,0.0,0.0,0.0,0.0,0.0,0.0,0.0,8.4247,8.594,8.6094,8.6478,8.7325,8.7017,8.7171,8.8094,8.894,8.9787,9.0556,9.2172,9.3249,9.371,9.4095,9.4711,9.5557,9.725,10.0327,10.4482,10.7482,11.0098,11.2099,11.0714,10.9713,10.8867,10.6174,10.5713,10.6482,10.5636,10.6097,10.7098,10.6174,10.5867,10.6097,10.6867,10.6867,10.6713,10.8021,10.8867,10.979,11.0483,0.0,0.0,0.0,11.4407,11.7023,12.287,12.8409,13.2795,13.4411,13.5795,13.6488,13.5103,13.6873,13.8873,13.9181,0.0,0.0,0.0,0.0,0.0,0.0,0.0,0.0,0.0,0.0,0.0,0.0,0.0,0.0,0.0,0.0,0.0,0.0,0.0,0.0,0.0,14.272,14.3489,14.4412,14.3874,14.4105,14.5028,14.3335,14.2566,14.3028,14.3566,14.3797,14.372,14.6105,14.7105,14.7182,14.8413,14.9106,14.949,14.949,14.949,14.949,15.0029,15.0414,15.0568,14.9413,14.9183,14.9337,0.0,0.0,0.0,0.0,0.0,0.0,0.0,0.0,0.0,0.0,0.0,8.4478,8.594,0.0,0.0,0.0,8.7709,8.8017,8.8632,8.9479,9.0325,9.1171,9.2249,9.3018,9.3403,9.3787,9.4326,9.5018,9.6711,9.9942,10.4636,10.7328,11.0406,11.3637,11.1021,11.0098,11.0329,10.7328,10.6713,10.7713,10.7482,10.8098,10.9098,10.8329,10.8482,10.9175,10.879,10.8713,10.8713,10.9098,10.9713,11.0329,11.0714,11.1098,0.0,0.0,0.0,11.6022,12.3408,12.8179,13.1487,13.318,13.5103,13.618,13.518,13.718,13.9412,0.0,0.0,0.0,0.0,0.0,0.0,0.0,0.0,0.0,0.0,0.0,0.0,0.0,0.0,0.0,0.0,0.0,0.0,0.0,0.0,0.0,14.2181,14.3028,14.3797,14.472,14.3874,14.372,14.4412,14.272,14.2027,14.2181,14.3489,14.4105,14.4182,14.6875,14.8413,14.8875,14.949,14.9875,15.0106,15.0106,15.0106,15.0183,15.0798,15.1029,15.0875,14.9875,14.949,14.9337,0.0,0.0,0.0,0.0,0.0,0.0,0.0,0.0,0.0,0.0,0.0,8.517,8.6017,8.6863,8.7709,8.8556,8.8632,8.8632,8.8709,8.9479,9.0325,9.1171,9.2787,0.0,9.2556,9.4095,9.4941,9.5018,9.6711,10.0481,10.6328,10.7328,11.0791,11.6176,11.3637,11.2099,11.1329,10.9483,10.8329,10.779,10.9406,11.0098,11.0329,11.1791,11.2868,11.3483,11.1868,11.1329,11.1175,0.0,11.0175,11.0483,11.2099,11.2099,11.1791,0.0,0.0,0.0,12.0716,12.3793,12.6794,13.0794,13.3718,13.5795,13.6488,13.8027,13.9488,0.0,0.0,0.0,0.0,0.0,0.0,0.0,0.0,0.0,0.0,0.0,0.0,0.0,0.0,0.0,0.0,0.0,0.0,0.0,0.0,0.0,14.3028,14.3874,14.472,14.5567,14.4797,14.4412,14.4412,14.272,14.2258,14.3028,14.3105,14.4412,14.6721,14.7721,14.9106,15.0568,15.0568,15.1106,15.1875,15.1875,15.1875,15.1875,15.1875,15.1875,15.1722,15.0106,14.949,14.9337,0.0,0.0,0.0,0.0,0.0,0.0,0.0,0.0,0.0,0.0,0.0,0.0,0.0,8.7171,8.794,8.9325,9.0017,9.0094,8.9479,9.0248,9.1095,9.2018,9.3095,9.3557,9.3249,9.4403,9.4711,9.4172,9.6403,10.0019,10.4789,10.7328,11.1098,11.5561,11.3637,11.3176,11.3791,11.0868,10.956,10.9406,11.0637,11.1714,11.2714,11.333,11.4407,11.5484,11.4868,11.4022,0.0,0.0,0.0,11.256,11.2099,11.2099,11.2483,11.3714,11.5022,11.7023,12.1331,12.4716,12.764,13.0333,13.318,13.5411,13.518,13.7334,13.9412,13.9719,0.0,0.0,0.0,0.0,0.0,0.0,0.0,0.0,0.0,0.0,0.0,0.0,0.0,0.0,0.0,0.0,0.0,0.0,0.0,0.0,14.3105,14.3874,14.4797,14.572,14.4874,14.3874,14.2797,14.272,14.2797,14.3105,14.4182,14.5182,14.6182,14.7567,14.8798,15.0029,15.0491,15.1183,15.2029,15.2029,15.2029,15.2029,15.2029,15.2029,15.1799,15.0106,14.949,14.9337,0.0,0.0,0.0,0.0,0.0,0.0,0.0,0.0,0.0,0.0,0.0,0.0,0.0,0.0,8.9248,9.0633,9.1325,9.1402,9.0787,9.1018,9.1941,9.371,9.371,9.3864,9.4095,9.5018,9.5018,9.4172,9.6942,10.0327,10.402,10.7328,11.1021,11.4791,11.4022,11.4407,11.5484,11.2714,11.1329,11.1175,11.3176,11.4176,11.4561,11.6022,11.6715,11.7023,0.0,0.0,0.0,0.0,0.0,11.633,11.4638,11.3637,11.3176,11.3483,11.5022,11.7176,12.0331,12.3716,12.6794,12.941,13.2025,13.418,13.5642,13.7488,13.9104,14.0027,0.0,0.0,0.0,0.0,0.0,0.0,0.0,0.0,0.0,0.0,0.0,0.0,0.0,0.0,0.0,0.0,0.0,0.0,0.0,0.0,14.3489,14.4105,14.4797,14.572,14.4874,14.3874,14.2797,14.3028,14.3412,14.4028,14.5105,14.5797,14.6182,14.7567,14.8721,14.949,15.0414,15.1183,15.2029,15.2029,15.2029,15.2029,15.2029,15.2029,15.1799,15.0106,14.949,14.9337,0.0,0.0,0.0,0.0,0.0,0.0,0.0,0.0,0.0,0.0,0.0,0.0,0.0,0.0,0.0,9.2479,9.2556,9.2556,9.2556,9.1787,9.2864,9.6172,9.4711,9.4172,9.5018,9.5865,9.5865,9.5018,9.8404,10.1404,10.3866,10.7328,11.0714,11.4022,11.4868,11.5715,11.6407,11.4714,11.3637,11.3176,11.733,11.7561,11.5869,12.01,12.01,11.8177,11.9869,12.0023,0.0,0.0,0.0,0.0,11.9562,11.6715,11.3791,11.3022,11.4561,11.6715,0.0,0.0,0.0,12.8102,12.9794,13.2025,13.7796,13.8488,13.8719,14.1258,0.0,0.0,0.0,0.0,0.0,0.0,0.0,0.0,0.0,0.0,0.0,0.0,0.0,0.0,0.0,0.0,0.0,0.0,0.0,14.2566,14.4336,14.4412,14.4797,14.5567,14.4797,14.4412,14.4412,14.3489,14.4028,14.572,14.572,14.6105,14.6875,14.7798,14.8721,14.949,15.0337,15.1183,15.2029,15.2029,15.2029,15.2029,15.2029,15.2029,15.1799,15.0106,14.949,14.9337,0.0,0.0,0.0,0.0,0.0,8.7709,8.794,8.8479,8.8709,0.0,0.0,0.0,0.0,0.0,0.0,9.3326,9.3941,9.4326,9.4326,9.4634,9.5557,9.7096,9.6711,9.6326,9.5942,9.6788,9.648,9.5018,9.8404,10.0789,10.2097,10.6097,10.9483,11.2329,11.3714,11.4791,11.5561,11.5099,11.5099,11.5561,11.6715,11.8331,0.0,0.0,0.0,0.0,0.0,12.4486,0.0,0.0,12.3332,12.11,0.0,11.5715,11.4099,11.4484,11.5869,11.7792,11.9177,0.0,0.0,0.0,0.0,0.0,13.318,13.4564,13.6103,13.8565,0.0,0.0,0.0,0.0,0.0,0.0,0.0,0.0,0.0,0.0,0.0,0.0,0.0,0.0,0.0,0.0,0.0,0.0,14.1874,14.2566,14.4336,14.549,14.5797,14.4797,14.4489,14.4105,14.3489,14.3797,14.4566,14.572,14.6336,14.6721,14.6875,14.7105,14.8106,14.949,14.9721,15.0721,15.2029,15.2029,15.2029,15.2029,15.2029,15.2029,15.1799,15.0106,14.949,14.9337,0.0,0.0,8.9633,8.8632,8.9171,8.971,8.971,9.0479,9.071,0.0,0.0,0.0,0.0,0.0,0.0,9.5403,9.6095,9.6403,9.6095,9.6172,9.7019,9.8481,9.7865,9.725,9.6788,9.7634,9.725,9.5557,9.9327,10.1173,10.1404,10.5713,10.8713,11.0483,11.2175,11.3791,11.533,11.533,11.5561,11.6176,11.8331,0.0,0.0,12.3562,12.4409,0.0,0.0,0.0,12.5563,12.8179,12.6871,0.0,0.0,11.8023,11.6099,11.5869,11.7176,11.91,12.0023,12.2024,12.4332,12.6178,0.0,0.0,13.2795,13.4103,13.5334,0.0,0.0,0.0,0.0,0.0,0.0,0.0,0.0,0.0,0.0,0.0,0.0,0.0,0.0,0.0,0.0,0.0,0.0,0.0,14.1874,14.2566,14.4336,14.6028,14.649,14.549,14.4797,14.4489,14.472,14.4489,14.5028,14.6182,14.6721,14.6875,14.6875,14.6875,14.7721,14.9029,14.9337,15.0183,15.1491,15.1875,15.2029,15.2029,15.2029,15.2029,15.1799,15.0491,14.9798,14.9337,0.0,0.0,9.0325,9.0325,9.1095,9.1787,9.1864,9.2633,9.2864,0.0,0.0,0.0,0.0,0.0,0.0,9.8019,9.8557,9.8711,9.7865,9.7173,9.7865,10.0096,9.8634,9.7788,9.7788,9.8481,9.8096,9.6711,10.0712,10.2174,10.1481,10.5636,10.8021,10.879,11.0637,11.2714,11.5022,11.5407,11.5561,11.6099,12.0793,12.2024,0.0,0.0,12.5486,0.0,12.7178,12.7794,12.7794,13.241,13.1333,0.0,0.0,0.0,11.9485,11.7407,11.8715,12.0716,12.0485,12.11,12.2562,12.5717,12.5332,0.0,13.3872,13.4718,0.0,0.0,0.0,0.0,0.0,0.0,0.0,0.0,0.0,0.0,0.0,0.0,0.0,0.0,0.0,0.0,0.0,0.0,14.1874,14.1874,14.2104,14.2797,14.4336,14.6028,14.6875,14.6798,14.5182,14.5182,14.6798,14.5182,14.5182,14.6875,14.6875,14.6875,14.6875,14.6875,14.7413,14.8413,14.9183,15.0029,15.0875,15.1722,15.2029,15.2029,15.2029,15.2029,15.1875,15.1029,15.0183,14.9413,9.1095,9.2018,9.2941,9.2941,9.4249,9.5557,9.6172,9.7019,9.725,9.6403,9.7173,0.0,0.0,0.0,10.0789,9.9712,10.0327,10.0481,9.9635,10.0096,10.0481,10.1019,10.0096,9.9558,9.9558,9.9096,9.8942,9.9327,10.1481,10.2481,10.2404,10.5328,10.7098,10.8021,10.9713,11.1483,11.3407,11.6099,11.7715,11.8484,12.01,0.0,12.5563,12.7101,12.8179,12.9179,13.0487,13.041,12.9871,0.0,13.0718,12.9333,0.0,0.0,12.4332,11.9869,12.0869,12.3101,12.1716,12.2485,12.3793,12.4409,12.487,0.0,12.8102,13.0025,13.1872,0.0,0.0,0.0,0.0,0.0,0.0,0.0,0.0,0.0,0.0,0.0,0.0,0.0,0.0,0.0,0.0,0.0,14.1874,14.1874,14.3105,14.4105,14.4412,14.6028,14.6567,14.6028,14.4874,14.4874,14.5874,14.4874,14.5182,14.6875,14.6875,14.6875,14.6875,14.6875,14.7798,14.9337,14.9413,15.0414,15.1799,15.1875,15.2029,15.2029,15.2029,15.2029,15.1875,15.1029,15.0183,14.9413,9.3095,9.3403,9.4095,9.5403,9.6711,9.7942,9.925,10.0096,10.0173,9.8942,9.9865,10.1019,10.1866,10.3097,10.3328,10.2097,10.2712,10.2712,10.1404,10.1712,10.1789,10.1327,10.0866,10.0481,10.0096,10.0096,10.0327,10.0712,10.2404,10.3482,10.3866,10.5636,10.8021,11.0791,11.0406,11.2329,11.5869,11.6792,11.8407,12.0485,12.2562,0.0,12.7486,12.9179,13.0333,13.1179,13.1564,13.2025,13.241,13.241,13.1564,0.0,0.0,12.7332,12.6024,12.2562,12.3101,12.4332,12.2177,12.2485,12.3716,12.4486,12.4409,0.0,0.0,0.0,13.0179,13.3487,13.5334,13.6565,0.0,0.0,0.0,0.0,0.0,0.0,0.0,0.0,0.0,0.0,0.0,0.0,0.0,0.0,14.2258,14.1874,14.3105,14.3874,14.4412,14.5567,14.6336,14.6336,14.5105,14.5028,14.6336,14.5028,14.5182,14.6875,14.6875,14.6875,14.6875,14.6875,14.7567,14.8875,14.9337,15.0183,15.1414,15.1799,15.2029,15.2029,15.2029,15.2029,15.1875,15.1491,15.0568,14.9413,9.5403,9.4941,9.5095,9.7326,9.8634,9.9865,10.1789,10.2635,10.2635,10.1173,10.2404,10.3712,10.4789,10.6405,10.6713,10.502,10.579,10.5405,10.3174,10.3097,10.2789,10.2097,10.1404,10.1096,10.1096,10.1173,10.1481,10.202,10.3405,10.4482,10.5405,10.6097,10.8867,11.3176,11.156,11.3791,11.8561,11.8023,11.9485,12.2562,0.0,12.7409,12.8409,13.0794,13.1795,13.2025,13.2102,13.318,13.4487,13.4411,0.0,13.141,13.1333,12.9871,12.7871,12.5101,12.5409,12.6024,12.3332,12.3332,12.4332,12.5178,12.4793,12.5178,0.0,0.0,0.0,0.0,0.0,13.4564,13.7103,0.0,0.0,0.0,0.0,0.0,0.0,0.0,0.0,0.0,0.0,0.0,0.0,0.0,14.2566,14.1874,14.2489,14.3335,14.4336,14.5182,14.6105,14.6875,14.5336,14.5182,14.6875,14.5182,14.5336,14.7105,14.7028,14.7028,14.7105,14.7028,14.749,14.849,14.9183,15.0106,15.1029,15.1722,15.2029,15.2029,15.2029,15.2029,15.2029,15.2029,15.1029,14.9721,9.748,9.7173,9.7403,9.8481,9.9942,10.1789,10.4328,10.4789,10.4713,10.4559,10.5405,10.6636,10.8175,10.9867,11.0175,10.8482,0.0,0.0,10.5097,10.4789,10.4789,10.4713,10.1789,10.1558,10.4482,10.2404,10.2404,10.4713,10.4866,10.5405,10.6328,10.6405,10.7867,11.0714,11.2714,11.4791,11.7023,12.0639,12.3332,0.0,12.7025,12.8332,0.0,13.1025,13.2179,13.3026,13.3718,13.4564,13.5334,0.0,13.4564,13.4334,0.0,13.1795,13.3333,12.7101,12.8025,13.0333,12.7025,12.7332,12.8025,12.587,12.7025,12.8102,12.6486,0.0,13.041,13.0871,0.0,13.2795,13.5334,0.0,0.0,0.0,0.0,0.0,13.6565,13.7565,13.9104,0.0,0.0,0.0,0.0,0.0,0.0,14.1874,14.2027,14.272,14.4336,14.5182,14.6105,14.6875,14.5336,14.5182,14.6875,14.5182,14.5567,14.8029,14.7259,14.7259,14.8029,14.7259,14.7798,14.9413,14.949,15.0414,15.1875,15.2029,15.2029,15.2029,15.2029,15.2029,15.2029,15.2029,15.1414,15.0568,9.8788,9.8634,9.925,10.0096,10.0789,10.2174,10.4713,10.602,10.6405,10.5867,10.7021,10.8098,10.879,11.0021,0.0,0.0,0.0,0.0,0.0,0.0,10.7559,10.6713,10.4789,10.4174,10.5097,10.4097,10.402,10.5097,10.5097,10.5482,10.6405,10.6867,10.9329,11.3176,11.4791,11.7792,12.1793,12.3562,12.5332,0.0,0.0,0.0,0.0,13.2025,13.3026,13.3795,13.418,13.4795,13.5411,0.0,13.4564,0.0,0.0,13.3872,13.2795,13.0487,13.041,13.041,12.7486,12.8332,12.9563,12.8025,12.8409,12.9102,12.8486,0.0,12.8717,0.0,0.0,0.0,0.0,0.0,0.0,0.0,13.5872,13.6488,13.6334,13.6873,13.8027,13.9642,0.0,0.0,0.0,0.0,0.0,0.0,0.0,14.2566,14.4336,14.5182,14.5874,14.6182,14.5028,14.5182,14.6875,14.572,14.5874,14.7413,14.7567,14.7798,14.8182,14.7798,14.8567,15.0183,15.0183,15.0875,15.2029,15.2029,15.2029,15.2029,15.2029,15.2029,15.2029,15.2029,15.1414,15.0721,10.0404,10.0173,10.0481,10.0866,10.1173,10.2174,10.502,10.6482,10.7482,10.779,0.0,0.0,11.0868,11.2175,0.0,0.0,0.0,11.4176,0.0,0.0,11.056,10.979,10.779,0.0,0.0,10.6328,10.579,10.579,10.5559,10.5867,10.679,10.7405,11.0175,11.4714,11.6715,12.01,12.4409,0.0,12.7332,12.8717,13.0025,13.141,13.2795,13.341,13.4103,13.4718,13.4872,13.5488,13.618,13.5872,13.5026,0.0,13.6719,13.5411,13.318,13.3564,13.318,13.2102,12.9717,13.0564,13.1795,13.0333,13.0102,13.0179,0.0,0.0,0.0,0.0,13.0718,0.0,0.0,0.0,13.141,13.4026,0.0,13.4872,13.5026,13.5257,13.618,13.8411,0.0,0.0,0.0,0.0,0.0,0.0,0.0,0.0,14.4643,14.5413,14.5797,14.6028,14.5028,14.5182,14.6875,14.6105,14.6336,14.7567,14.8336,14.8567,14.8567,14.8567,14.9183,15.0414,15.0568,15.1183,15.2029,15.2029,15.2029,15.2029,15.2029,15.2029,15.2029,15.2029,15.1568,15.1106,10.2789,10.1789,10.1019,10.0327,10.0789,10.2404,10.579,10.6405,10.7636,0.0,0.0,0.0,0.0,0.0,0.0,0.0,0.0,11.9869,11.6484,0.0,11.333,0.0,0.0,0.0,0.0,10.9329,10.7636,10.7636,10.679,10.679,10.7713,10.7713,10.9483,11.3022,11.8023,12.0793,12.2024,12.7025,12.9563,13.041,13.0487,13.2487,13.5411,0.0,13.5411,13.5565,13.6411,0.0,0.0,13.7026,13.6719,0.0,0.0,0.0,0.0,13.5719,13.6565,13.7488,13.5719,0.0,0.0,13.2487,0.0,0.0,0.0,0.0,13.2795,0.0,13.2872,13.341,13.5103,13.2718,13.0794,13.1718,13.2487,0.0,0.0,13.141,13.3103,13.6488,13.8334,0.0,0.0,0.0,0.0,0.0,0.0,0.0,14.549,14.572,14.6105,14.6798,14.5336,14.5182,14.6875,14.6105,14.7028,14.9413,14.9413,14.949,14.949,14.949,14.949,14.9567,15.0414,15.1183,15.2029,15.2029,15.2029,15.2029,15.2029,15.2029,15.2029,15.2029,15.2029,15.2029,10.3789,10.3174,10.2635,10.1096,10.1635,10.3097,10.602,10.779,0.0,0.0,0.0,0.0,0.0,0.0,12.0408,0.0,0.0,12.1716,12.0023,11.8023,0.0,0.0,0.0,11.2714,0.0,0.0,11.0175,11.0175,10.8175,10.8021,10.9406,10.9406,11.056,11.3022,11.9177,12.2793,12.4409,12.9563,0.0,0.0,0.0,13.4487,13.5565,0.0,0.0,13.7334,13.8181,13.8565,0.0,13.8565,13.8104,13.7796,13.8565,13.7873,13.7026,13.7796,13.7565,0.0,0.0,0.0,13.8488,13.5103,0.0,0.0,0.0,0.0,0.0,13.2872,13.3487,13.3872,13.3795,13.341,13.2718,13.1795,13.1872,13.1872,0.0,13.2025,13.241,13.1795,13.4718,13.7334,13.8796,0.0,0.0,0.0,0.0,0.0,0.0,14.572,14.5797,14.6105,14.5028,14.4874,14.6105,14.6875,14.749,14.7798,14.949,15.0337,15.0337,15.0337,15.0568,15.1183,15.1414,15.1722,15.2029,15.2029,15.2029,15.2029,15.2029,15.2029,15.2029,15.2029,15.2029,15.2029,10.5097,10.4482,10.3866,10.2481,10.2866,10.4328,10.6867,0.0,0.0,0.0,11.6484,0.0,0.0,0.0,12.3178,0.0,12.4409,12.4178,12.3024,12.1408,0.0,12.1562,11.8484,0.0,0.0,0.0,0.0,11.2868,11.0637,11.0021,11.1098,11.0791,11.1714,11.3868,11.9792,12.3408,12.5332,13.0718,13.318,0.0,0.0,13.6411,0.0,0.0,13.8411,0.0,0.0,13.9488,13.9796,13.9796,13.9412,13.9181,14.0566,13.9719,13.8488,14.0181,13.9873,13.9181,13.9719,14.0719,0.0,13.8027,13.7719,0.0,13.418,0.0,13.4103,13.4718,13.4795,13.4872,13.5565,13.4718,13.3564,13.2795,13.1872,13.1102,0.0,13.1102,13.1179,12.9794,13.2872,13.6026,13.8181,13.7565,0.0,0.0,0.0,0.0,0.0,0.0,14.6105,14.6105,14.5028,14.5028,14.6105,14.749,14.8106,14.7875,15.0106,15.1029,15.0721,15.0721,15.0875,15.1106,15.1414,15.1491,15.1568,15.1875,15.2029,15.2029,15.2029,15.2029,15.2029,15.2029,15.2029,15.2029,10.6636,10.5867,10.5097,10.4174,10.4789,10.6097,0.0,0.0,11.3483,0.0,12.0716,12.2716,12.5332,12.7025,12.8025,12.8025,0.0,0.0,12.5717,12.4024,0.0,0.0,12.2716,12.2177,12.3101,0.0,0.0,0.0,11.3637,11.2714,11.2791,11.2022,11.2868,11.5484,11.9792,12.2562,12.4639,13.0487,13.3564,13.4564,13.718,13.8104,13.8181,13.9873,0.0,13.7103,13.8796,14.0027,14.0719,14.0719,14.0719,14.0873,14.172,14.1412,14.1027,14.2566,14.3028,14.3028,14.3105,14.3105,14.272,14.1027,0.0,0.0,0.0,0.0,13.8181,13.8257,13.7026,13.6796,13.9796,13.6488,13.341,13.4026,13.2025,12.9794,12.8102,12.8717,12.9563,13.0333,13.2795,13.5026,13.6488,13.4564,13.6334,14.372,14.2027,14.2489,14.6721,0.0,14.6721,14.7028,14.5336,14.5182,14.6798,14.7798,14.8567,14.9413,15.1183,15.1491,15.0568,15.0721,15.0337,14.949,15.0414,15.0721,15.0798,15.1568,15.2029,15.2029,15.2029,15.2029,15.2029,15.2029,15.2029,15.2029,10.7482,10.8175,10.8406,10.7021,10.7405,10.879,0.0,0.0,0.0,0.0,12.2793,12.4716,12.7871,12.864,12.8871,12.8871,12.8871,0.0,0.0,0.0,0.0,12.7794,12.5024,12.4178,12.5717,12.1408,0.0,11.9023,11.4176,11.2791,11.4561,11.3099,11.3791,11.6407,12.0716,12.387,12.6332,13.1025,13.418,13.6334,13.8181,13.7873,0.0,0.0,13.8873,13.8104,14.0412,14.1412,14.172,14.2258,14.2489,14.2489,14.272,14.2566,14.2412,14.2258,14.2181,14.2258,14.2874,14.3105,14.272,14.1027,14.1104,14.1104,0.0,0.0,0.0,0.0,14.0566,13.9719,13.8104,13.718,13.5565,13.2102,13.041,12.8871,12.7178,12.8794,13.0025,12.9563,13.2872,13.5103,13.5026,13.6103,13.8104,14.1335,14.2104,14.4028,14.7721,0.0,0.0,14.7798,14.6182,14.5567,14.6028,14.8106,14.8567,14.7567,15.0568,15.1183,14.9798,15.0414,15.0337,14.949,15.0414,15.0721,15.0798,15.1568,15.2029,15.2029,15.2029,15.2029,15.2029,15.2029,15.2029,15.2029,10.9867,11.1329,11.1791,10.9713,11.1637,0.0,11.433,0.0,0.0,12.3408,0.0,0.0,0.0,12.9871,13.0333,13.0333,13.0333,0.0,0.0,0.0,0.0,12.9179,12.7717,12.7409,12.8332,12.5178,0.0,12.1408,0.0,11.5715,11.533,11.4714,11.5099,11.6715,12.1023,12.4101,12.6486,13.1795,13.5103,13.6873,13.8642,13.8411,0.0,13.9181,13.9565,13.9412,14.1181,14.2104,14.2566,14.3412,14.372,14.372,14.372,14.372,14.372,14.3566,14.3335,14.3335,14.4412,14.4489,14.4105,14.3489,14.372,14.3566,14.1874,14.1874,14.2489,0.0,0.0,14.1874,0.0,13.9488,13.5872,13.0794,12.8871,12.7794,12.6794,12.8179,0.0,0.0,13.1102,13.2564,13.2102,13.5719,13.8565,13.9873,14.0873,14.2797,14.5797,14.372,14.4028,14.749,14.6413,14.5874,14.6182,14.8029,14.8413,14.749,15.0183,15.0798,14.949,15.0029,14.9721,14.9029,14.9413,14.9798,15.0183,15.1106,15.1722,15.2029,15.2029,15.2029,15.2029,15.2029,15.2029,15.2029,11.2868,11.4407,11.4791,11.2329,11.6099,0.0,0.0,11.9485,0.0,12.5486,0.0,12.864,0.0,13.1025,13.1872,0.0,0.0,13.141,0.0,13.0564,13.0718,12.9871,13.0564,13.0871,13.0794,12.9794,0.0,0.0,0.0,11.9331,11.5484,11.6099,11.6561,11.7176,12.0869,12.387,12.6486,13.3103,13.618,13.6873,13.8642,13.9181,13.9181,14.0027,14.0412,14.0719,14.1566,14.2258,14.3105,14.4105,14.4412,14.4412,14.4489,14.4643,14.472,14.5336,14.5028,14.472,14.6182,14.6105,14.572,14.6413,14.6721,14.6413,14.5028,14.472,14.5028,14.5797,14.4336,14.372,0.0,14.1797,13.5488,13.0718,12.8563,12.7563,0.0,0.0,0.0,0.0,0.0,0.0,12.941,13.4334,13.7719,13.8411,13.8488,13.9796,14.2874,14.272,14.3874,14.7028,14.6413,0.0,14.6875,0.0,14.8259,14.8182,14.9798,15.0106,14.9337,14.9337,14.8875,14.8029,14.8182,14.8721,14.9567,15.0414,15.1183,15.2029,15.2029,15.2029,15.2029,15.1875,15.1875,15.2029,11.4297,11.5869,11.6638,0.0,0.0,12.2408,0.0,12.3793,12.5486,12.8179,12.941,0.0,13.2179,13.2564,13.3103,13.3795,13.3795,0.0,0.0,0.0,0.0,13.341,13.3564,13.3333,13.2564,13.041,12.7486,0.0,0.0,11.8407,11.633,11.5792,11.7023,11.9715,12.0408,12.4101,13.0025,13.5411,13.7257,13.6873,13.8642,13.8873,13.8257,13.8488,13.9412,14.0719,14.1566,14.2027,14.2335,14.3874,14.4412,14.4489,14.5182,14.549,14.5413,14.4797,14.4489,14.4489,14.4797,14.472,14.472,14.4797,14.5413,14.6028,14.6413,14.649,14.6721,14.7567,14.7413,14.649,14.4412,0.0,0.0,13.4026,13.2564,0.0,0.0,0.0,0.0,0.0,0.0,13.5642,13.0718,13.2487,13.4026,13.4103,13.4103,13.6719,14.2797,14.0489,14.172,0.0,14.7798,0.0,0.0,0.0,14.8875,14.8182,14.9183,14.9337,14.8413,14.8413,14.8029,14.7182,14.7875,14.8721,14.9567,15.0414,15.1183,15.2029,15.2029,15.2029,15.1875,15.1183,15.1414,15.2106,0.0,0.0,0.0,0.0,0.0,0.0,0.0,12.7486,0.0,12.9794,12.9794,13.0333,13.1564,13.2102,13.2487,13.2872,13.3026,13.3026,0.0,13.3026,13.318,13.3564,13.3564,0.0,13.3718,0.0,12.9102,12.4793,0.0,12.01,11.5869,11.6792,11.7869,11.9177,12.3101,12.6717,13.0179,13.618,0.0,13.6411,13.8873,13.9488,13.8796,13.9181,14.0181,14.1335,14.172,14.1874,14.2181,14.3797,14.472,14.5105,14.5567,14.6028,14.6182,14.5797,14.5413,14.5182,14.5567,14.5413,14.5182,14.5567,14.6028,14.6413,14.6798,14.7182,14.7721,14.8106,14.8182,14.7182,14.372,14.1412,0.0,0.0,0.0,0.0,0.0,0.0,13.5103,0.0,0.0,0.0,13.2333,13.2872,13.3795,13.4334,13.3872,13.6565,14.3412,14.0566,14.1412,14.7259,0.0,0.0,0.0,0.0,0.0,14.8875,14.8798,14.8567,14.8182,14.8182,14.7721,14.6875,14.7336,14.8029,14.8875,15.0183,15.1183,15.2029,15.2029,15.1722,15.1337,15.1414,15.1414,15.1414,0.0,12.0146,0.0,0.0,12.4562,0.0,0.0,13.0179,13.1487,13.0794,13.0179,13.0102,13.0871,13.1564,13.2102,13.2179,13.2333,13.2333,13.2333,13.2333,13.2564,13.318,13.341,13.3718,13.4026,13.3718,13.1025,0.0,0.0,12.2331,11.6407,11.81,11.8869,11.9408,12.6409,12.9794,13.0718,0.0,13.7873,13.6334,13.9181,13.9873,13.9412,14.0335,14.1104,14.1874,14.1874,14.1874,14.2104,14.3412,14.4412,14.5182,14.5413,14.5874,14.6413,14.6567,14.6182,14.5874,14.6721,14.6413,14.6105,14.6721,14.6875,14.6875,14.6875,14.7413,14.7875,14.7875,14.7875,14.7028,14.4182,14.2874,0.0,0.0,0.0,0.0,0.0,0.0,13.7796,13.8411,13.8488,13.7411,13.4564,13.3718,13.4103,13.618,13.4718,13.6334,14.2181,14.0489,14.1566,14.649,0.0,14.7798,14.7875,0.0,14.8106,0.0,14.8567,14.8182,14.8182,14.8029,14.749,14.6875,14.6875,14.749,14.8567,15.0106,15.1183,15.2029,15.1799,15.1337,15.0798,15.1337,15.1106,15.0721,0.0,0.0,0.0,0.0,0.0,0.0,0.0,13.0564,13.1718,13.1564,13.1487,13.1795,13.2718,13.2795,13.318,13.4026,13.4103,13.4103,13.4103,13.4103,13.4103,13.418,13.4872,13.4564,13.318,13.4487,13.2795,0.0,0.0,12.3485,11.9792,11.8484,11.9869,12.3716,12.8332,13.1718,0.0,13.7026,13.8104,13.7873,13.9027,13.9412,13.9412,14.0335,14.1104,14.1874,14.1874,14.1874,14.1874,14.2104,14.272,14.3489,14.4336,14.4643,14.4797,14.5567,14.5797,14.5874,14.6721,14.6798,14.6798,14.6875,14.6875,14.6875,14.6875,14.7028,14.7028,14.7028,14.7028,14.6721,14.5567,14.6567,14.6182,0.0,0.0,0.0,0.0,0.0,14.1104,14.3412,13.9104,13.6565,13.8488,13.318,13.2333,13.8488,13.4564,13.318,13.618,13.8181,14.1335,14.572,14.5874,14.6336,14.7028,14.849,0.0,14.949,14.8567,14.8182,14.8182,14.7413,14.7028,14.6875,14.6875,14.7798,14.9413,15.0337,15.1183,15.1875,15.1106,15.0798,15.0568,15.0029,15.0106,15.0721,0.0,0.0,0.0,0.0,0.0,0.0,0.0,13.1564,13.2102,13.3461,13.2487,13.1795,13.2179,13.2718,13.3103,13.3487,13.4026,13.4103,13.3564,13.418,13.4616,13.4616,13.5616,13.577,13.4872,13.5001,13.318,0.0,0.0,0.0,12.187,12.2177,12.4101,12.7332,13.1564,13.4103,13.518,13.8334,13.9335,13.8873,13.9719,14.0104,14.0181,14.1027,14.1566,14.1874,14.1874,14.1874,14.1874,14.1874,14.2412,14.3181,14.3489,14.4028,14.4489,14.4797,14.4874,14.5028,14.5336,14.5797,14.6182,14.6182,14.649,14.6875,14.6875,14.6875,14.6875,14.6875,14.7259,14.7413,14.6567,14.7028,14.7182,0.0,0.0,0.0,0.0,14.5874,14.5028,14.649,14.4566,14.3105,14.3105,13.7873,13.5026,13.618,13.2025,13.1718,13.6796,13.8027,13.9796,14.2566,14.5567,14.7105,14.6875,14.7567,14.849,14.949,14.8106,14.7721,14.8182,14.7259,14.6875,14.6875,14.749,14.8413,14.949,14.9798,15.0491,15.1183,15.0798,15.0414,15.0106,15.0721,15.0875,15.0798,13.032,0.0,12.9305,0.0,13.1129,13.146,13.3103,13.2718,13.2795,13.4616,13.3505,13.2627,13.2615,13.3103,13.341,13.341,13.3718,13.3795,13.3487,13.4077,13.4612,13.4908,13.5999,0.0,13.5653,13.5564,13.4231,13.1564,12.9871,0.0,12.5101,12.5794,12.7794,0.0,13.4103,13.6103,13.718,13.9565,14.0181,13.9719,14.0412,14.0566,14.0719,14.1566,14.1874,14.1874,14.1874,14.1874,14.1874,14.1874,14.2258,14.272,14.272,14.3181,14.372,14.3874,14.4028,14.4105,14.4336,14.4797,14.5336,14.5336,14.572,14.6182,14.6182,14.6413,14.6567,14.6875,14.7413,14.7721,14.7336,14.7259,14.7567,14.8567,0.0,0.0,0.0,14.7798,14.7105,14.7721,14.6105,14.5182,14.6028,14.0566,13.718,13.7565,13.318,13.2564,13.7488,13.8411,13.9719,0.0,0.0,0.0,0.0,14.7028,14.7875,14.9106,14.7875,14.749,14.7798,14.7413,14.7259,14.7336,14.8182,14.9106,14.9875,14.9875,15.0337,15.1106,15.0798,15.0414,15.0029,15.1183,15.1183,15.0798,13.3335,13.3897,13.4649,13.5098,13.4191,13.3564,13.418,13.3846,13.3769,13.4693,13.4846,13.4774,13.4794,13.4487,13.4334,13.4334,13.3487,13.3487,13.4693,13.4,13.4024,0.0,0.0,13.6011,13.4762,13.644,13.6309,13.4334,0.0,0.0,13.041,12.8717,13.0102,13.4334,13.5103,13.7411,14.0489,14.0566,14.0566,14.0566,14.0566,14.0566,14.0719,14.1566,14.1874,14.1874,14.1874,14.1874,14.1874,14.1874,14.1874,14.1874,14.1874,14.1874,14.2104,14.2874,14.3105,14.3258,14.4182,14.4412,14.4412,14.4412,14.4412,14.4412,14.4412,14.5105,14.5874,14.6721,14.6875,14.7182,14.8029,14.8182,14.7875,14.7105,0.0,0.0,0.0,14.749,14.6875,14.6875,14.1027,13.9565,14.6182,13.9335,13.7488,14.5028,14.0104,13.6719,13.6796,0.0,0.0,14.4336,14.5182,0.0,14.572,14.7413,14.8182,14.8182,14.8182,14.7721,14.6875,14.7798,14.8182,14.8182,14.9106,14.9875,15.0721,15.0721,15.1183,15.1875,15.1029,15.0721,15.0721,15.0721,15.0721,15.0798,13.439,13.4175,13.4373,13.5506,13.4584,13.4205,13.5386,13.4924,13.4988,13.6589,13.6389,13.6194,13.6797,13.5795,13.518,0.0,13.5795,13.6001,0.0,13.6463,13.6665,13.6506,13.7575,13.7592,13.639,13.671,13.6411,13.5488,0.0,0.0,0.0,13.2487,13.418,13.7719,13.8565,13.9565,14.0566,14.0566,14.0566,14.0566,14.0566,14.1027,14.1489,14.1797,14.1874,14.1874,14.1874,14.1874,14.1874,14.1874,14.1874,14.1874,14.1874,14.1874,14.2027,14.2181,14.2258,14.2335,14.2566,14.3105,14.3489,14.3489,14.4028,14.4412,14.4412,14.5105,14.5874,14.6721,14.6875,14.7028,14.7259,14.7798,14.8259,14.8567,14.9413,0.0,14.9875,14.8721,14.8182,14.9413,14.6567,14.6105,0.0,14.4797,0.0,0.0,13.8565,13.6719,13.8411,0.0,0.0,0.0,14.5413,0.0,14.4028,14.6182,14.7028,14.649,14.7105,14.749,14.7798,14.8106,14.849,14.9106,15.0029,15.0491,15.0721,15.0721,15.0875,15.1106,15.0798,15.0721,15.0798,15.1414,15.1568,15.1568,13.5937,13.5703,13.582,13.6633,13.582,13.5327,13.6361,13.6001,13.6176,13.7595,13.7469,13.7492,13.8003,13.695,0.0,13.6488,13.6642,0.0,13.731,13.7747,13.7876,13.7802,13.8498,13.8515,13.7578,0.0,0.0,13.6617,13.5103,13.4872,13.5719,13.5719,13.718,13.9796,14.0412,14.0796,14.1104,14.1104,14.1104,14.1104,14.1104,14.1412,14.1874,14.1874,14.1874,14.1874,14.1874,14.1874,14.1874,14.1874,14.1874,14.1874,14.1874,14.1874,14.1874,14.1874,14.1874,14.1874,14.1874,14.2258,14.2566,14.2566,14.3105,14.3489,14.3797,14.4336,14.5105,14.6182,14.6413,14.649,14.6798,14.7567,14.8413,14.8875,14.949,15.0106,15.0568,14.9798,14.9337,14.9721,14.8336,0.0,0.0,14.6567,0.0,0.0,14.1797,14.0873,0.0,0.0,0.0,14.2489,14.6182,0.0,14.3105,14.5567,14.649,14.572,14.6798,14.7721,14.8182,14.8875,14.9413,15.0029,15.0798,15.1183,15.1183,15.1183,15.1183,15.1183,15.1183,15.1183,15.1337,15.1799,15.2029,15.2029,13.7578,13.7968,0.0,0.0,13.7433,0.0,13.7289,13.7309,13.7258,13.7818,13.817,13.8393,13.8401,13.8106,13.7695,13.7488,0.0,0.0,0.0,13.7736,13.7692,13.8905,13.8906,0.0,13.8437,13.8424,13.8003,13.7257,13.7026,13.7257,13.8104,13.8181,13.9104,14.0566,14.0719,14.1104,14.1797,14.1874,14.1874,14.1797,14.1874,14.1874,14.1874,14.1874,14.1874,14.1874,14.1874,14.1874,14.1874,14.1874,14.1874,14.1874,14.1874,14.1874,14.1874,14.1874,14.1874,14.1874,14.1874,14.1874,14.1874,14.1874,14.1874,14.2104,14.2874,14.3105,14.3566,14.5336,14.572,14.5874,14.6721,14.749,14.8106,14.8182,14.949,15.0568,15.0721,15.0721,15.0106,14.8567,0.0,0.0,0.0,14.572,14.6413,0.0,0.0,0.0,0.0,0.0,14.2412,14.572,14.7259,14.649,14.3181,14.572,14.649,14.5797,14.7413,14.8182,14.8259,15.0029,15.0721,15.0798,15.1568,15.2029,15.2029,15.2029,15.2029,15.2029,15.2029,15.2029,15.2029,15.2029,15.2029,15.2029,0.0,0.0,13.7187,13.8515,13.7804,13.7218,13.8018,13.8134,13.8157,13.8169,13.8602,13.8702,13.8409,13.8295,13.8464,13.908,13.831,13.8102,13.8682,13.8643,13.8616,13.8906,13.8906,13.8906,13.8828,13.8468,13.8014,13.7257,13.7873,13.8104,13.8104,13.9412,14.0181,14.0566,14.1335,14.1335,14.1027,14.1566,14.1489,14.1027,14.1566,14.1874,14.1874,14.1874,14.1874,14.1874,14.1874,14.1874,14.1874,14.1874,14.1874,14.1874,14.1874,14.1874,14.1874,14.1874,14.1874,14.1874,14.1874,14.1874,14.1874,14.1874,14.1874,14.2104,14.2874,14.3105,14.3412,14.4489,14.5182,14.5797,14.5874,14.6721,14.7413,14.8106,14.849,14.9183,15.0491,15.0183,14.9875,0.0,14.9183,14.8721,14.8875,14.9106,14.8567,0.0,0.0,0.0,14.6875,14.472,14.4489,14.649,14.7028,14.6182,14.4105,14.6028,14.6798,14.6567,14.7721,14.849,14.9183,15.0183,15.1106,15.1722,15.1875,15.2029,15.2029,15.2029,15.2029,15.2029,15.2029,15.2029,15.2029,15.2029,15.2029,15.2029,13.8125,13.7812,13.7812,13.8672,13.8437,13.7968,13.8437,13.8855,13.9177,13.9004,13.9559,14.0,13.9765,13.9775,14.0031,14.0468,13.9594,13.9344,13.9997,14.0078,14.0078,14.0078,14.0078,14.0078,14.0078,13.9531,13.8696,13.7482,13.7794,13.8181,13.8719,13.9565,14.0566,14.172,14.1874,14.1797,14.172,14.1874,14.1566,14.1181,14.172,14.1874,14.1874,14.1489,14.1335,14.1335,14.1335,14.1335,14.1412,14.1797,14.1874,14.1874,14.1874,14.1874,14.1874,14.1874,14.1874,14.1874,14.1874,14.1874,14.1874,14.1874,14.1874,14.2027,14.2489,14.2797,14.3181,14.372,14.4489,14.5105,14.5105,14.5797,14.649,14.7028,14.8029,14.9106,15.0029,15.0106,15.0183,15.0568,14.9567,14.8875,14.8875,14.8875,14.849,14.749,0.0,0.0,14.6875,14.5336,14.5182,14.6798,14.649,14.572,14.4412,14.572,14.649,14.6875,14.8182,14.9029,14.949,15.0721,15.1568,15.2029,15.2029,15.2029,15.2029,15.2029,15.2029,15.2029,15.2029,15.2029,15.2029,15.2029,15.2029,15.2029,13.8906,13.8906,13.8906,13.8906,13.8984,13.8984,13.8672,13.9687,14.0305,14.0001,14.0908,14.1484,14.1484,14.1484,14.1609,14.1663,14.0793,14.0476,14.1403,14.1484,14.1484,14.1484,14.1484,14.1484,14.1484,14.0781,13.9569,13.8134,13.7898,13.8257,13.9181,13.9412,14.0719,14.272,14.2104,14.2258,14.2874,14.2181,14.1874,14.1874,14.1874,14.1874,14.172,14.1027,14.0566,14.0489,14.0489,14.0489,14.0719,14.1489,14.1797,14.1874,14.2027,14.2104,14.2104,14.2181,14.2181,14.2104,14.1874,14.1874,14.1874,14.1874,14.2027,14.2104,14.2104,14.272,14.3258,14.3258,14.4028,14.4643,14.4643,14.5182,14.572,14.572,14.7567,14.9106,14.9106,0.0,15.0491,15.0337,14.9029,14.8029,14.7798,14.7259,14.749,14.9029,14.8029,14.749,0.0,14.6028,14.5336,14.649,14.572,14.5105,14.4643,14.549,14.6182,14.6875,14.8721,14.949,14.9567,15.1183,15.2029,15.2029,15.2029,15.2029,15.2029,15.2029,15.2029,15.2029,15.2029,15.2029,15.2029,15.2029,15.2029,15.2029,13.8906,13.8906,13.8906,13.8906,13.9531,14.0,13.9922,14.0703,14.1325,14.1209,14.1398,14.1484,14.1484,14.1484,14.1794,14.2537,14.2373,14.2082,14.1484,14.1484,14.1484,14.1484,14.1484,14.1484,14.1484,14.1406,14.0701,13.9363,13.9769,13.9465,13.8695,13.9873,14.0566,14.1027,14.1566,14.2027,14.2104,14.2027,14.1874,14.1874,14.1874,14.1643,14.1181,14.1104,14.0566,14.0004,14.0004,14.0258,14.0566,14.0796,14.1335,14.2027,14.272,14.2874,14.3105,14.3797,14.3489,14.2797,14.2104,14.1874,14.1874,14.1874,14.2412,14.2874,14.2874,14.3566,14.4182,14.4182,14.4874,14.549,14.549,14.5567,14.572,14.572,14.6567,14.7336,14.7336,0.0,14.9413,14.8721,14.7721,14.6798,14.6182,14.6567,14.7028,14.7336,14.8413,14.849,14.7182,14.6721,14.6028,14.4797,14.4028,14.4105,14.549,14.6336,14.6798,14.6875,14.8721,14.949,14.9567,15.1183,15.2029,15.2029,15.2029,15.2029,15.2029,15.2029,15.2029,15.2029,15.2029,15.2029,15.2029,15.2029,15.2029,15.2029,14.0312,14.0312,14.0312,14.0312,14.0625,14.0937,14.0937,14.1562,14.2187,14.2187,14.2578,14.2812,14.2812,14.2812,14.2968,14.3437,14.3437,14.3281,14.289,14.2812,14.2812,14.2812,14.2812,14.2578,14.2187,14.2187,14.1562,14.0312,14.0588,14.0376,14.0004,14.0619,14.1312,14.1874,14.1874,14.2104,14.2489,14.2104,14.1874,14.1874,14.1874,14.1643,14.1104,14.0643,14.0022,13.9381,13.9336,13.9619,14.0258,14.0489,14.1489,14.2566,14.3028,14.3412,14.3874,14.4336,14.3797,14.2874,14.2104,14.1874,14.2027,14.2412,14.2797,14.3181,14.372,14.4489,14.5028,14.4489,14.5105,14.5567,14.5105,14.5028,14.5336,14.6182,14.7105,0.0,0.0,14.8567,14.849,14.7567,14.6798,14.6105,14.572,14.6028,14.6413,14.6875,14.6798,14.6413,14.5567,14.5567,14.4797,14.3105,14.4028,14.4874,14.572,14.649,14.6875,14.6875,14.8721,14.949,14.9567,15.1183,15.2029,15.2029,15.2029,15.2029,15.2029,15.2029,15.2029,15.2029,15.2029,15.2029,15.2029,15.2029,15.2029,15.2029,14.1484,14.1484,14.1484,14.1484,14.1718,14.1797,14.1797,14.25,14.3125,14.3125,14.3593,14.3984,14.3984,14.3984,14.3984,14.3984,14.3984,14.3984,14.3984,14.3984,14.3984,14.3984,14.3984,14.3672,14.3125,14.3125,14.25,14.1328,14.1172,14.1134,14.0918,14.1008,14.162,14.2489,14.2104,14.2181,14.2797,14.2181,14.1874,14.1874,14.1874,14.1489,14.0873,14.0311,13.9614,13.8891,13.8529,13.9182,14.0234,14.0258,14.172,14.3412,14.3412,14.4028,14.472,14.4874,14.4412,14.3489,14.272,14.2489,14.2566,14.3181,14.3566,14.3874,14.4489,14.5413,14.5797,14.5105,14.549,14.5797,14.5105,14.4797,14.5105,14.6413,0.0,0.0,0.0,14.8413,14.7875,14.7028,14.6182,14.572,14.572,14.572,14.6028,14.6567,14.5567,14.4874,14.472,14.4874,14.4182,14.2489,14.4412,14.5413,14.5413,14.6413,14.6875,14.6875,14.8721,14.949,14.9567,15.1183,15.2029,15.2029,15.2029,15.2029,15.2029,15.2029,15.2029,15.2029,15.2029,15.2029,15.2029,15.2029,15.2029,15.2029,14.1484,14.1484,14.1484,14.1484,14.2187,14.2734,14.2734,14.3437,14.3906,14.3906,14.3984,14.3984,14.3984,14.3984,14.3984,14.3984,14.3984,14.3984,14.3984,14.3984,14.3984,14.3984,14.3984,14.3984,14.3906,14.3906,14.3515,14.2734,14.2265,14.1486,14.0522,14.0934,14.095,14.0796,14.1566,14.1874,14.2027,14.1874,14.1874,14.1874,14.1874,14.1335,14.0441,14.0384,13.9601,13.8421,13.8001,13.9229,14.0796,13.9796,14.1643,14.4336,14.4336,14.4874,14.5797,14.649,14.6105,14.5336,14.4489,14.4182,14.4182,14.4336,14.4874,14.549,14.5567,14.6182,14.6798,14.6721,14.6798,14.6798,14.6721,14.6105,14.5567,14.5797,0.0,0.0,14.6105,14.7259,14.7875,14.7028,14.6182,14.572,14.572,14.572,14.572,14.5797,14.6413,14.6413,14.5567,14.6336,14.5874,14.4336,14.4412,14.4489,14.4489,14.6105,14.6875,14.6875,14.8721,14.949,14.9567,15.1183,15.2029,15.2029,15.2029,15.2029,15.2029,15.2029,15.2029,15.2029,15.2029,15.2029,15.2029,15.2029,15.2029,15.2029,14.3125,14.3125,14.3125,14.3125,14.3281,14.3515,14.3515,14.3828,14.3984,14.3984,14.3984,14.3984,14.3984,14.3984,14.3984,14.3984,14.3984,14.3984,14.3984,14.3984,14.3984,14.3984,14.3984,14.3984,14.3984,14.3984,14.3906,14.3515,14.3437,14.2902,14.2008,14.2217,14.1874,14.1412,14.1797,14.1874,14.1874,14.1874,14.1874,14.1874,14.1874,14.1335,14.0364,14.0376,13.973,13.8588,13.7985,13.8996,14.0489,13.9565,14.1181,14.372,14.4182,14.5028,14.5874,14.6721,14.6336,14.572,14.5874,14.5182,14.4489,14.5105,14.549,14.5797,14.6336,14.6721,14.6875,14.6875,14.6875,14.6875,14.6875,14.6182,14.6028,14.7105,0.0,14.7028,14.7182,14.7259,14.7105,14.6336,14.5874,14.572,14.572,14.572,14.572,14.572,14.549,14.5182,14.4874,14.472,14.4489,14.4412,14.4412,14.4412,14.4412,14.6105,14.6875,14.6875,14.8721,14.949,14.9567,15.1183,15.2029,15.2029,15.2029,15.2029,15.2029,15.2029,15.2029,15.2029,15.2029,15.2029,15.2029,15.2029,15.2029,15.2029,14.3984,14.3984,14.3984,14.3984,14.3984,14.3984,14.3984,14.3984,14.3984,14.3984,14.3984,14.3984,14.3984,14.3984,14.3984,14.3984,14.3984,14.3984,14.3984,14.3984,14.3984,14.3984,14.3984,14.3984,14.3984,14.3984,14.3984,14.3984,14.3984,14.3722,14.317,14.3013,14.2566,14.2104,14.1874,14.1874,14.1874,14.1874,14.1874,14.1874,14.1874,14.1181,14.0287,14.0376,13.973,13.867,13.8526,13.9401,14.0696,14.0104,14.1489,14.3566,14.3874,14.4566,14.5413,14.6028,14.572,14.549,14.6336,14.572,14.5028,14.5874,14.6105,14.6182,14.6798,14.6875,14.6875,14.6875,14.6875,14.6875,14.6875,14.6413,14.649,14.7567,14.7259,14.7105,14.7721,14.7259,14.6721,14.6105,14.6105,14.6105,14.6105,14.6105,14.6105,14.6105,14.549,14.5182,14.5182,14.4412,14.4105,14.4412,14.472,14.472,14.4412,14.6105,14.6875,14.6875,14.8721,14.949,14.9567,15.1183,15.2029,15.2029,15.2029,15.2029,15.2029,15.2029,15.2029,15.2029,15.2029,15.2029,15.2029,15.2029,15.2029,15.2029,14.3984,14.3984,14.3984,14.3984,14.3984,14.3984,14.3984,14.3984,14.3984,14.3984,14.3984,14.3984,14.3984,14.3984,14.3984,14.3984,14.3984,14.3984,14.3984,14.3984,14.3984,14.3984,14.3984,14.3984,14.3984,14.3984,14.3984,14.3984,14.3984,14.3828,14.3515,14.3219,14.2774,14.2412,14.2104,14.1874,14.1874,14.1874,14.1874,14.1874,14.1874,14.1104,13.9878,14.0299,13.9574,13.8515,13.9375,14.0472,14.1466,14.1235,14.2566,14.4182,14.3412,14.372,14.4412,14.4412,14.4412,14.4643,14.549,14.572,14.5874,14.6721,14.6875,14.6875,14.6875,14.6875,14.6875,14.6875,14.6875,14.6875,14.6875,14.6875,14.6875,14.6875,14.6875,14.6875,14.6875,14.6875,14.6875,14.6875,14.6875,14.6875,14.6875,14.6875,14.6875,14.6875,14.6875,14.6875,14.6875,14.6105,14.5336,14.4412,14.5182,14.5336,14.4412,14.6105,14.6875,14.6875,14.8721,14.949,14.9567,15.1183,15.2029,15.2029,15.2029,15.2029,15.2029,15.2029,15.2029,15.2029,15.2029,15.2029,15.2029,15.2029,15.2029,15.2029,14.3984,14.3984,14.3984,14.3984,14.3984,14.3984,14.3984,14.3984,14.3984,14.3984,14.3984,14.3984,14.3984,14.3984,14.3984,14.3984,14.3984,14.3984,14.3984,14.3984,14.3984,14.3984,14.3984,14.3984,14.3984,14.3984,14.3984,14.3984,14.3984,14.3828,14.3515,14.3428,14.301,14.2412,14.2258,14.2104,14.1874,14.1874,14.1874,14.1874,14.1874,14.1412,14.0696,14.0485,13.9934,13.9297,13.9609,14.0214,14.0777,14.1005,14.1797,14.272,14.3028,14.3258,14.3566,14.4182,14.4028,14.3797,14.5336,14.572,14.5874,14.6721,14.6875,14.6875,14.6875,14.6875,14.6875,14.6875,14.6875,14.6875,14.6875,14.6875,14.6875,14.6875,14.6875,14.6875,14.6875,14.6875,14.6875,14.6875,14.6875,14.6875,14.6875,14.6875,14.6875,14.6875,14.6875,14.6875,14.6875,14.6105,14.5336,14.4412,14.5182,14.5336,14.4412,14.6105,14.6875,14.6875,14.8721,14.949,14.9567,15.1183,15.2029,15.2029,15.2029,15.2029,15.2029,15.2029,15.2029,15.2029,15.2029,15.2029,15.2029,15.2029,15.2029,15.2029,14.3984,14.3984,14.3984,14.3984,14.3984,14.3984,14.3984,14.3984,14.3984,14.3984,14.3984,14.3984,14.3984,14.3984,14.3984,14.3984,14.3984,14.3984,14.3984,14.3984,14.3984,14.3984,14.3984,14.3984,14.3984,14.3984,14.3984,14.3984,14.3984,14.3906,14.3672,14.3593,14.3339,14.2774,14.254,14.2258,14.2104,14.2027,14.1874,14.1874,14.1874,14.1335,14.0412,14.0412,13.996,13.9524,14.0227,14.0615,14.0958,14.1565,14.1874,14.2027,14.2489,14.2566,14.272,14.3335,14.3028,14.3028,14.472,14.5182,14.549,14.6567,14.6875,14.6875,14.6875,14.6875,14.6875,14.6875,14.6875,14.6875,14.6875,14.6875,14.6875,14.6875,14.6875,14.6875,14.6875,14.6875,14.6875,14.6875,14.6875,14.6875,14.6875,14.6875,14.6875,14.6875,14.6875,14.6875,14.6875,14.6105,14.549,14.4874,14.5413,14.5413,14.4874,14.6182,14.6875,14.6875,14.8721,14.949,14.9567,15.1183,15.2029,15.2029,15.2029,15.2029,15.2029,15.2029,15.2029,15.2029,15.2029,15.2029,15.2029,15.2029,15.2029,15.2029,14.3984,14.3984,14.3984,14.3984,14.3984,14.3984,14.3984,14.3984,14.3984,14.3984,14.3984,14.3984,14.3984,14.3984,14.3984,14.3984,14.3984,14.3984,14.3984,14.3984,14.3984,14.3984,14.3984,14.3984,14.3984,14.3984,14.3984,14.3984,14.3984,14.3984,14.3984,14.3672,14.3515,14.3514,14.279,14.2419,14.2412,14.2027,14.1874,14.1874,14.1874,14.0873,13.9488,14.005,13.9875,13.9389,14.1023,14.1646,14.1844,14.2569,14.2489,14.1874,14.1874,14.1874,14.1874,14.1874,14.1874,14.2258,14.3874,14.4412,14.4797,14.649,14.6798,14.6798,14.6875,14.6875,14.6875,14.6875,14.6875,14.6875,14.6875,14.6875,14.6875,14.6875,14.6875,14.6875,14.6875,14.6875,14.6875,14.6875,14.6875,14.6875,14.6875,14.6875,14.6875,14.6875,14.6875,14.6875,14.6875,14.6105,14.572,14.572,14.572,14.572,14.572,14.649,14.6875,14.6875,14.8567,14.9413,14.9567,15.1183,15.1875,15.2029,15.2029,15.2029,15.2029,15.2029,15.2029,15.2029,15.2029,15.2029,15.2029,15.2029,15.2029,15.2029,14.3984,14.3984,14.3984,14.3984,14.3984,14.3984,14.3984,14.3984,14.3984,14.3984,14.3984,14.3984,14.3984,14.3984,14.3984,14.3984,14.3984,14.3984,14.3984,14.3984,14.3984,14.3984,14.3984,14.3984,14.3984,14.3984,14.3984,14.3984,14.3984,14.3984,14.3984,14.3906,14.3828,14.3515,14.3121,14.2675,14.2412,14.2027,14.1874,14.1874,14.1874,14.1335,14.0335,14.0412,14.0262,14.0245,14.1179,14.1646,14.1688,14.2029,14.2027,14.1874,14.1874,14.1874,14.1874,14.1874,14.1874,14.2258,14.3874,14.4412,14.4797,14.649,14.6413,14.6105,14.6798,14.6875,14.6875,14.6875,14.6875,14.6875,14.6875,14.6875,14.6875,14.6875,14.6875,14.6875,14.6875,14.6875,14.6875,14.6875,14.6875,14.6875,14.6875,14.6875,14.6875,14.6875,14.6875,14.6875,14.6875,14.6105,14.572,14.572,14.572,14.572,14.572,14.649,14.6875,14.6875,14.8029,14.8798,14.949,15.0491,15.1414,15.2029,15.2029,15.2029,15.2029,15.2029,15.2029,15.2029,15.2029,15.2029,15.2029,15.2029,15.2029,15.2029,14.3984,14.3984,14.3984,14.3984,14.3984,14.3984,14.3984,14.3984,14.3984,14.3984,14.3984,14.3984,14.3984,14.3984,14.3984,14.3984,14.3984,14.3984,14.3984,14.3984,14.3984,14.3984,14.3984,14.3984,14.3984,14.3984,14.3984,14.3984,14.3984,14.3984,14.3984,14.3984,14.3906,14.3671,14.336,14.2962,14.2697,14.2258,14.2027,14.1874,14.1874,14.1412,14.0566,14.0927,14.1001,14.1076,14.188,14.2166,14.2324,14.2215,14.2027,14.1874,14.1874,14.1874,14.1874,14.1874,14.1874,14.2181,14.3412,14.4105,14.472,14.6028,14.6336,14.6413,14.6798,14.6567,14.6413,14.6798,14.6875,14.6875,14.6875,14.6875,14.6875,14.6875,14.6875,14.6875,14.6875,14.6875,14.6875,14.6875,14.6875,14.6875,14.6875,14.6875,14.6875,14.6875,14.6875,14.6875,14.6875,14.572,14.5413,14.6182,14.549,14.549,14.6336,14.6721,14.6875,14.6875,14.8182,14.9106,14.949,15.0798,15.1568,15.2029,15.2029,15.2029,15.2029,15.2029,15.2029,15.2029,15.2029,15.2029,15.2029,15.2029,15.2029,15.2106,14.3984,14.3984,14.3984,14.3984,14.3984,14.3984,14.3984,14.3984,14.3984,14.3984,14.3984,14.3984,14.3984,14.3984,14.3984,14.3984,14.3984,14.3984,14.3984,14.3984,14.3984,14.3984,14.3984,14.3984,14.3984,14.3984,14.3984,14.3984,14.3984,14.3984,14.3984,14.3984,14.3984,14.3984,14.3593,14.3266,14.301,14.2597,14.2181,14.1874,14.1874,14.1412,14.0719,14.1389,14.174,14.1827,14.2472,14.2854,14.2933,14.252,14.2181,14.1874,14.1874,14.1874,14.1874,14.1874,14.1874,14.2104,14.2874,14.372,14.4643,14.549,14.6105,14.649,14.6721,14.6336,14.6105,14.6798,14.6875,14.6875,14.6875,14.6875,14.6875,14.6875,14.6875,14.6875,14.6875,14.6875,14.6875,14.6875,14.6875,14.6875,14.6875,14.6875,14.6875,14.6875,14.6875,14.6875,14.6875,14.549,14.5336,14.6875,14.5413,14.5413,14.6875,14.6875,14.6875,14.6875,14.849,14.9413,14.9567,15.1106,15.1875,15.2029,15.2029,15.2029,15.2029,15.2029,15.2029,15.2029,15.2029,15.2029,15.2029,15.2183,15.2337,15.2491,14.3984,14.3984,14.3984,14.3984,14.3984,14.3984,14.3984,14.3984,14.3984,14.3984,14.3984,14.3984,14.3984,14.3984,14.3984,14.3984,14.3984,14.3984,14.3984,14.3984,14.3984,14.3984,14.3984,14.3984,14.3984,14.3984,14.3984,14.3984,14.3984,14.3984,14.3984,14.3984,14.3984,14.3984,14.3593,14.326,14.2995,14.2617,14.2181,14.1874,14.1874,14.1412,14.0719,14.1412,14.1698,14.1827,14.2472,14.291,14.2929,14.252,14.2181,14.1874,14.1874,14.1874,14.1874,14.1874,14.1874,14.2104,14.2874,14.372,14.4643,14.549,14.5182,14.4874,14.572,14.6336,14.6798,14.6875,14.6875,14.6875,14.6875,14.6875,14.6875,14.6875,14.6875,14.6875,14.6875,14.6875,14.6875,14.6875,14.6875,14.6875,14.6875,14.6875,14.6875,14.6875,14.6875,14.6875,14.6875,14.6028,14.5874,14.6875,14.6028,14.6028,14.6875,14.6875,14.6875,14.6875,14.7875,14.8798,14.949,15.0491,15.1337,15.2029,15.2029,15.2029,15.2029,15.2029,15.2029,15.2029,15.2029,15.2029,15.2106,15.2799,15.3568,15.4184,14.3984,14.3984,14.3984,14.3984,14.3984,14.3984,14.3984,14.3984,14.3984,14.3984,14.3984,14.3984,14.3984,14.3984,14.3984,14.3984,14.3984,14.3984,14.3984,14.3984,14.3984,14.3984,14.3984,14.3984,14.3984,14.3984,14.3984,14.3984,14.3984,14.3984,14.3984,14.3984,14.3984,14.3984,14.3828,14.3577,14.3301,14.2901,14.2489,14.2181,14.2027,14.172,14.1412,14.2104,14.2394,14.2528,14.3175,14.3339,14.301,14.28,14.2412,14.1874,14.1874,14.1874,14.1874,14.1874,14.1874,14.2027,14.2258,14.3028,14.3797,14.4182,14.4336,14.4489,14.4874,14.5567,14.6182,14.6182,14.6567,14.6875,14.6875,14.6875,14.6875,14.6875,14.6875,14.6875,14.6875,14.6875,14.6875,14.6875,14.6875,14.6875,14.6875,14.6875,14.6875,14.6875,14.6875,14.6875,14.6875,14.6567,14.649,14.6875,14.6567,14.649,14.6875,14.6875,14.6875,14.6875,14.8336,14.9106,14.949,15.0337,15.1183,15.2029,15.2029,15.2029,15.2029,15.2029,15.2029,15.2029,15.2029,15.2337,15.2799,15.3722,15.4184,15.4568]},{"header":{"parameterUnit":"m.s-1","parameterCategory":1,"la1":30.6,"la2":28.766,"lo1":-90.7593,"lo2":-88.6598,"dx":0.0162,"dy":0.0183,"nx":116,"ny":114,"refTime":"2022-12-23T06:00:00:Z","depth":0,"parameterNumber":3,"parameterNumberName":"V-component_of_WINDS"},"data":[0.0,0.0,0.0,0.0,0.0,0.0,0.0,0.0,0.0,0.0,0.0,0.0,0.0,0.0,0.0,0.0,0.0,0.0,0.0,0.0,0.0,0.0,0.0,0.0,0.0,0.0,0.0,0.0,0.0,0.0,0.0,0.0,0.0,0.0,0.0,0.0,0.0,0.0,0.0,0.0,0.0,0.0,0.0,0.0,0.0,0.0,0.0,0.0,0.0,0.0,0.0,0.0,0.0,0.0,0.0,0.0,0.0,0.0,0.0,0.0,0.0,0.0,0.0,0.0,0.0,0.0,0.0,0.0,0.0,0.0,0.0,0.0,0.0,0.0,0.0,0.0,0.0,0.0,0.0,0.0,0.0,0.0,0.0,0.0,0.0,0.0,0.0,0.0,0.0,0.0,0.0,0.0,0.0,0.0,0.0,0.0,0.0,0.0,0.0,0.0,0.0,0.0,0.0,0.0,0.0,0.0,0.0,0.0,0.0,0.0,0.0,0.0,0.0,0.0,0.0,0.0,0.0,0.0,0.0,0.0,0.0,0.0,0.0,0.0,0.0,0.0,0.0,0.0,0.0,0.0,0.0,0.0,0.0,0.0,0.0,0.0,0.0,0.0,0.0,0.0,0.0,0.0,0.0,0.0,0.0,0.0,0.0,0.0,0.0,0.0,0.0,0.0,0.0,0.0,0.0,0.0,0.0,0.0,0.0,0.0,0.0,0.0,0.0,0.0,0.0,0.0,0.0,0.0,0.0,0.0,0.0,0.0,0.0,0.0,0.0,0.0,0.0,0.0,0.0,0.0,0.0,0.0,0.0,0.0,0.0,0.0,0.0,0.0,0.0,0.0,0.0,0.0,0.0,0.0,0.0,0.0,0.0,0.0,0.0,0.0,0.0,0.0,0.0,0.0,0.0,0.0,0.0,0.0,0.0,0.0,0.0,0.0,0.0,0.0,0.0,0.0,0.0,0.0,0.0,0.0,0.0,0.0,0.0,0.0,0.0,0.0,0.0,0.0,0.0,0.0,0.0,0.0,0.0,0.0,0.0,0.0,0.0,0.0,0.0,0.0,0.0,0.0,0.0,0.0,0.0,0.0,0.0,0.0,0.0,0.0,0.0,0.0,0.0,0.0,0.0,0.0,0.0,0.0,0.0,0.0,0.0,0.0,0.0,0.0,0.0,0.0,0.0,0.0,0.0,0.0,0.0,0.0,0.0,0.0,0.0,0.0,0.0,0.0,0.0,0.0,0.0,0.0,0.0,0.0,0.0,0.0,0.0,0.0,0.0,0.0,0.0,0.0,0.0,0.0,0.0,0.0,0.0,0.0,0.0,0.0,0.0,0.0,0.0,0.0,0.0,0.0,0.0,0.0,0.0,0.0,0.0,0.0,0.0,0.0,0.0,0.0,0.0,0.0,0.0,0.0,0.0,0.0,0.0,0.0,0.0,0.0,0.0,0.0,0.0,0.0,0.0,0.0,0.0,0.0,0.0,0.0,0.0,0.0,0.0,0.0,0.0,0.0,0.0,0.0,0.0,0.0,0.0,0.0,0.0,0.0,0.0,0.0,0.0,0.0,0.0,0.0,0.0,0.0,0.0,0.0,0.0,0.0,0.0,0.0,0.0,0.0,0.0,0.0,0.0,0.0,0.0,0.0,0.0,0.0,0.0,0.0,0.0,0.0,0.0,0.0,0.0,0.0,0.0,0.0,0.0,0.0,0.0,0.0,0.0,0.0,0.0,0.0,0.0,0.0,0.0,0.0,0.0,0.0,0.0,0.0,0.0,0.0,0.0,0.0,0.0,0.0,0.0,0.0,0.0,0.0,0.0,0.0,0.0,0.0,0.0,0.0,0.0,0.0,0.0,0.0,0.0,0.0,0.0,0.0,0.0,0.0,0.0,0.0,0.0,0.0,0.0,0.0,0.0,0.0,0.0,0.0,0.0,0.0,0.0,0.0,0.0,0.0,0.0,0.0,0.0,0.0,0.0,0.0,0.0,0.0,0.0,0.0,0.0,0.0,0.0,0.0,0.0,0.0,0.0,0.0,0.0,0.0,0.0,0.0,0.0,0.0,0.0,0.0,0.0,0.0,0.0,0.0,0.0,0.0,0.0,0.0,0.0,0.0,0.0,0.0,0.0,0.0,0.0,0.0,0.0,0.0,0.0,0.0,0.0,0.0,0.0,0.0,0.0,0.0,0.0,0.0,0.0,0.0,0.0,0.0,0.0,0.0,0.0,0.0,0.0,0.0,0.0,0.0,0.0,0.0,0.0,0.0,0.0,0.0,0.0,0.0,0.0,0.0,0.0,0.0,0.0,0.0,0.0,0.0,0.0,0.0,0.0,0.0,0.0,0.0,0.0,0.0,0.0,0.0,0.0,0.0,0.0,0.0,0.0,0.0,0.0,0.0,0.0,0.0,0.0,0.0,0.0,0.0,0.0,0.0,0.0,0.0,0.0,0.0,0.0,0.0,0.0,0.0,0.0,0.0,0.0,0.0,0.0,0.0,0.0,0.0,0.0,0.0,0.0,0.0,0.0,0.0,0.0,0.0,0.0,0.0,0.0,0.0,0.0,0.0,0.0,0.0,0.0,0.0,0.0,0.0,0.0,0.0,0.0,0.0,0.0,0.0,0.0,0.0,0.0,0.0,0.0,0.0,0.0,0.0,0.0,0.0,0.0,0.0,0.0,0.0,0.0,0.0,0.0,0.0,0.0,0.0,0.0,0.0,0.0,0.0,0.0,0.0,0.0,0.0,0.0,0.0,0.0,0.0,0.0,0.0,0.0,0.0,0.0,0.0,0.0,0.0,0.0,0.0,0.0,0.0,0.0,0.0,0.0,0.0,0.0,0.0,0.0,0.0,0.0,0.0,0.0,0.0,0.0,0.0,0.0,0.0,0.0,0.0,0.0,0.0,0.0,0.0,0.0,0.0,0.0,0.0,0.0,0.0,0.0,0.0,0.0,0.0,0.0,0.0,0.0,0.0,0.0,0.0,0.0,0.0,0.0,0.0,0.0,0.0,0.0,0.0,0.0,0.0,0.0,0.0,0.0,0.0,0.0,0.0,0.0,0.0,0.0,0.0,0.0,0.0,0.0,0.0,0.0,0.0,0.0,0.0,0.0,0.0,0.0,0.0,0.0,0.0,0.0,0.0,0.0,0.0,0.0,0.0,0.0,0.0,0.0,0.0,0.0,0.0,0.0,0.0,0.0,0.0,0.0,0.0,0.0,0.0,0.0,0.0,0.0,0.0,0.0,0.0,0.0,0.0,0.0,0.0,0.0,0.0,0.0,0.0,0.0,0.0,0.0,0.0,0.0,0.0,0.0,0.0,0.0,0.0,0.0,0.0,0.0,0.0,0.0,0.0,0.0,0.0,0.0,0.0,0.0,0.0,0.0,0.0,0.0,0.0,0.0,0.0,0.0,0.0,0.0,0.0,0.0,0.0,0.0,0.0,0.0,0.0,0.0,0.0,0.0,0.0,0.0,0.0,0.0,0.0,0.0,0.0,0.0,0.0,0.0,0.0,0.0,0.0,0.0,0.0,0.0,0.0,0.0,0.0,0.0,0.0,0.0,0.0,0.0,0.0,0.0,0.0,0.0,0.0,0.0,0.0,0.0,0.0,0.0,0.0,0.0,0.0,0.0,0.0,0.0,0.0,0.0,0.0,0.0,0.0,0.0,0.0,0.0,0.0,0.0,0.0,0.0,0.0,0.0,0.0,0.0,0.0,0.0,0.0,0.0,0.0,0.0,0.0,0.0,0.0,0.0,0.0,0.0,0.0,0.0,0.0,0.0,0.0,0.0,0.0,0.0,0.0,0.0,0.0,0.0,0.0,0.0,0.0,0.0,0.0,0.0,0.0,0.0,0.0,0.0,0.0,0.0,0.0,0.0,0.0,0.0,0.0,0.0,0.0,0.0,0.0,0.0,0.0,0.0,0.0,0.0,0.0,0.0,0.0,0.0,0.0,0.0,0.0,0.0,0.0,0.0,0.0,0.0,0.0,0.0,0.0,0.0,0.0,0.0,0.0,0.0,0.0,0.0,0.0,0.0,0.0,0.0,0.0,0.0,0.0,0.0,0.0,0.0,0.0,0.0,0.0,0.0,0.0,0.0,0.0,0.0,0.0,0.0,0.0,0.0,0.0,0.0,0.0,0.0,0.0,0.0,0.0,0.0,0.0,0.0,0.0,0.0,0.0,0.0,0.0,0.0,0.0,0.0,0.0,0.0,0.0,0.0,0.0,0.0,0.0,0.0,0.0,0.0,0.0,0.0,0.0,0.0,0.0,0.0,0.0,0.0,0.0,0.0,0.0,0.0,0.0,0.0,0.0,0.0,0.0,0.0,0.0,0.0,0.0,0.0,0.0,0.0,0.0,0.0,0.0,0.0,0.0,0.0,0.0,0.0,0.0,0.0,0.0,0.0,0.0,0.0,0.0,0.0,0.0,0.0,0.0,0.0,0.0,0.0,0.0,0.0,0.0,0.0,0.0,0.0,0.0,0.0,0.0,0.0,0.0,0.0,0.0,0.0,0.0,0.0,0.0,0.0,0.0,0.0,0.0,0.0,0.0,0.0,0.0,0.0,0.0,0.0,0.0,0.0,0.0,0.0,0.0,0.0,0.0,0.0,0.0,0.0,0.0,0.0,0.0,0.0,0.0,0.0,0.0,0.0,0.0,0.0,0.0,0.0,0.0,0.0,0.0,0.0,0.0,0.0,0.0,0.0,0.0,0.0,0.0,0.0,0.0,0.0,0.0,0.0,0.0,0.0,0.0,0.0,0.0,0.0,0.0,0.0,0.0,0.0,0.0,0.0,0.0,0.0,0.0,0.0,0.0,0.0,0.0,0.0,0.0,0.0,0.0,0.0,0.0,0.0,0.0,0.0,0.0,0.0,0.0,0.0,0.0,0.0,0.0,0.0,0.0,0.0,0.0,0.0,0.0,0.0,0.0,0.0,0.0,0.0,0.0,0.0,0.0,0.0,0.0,0.0,0.0,0.0,0.0,0.0,0.0,0.0,0.0,0.0,0.0,0.0,0.0,0.0,0.0,0.0,0.0,0.0,0.0,0.0,0.0,0.0,0.0,0.0,0.0,0.0,0.0,0.0,0.0,0.0,0.0,0.0,0.0,0.0,0.0,0.0,0.0,0.0,0.0,0.0,0.0,0.0,0.0,0.0,0.0,0.0,0.0,0.0,0.0,0.0,0.0,0.0,0.0,0.0,0.0,0.0,0.0,0.0,0.0,0.0,0.0,0.0,0.0,0.0,0.0,0.0,0.0,0.0,0.0,0.0,0.0,0.0,0.0,0.0,0.0,0.0,0.0,0.0,0.0,0.0,0.0,0.0,0.0,0.0,0.0,0.0,0.0,0.0,0.0,0.0,0.0,0.0,0.0,0.0,0.0,0.0,0.0,0.0,0.0,0.0,0.0,0.0,0.0,0.0,0.0,0.0,0.0,0.0,0.0,0.0,0.0,0.0,0.0,0.0,0.0,0.0,0.0,0.0,0.0,0.0,0.0,0.0,0.0,0.0,0.0,0.0,0.0,0.0,0.0,0.0,0.0,0.0,0.0,0.0,0.0,0.0,0.0,0.0,0.0,0.0,0.0,0.0,0.0,0.0,0.0,0.0,0.0,0.0,0.0,0.0,0.0,0.0,0.0,0.0,0.0,0.0,0.0,0.0,0.0,0.0,0.0,0.0,0.0,0.0,0.0,0.0,0.0,0.0,0.0,0.0,0.0,0.0,0.0,0.0,0.0,0.0,0.0,0.0,0.0,0.0,0.0,0.0,0.0,0.0,0.0,0.0,0.0,0.0,0.0,0.0,0.0,0.0,0.0,0.0,0.0,0.0,0.0,0.0,0.0,0.0,0.0,0.0,0.0,0.0,0.0,0.0,0.0,0.0,0.0,0.0,0.0,0.0,0.0,0.0,0.0,0.0,0.0,0.0,0.0,0.0,0.0,0.0,0.0,0.0,0.0,0.0,0.0,0.0,0.0,0.0,0.0,0.0,0.0,0.0,0.0,0.0,0.0,0.0,0.0,0.0,0.0,0.0,0.0,0.0,0.0,0.0,0.0,0.0,0.0,0.0,0.0,0.0,0.0,0.0,0.0,0.0,0.0,-3.1408,0.0,0.0,0.0,0.0,0.0,0.0,0.0,0.0,0.0,0.0,0.0,0.0,0.0,0.0,0.0,0.0,0.0,0.0,0.0,0.0,0.0,0.0,0.0,0.0,-2.2819,-2.2723,-2.1988,-2.3001,0.0,0.0,0.0,0.0,0.0,0.0,0.0,0.0,0.0,-2.2269,-2.0897,-1.8812,-1.6888,-1.5119,-1.3647,-1.2861,-1.2589,0.0,0.0,0.0,0.0,0.0,0.0,0.0,0.0,0.0,0.0,0.0,0.0,0.0,0.0,0.0,0.0,0.0,0.0,0.0,0.0,0.0,0.0,0.0,0.0,0.0,0.0,0.0,0.0,0.0,0.0,0.0,0.0,0.0,0.0,0.0,0.0,0.0,0.0,0.0,0.0,0.0,0.0,0.0,0.0,0.0,0.0,0.0,0.0,0.0,0.0,0.0,0.0,0.0,0.0,0.0,0.0,0.0,0.0,0.0,0.0,0.0,0.0,0.0,0.0,0.0,0.0,0.0,0.0,0.0,0.0,0.0,-3.1139,0.0,0.0,0.0,0.0,0.0,0.0,0.0,0.0,0.0,0.0,0.0,0.0,0.0,0.0,0.0,0.0,0.0,0.0,0.0,0.0,0.0,-2.2178,-2.2525,-2.2697,-2.2291,-2.1002,-2.2239,-2.241,-2.0443,-2.2481,0.0,0.0,0.0,0.0,-2.3781,-2.3432,-2.2705,-2.1494,-1.9634,-1.7229,-1.4312,-1.4543,-1.4312,-1.3688,-1.2969,0.0,0.0,0.0,0.0,0.0,0.0,0.0,0.0,0.0,0.0,0.0,0.0,0.0,0.0,0.0,0.0,0.0,0.0,0.0,0.0,0.0,0.0,0.0,0.0,0.0,0.0,0.0,0.0,0.0,0.0,0.0,0.0,0.0,0.0,0.0,0.0,0.0,0.0,0.0,0.0,0.0,0.0,0.0,0.0,0.0,0.0,0.0,0.0,0.0,0.0,0.0,0.0,0.0,0.0,0.0,0.0,0.0,0.0,0.0,0.0,0.0,0.0,0.0,0.0,0.0,-3.3223,-3.5649,-3.5715,-3.388,-3.2494,-3.1795,-3.1867,0.0,0.0,0.0,0.0,0.0,0.0,0.0,0.0,0.0,0.0,0.0,0.0,0.0,0.0,0.0,0.0,0.0,0.0,0.0,0.0,-2.2579,-2.314,-2.1963,-2.1284,-2.1476,-1.9984,-1.9057,-1.8917,-2.0534,0.0,0.0,0.0,-2.3781,-2.3781,-2.2313,-2.172,-2.1996,-1.9869,-1.7491,-1.5248,-1.5791,-1.5995,-1.5845,-1.4597,-1.4027,-1.396,0.0,0.0,0.0,0.0,0.0,0.0,0.0,0.0,0.0,0.0,0.0,0.0,0.0,0.0,0.0,0.0,0.0,0.0,0.0,0.0,0.0,0.0,0.0,0.0,0.0,0.0,0.0,0.0,0.0,0.0,0.0,0.0,0.0,0.0,0.0,0.0,0.0,0.0,0.0,0.0,0.0,-3.0702,-3.1076,0.0,0.0,0.0,0.0,0.0,0.0,0.0,0.0,0.0,0.0,0.0,0.0,0.0,0.0,-3.2085,-3.5287,-3.5854,-3.3847,-3.6648,-3.7954,-3.8253,-3.8246,-3.8459,-3.8728,-3.8253,0.0,-3.5633,-3.505,0.0,0.0,0.0,0.0,0.0,0.0,0.0,0.0,0.0,0.0,0.0,0.0,0.0,0.0,0.0,0.0,0.0,0.0,0.0,0.0,0.0,-2.1834,-2.099,-1.9144,-1.9287,-1.8788,-1.7422,-1.927,0.0,0.0,-2.2215,-2.3146,-2.4502,-2.2766,-2.1383,-2.0204,-1.8359,-1.6928,-1.6415,-1.6686,-1.6809,-1.6781,-1.6185,-1.5411,-1.4516,-1.4122,0.0,0.0,0.0,0.0,0.0,0.0,0.0,0.0,0.0,0.0,0.0,0.0,0.0,0.0,0.0,0.0,0.0,0.0,0.0,0.0,0.0,0.0,0.0,0.0,0.0,0.0,0.0,0.0,0.0,0.0,0.0,0.0,0.0,0.0,0.0,0.0,0.0,0.0,0.0,-3.0101,-3.0657,-3.2695,-3.1304,-3.0853,0.0,0.0,0.0,0.0,0.0,0.0,0.0,0.0,0.0,-3.5965,-3.6847,-3.6709,-3.5711,-3.7548,-3.8047,-3.716,-3.8493,-3.9493,-3.9893,-3.9786,-3.9867,-4.008,-3.9974,-3.9386,-3.8193,-3.5809,-3.3617,-3.1749,0.0,0.0,0.0,0.0,0.0,0.0,0.0,0.0,0.0,0.0,0.0,0.0,0.0,0.0,0.0,0.0,0.0,0.0,-2.1348,-2.1162,-2.005,-1.7547,-1.8244,-1.8052,-1.618,-1.787,-1.9374,-2.0264,-2.122,-2.2349,-2.3678,-2.2285,-2.0343,-1.8052,-1.7156,-1.6876,-1.7311,-1.7433,-1.7487,-1.7487,-1.7487,-1.6646,-1.5248,-1.5045,-1.4434,-1.3566,0.0,0.0,0.0,0.0,0.0,0.0,0.0,0.0,0.0,0.0,0.0,0.0,0.0,0.0,0.0,0.0,0.0,0.0,0.0,0.0,0.0,0.0,0.0,0.0,0.0,0.0,0.0,0.0,0.0,0.0,0.0,0.0,0.0,0.0,0.0,0.0,0.0,-3.1289,-3.1763,-3.4369,-3.2837,-3.1987,0.0,0.0,0.0,0.0,0.0,0.0,-3.6046,-3.666,-3.7114,-3.7489,-3.829,-3.8825,-3.9038,-3.9573,-4.0,-4.0348,-4.0348,-4.0588,-4.0909,-4.0909,-4.0909,-4.0909,-4.0909,-4.0802,-4.0238,-3.6824,-3.4947,-3.4331,-3.342,-3.2956,0.0,-3.5082,-3.5752,-3.5697,0.0,0.0,0.0,0.0,0.0,0.0,0.0,0.0,0.0,0.0,0.0,-2.1371,-2.213,-1.9504,-1.7932,-1.8151,-1.6234,-1.4943,-1.5066,-1.6136,-1.6892,-1.7024,-2.0116,-2.1234,-1.9836,-1.9089,-1.7834,-1.6261,-1.708,-1.7595,-1.7636,-1.8057,-1.826,-1.826,-1.826,-1.7663,-1.6605,-1.59,-1.5479,-1.5181,-1.3905,0.0,0.0,0.0,0.0,0.0,0.0,0.0,0.0,0.0,0.0,0.0,0.0,0.0,0.0,0.0,0.0,0.0,0.0,0.0,0.0,0.0,0.0,0.0,0.0,0.0,0.0,0.0,0.0,0.0,0.0,0.0,0.0,0.0,0.0,0.0,0.0,0.0,0.0,-3.5538,-3.559,0.0,0.0,0.0,0.0,-3.5565,-3.6099,-3.6687,-3.7275,-3.7863,-3.8424,-3.9012,-3.9626,-3.9947,-3.9947,-4.0294,-4.0722,-4.1256,-4.1256,-4.155,-4.2138,-4.2138,-4.2138,-4.2138,-4.2138,-4.2111,-4.2004,-4.0292,-3.9176,-3.8353,-3.8034,-3.7529,-3.7025,-3.7275,-3.7275,-3.7408,0.0,0.0,0.0,-2.1381,-2.1403,-2.1296,-2.1376,-2.1483,-2.167,-2.1937,-2.1509,-2.1035,-2.0589,-1.9138,-1.7771,-1.7127,-1.607,-1.5506,-1.5276,-1.5305,-1.5866,-1.6951,-1.8018,-1.8569,-1.8766,-1.8903,-1.8259,-1.6944,-1.7419,-1.7894,-1.8369,-1.864,-1.8749,-1.8749,-1.8749,-1.8396,-1.7717,-1.7066,-1.6415,-1.5778,-1.5004,-1.4285,0.0,0.0,0.0,0.0,0.0,0.0,0.0,0.0,0.0,0.0,0.0,0.0,0.0,0.0,0.0,0.0,0.0,0.0,0.0,0.0,0.0,0.0,0.0,0.0,0.0,0.0,0.0,0.0,0.0,0.0,0.0,0.0,0.0,0.0,0.0,0.0,0.0,-3.642,-3.658,0.0,0.0,-3.6473,-3.6714,-3.7275,-3.7702,-3.829,-3.9038,-3.9279,-3.9599,-4.0,-4.0588,-4.0882,-4.0882,-4.1336,-4.179,-4.2191,-4.2191,-4.2512,-4.3046,-4.3046,-4.3153,-4.3394,-4.3394,-4.3394,-4.3314,-4.2806,-4.1603,-4.008,-3.9599,-3.9038,-3.8504,-3.8317,-3.8263,-3.837,0.0,-2.1109,0.0,-2.1376,-2.1243,-2.1216,-2.151,-2.1643,-2.1991,-2.2766,-2.1644,-2.0621,-2.0304,-1.8685,-1.7322,-1.6536,-1.6334,-1.6157,-1.5805,-1.5181,-1.5279,-1.6549,-1.6386,-1.6892,-1.8566,-1.8592,-1.8144,-1.7568,-1.788,-1.8301,-1.8843,-1.9047,-1.9169,-1.9223,-1.9169,-1.8966,-1.8654,-1.8057,-1.7311,-1.6483,-1.594,-1.5208,-1.4394,0.0,0.0,0.0,0.0,0.0,0.0,0.0,0.0,0.0,0.0,0.0,0.0,0.0,0.0,0.0,0.0,0.0,0.0,0.0,0.0,0.0,0.0,0.0,0.0,0.0,0.0,0.0,0.0,0.0,0.0,0.0,0.0,0.0,0.0,0.0,-3.6954,-3.7355,-3.7569,-3.7702,-3.7702,-3.7782,-3.8103,-3.8798,-3.9065,-3.9045,-3.8701,-3.9726,-4.0154,-3.929,-4.0776,-4.1316,-4.0109,-4.1896,-4.2319,-4.1414,-4.2715,-4.2952,-4.208,-4.208,-4.1385,-4.0467,-4.1853,-4.2387,-4.2387,-4.2387,-4.1517,-4.0058,-4.0576,-3.9621,-3.801,-3.8913,-3.9306,-3.9149,0.0,-2.1109,-2.1136,-2.1136,-2.1136,-2.1243,-2.1537,-2.183,-2.2632,-2.4396,-2.1456,-1.992,-2.156,-1.8455,-1.6374,-1.6524,-1.6673,-1.67,-1.6537,-1.5845,-1.5357,-1.5208,-1.5221,-1.6393,-1.8793,-1.779,-1.7433,-1.788,-1.8477,-1.8843,-1.902,-1.9305,-1.9535,-1.9657,-1.9522,-1.9454,-1.94,-1.8816,-1.8138,-1.7405,-1.6646,-1.6076,-1.5588,0.0,0.0,0.0,0.0,0.0,0.0,0.0,0.0,0.0,0.0,0.0,0.0,0.0,0.0,0.0,0.0,0.0,0.0,0.0,0.0,0.0,0.0,0.0,0.0,0.0,0.0,0.0,0.0,0.0,0.0,0.0,0.0,0.0,-3.5645,-3.6687,-3.7649,-3.821,-3.8825,-3.9199,-3.9199,-3.9466,-3.9733,-4.0027,-4.008,-3.897,-3.6226,-3.9348,-3.9879,-3.7048,-4.0723,-4.0979,-3.7823,-4.1542,-4.1952,-3.8974,-4.2808,-4.2694,-3.935,-3.935,-3.7417,-3.4124,-3.7713,-3.935,-3.935,-3.935,-3.9021,-3.8747,-4.0877,-3.9402,-3.5897,-3.9151,-4.0265,-3.9857,-2.1109,-2.1296,-2.1483,-2.1697,-2.175,-2.183,-2.2124,-2.2418,-2.3033,-2.4182,-2.1501,-2.0133,-2.1595,-1.8535,-1.6497,-1.6971,-1.7039,-1.6958,-1.67,-1.6198,-1.5832,-1.5669,-1.6198,-1.6852,-1.7811,-1.7648,-1.7894,-1.8355,-1.8749,-1.9115,-1.9481,-1.978,-1.9942,-1.9983,-1.9942,-1.9807,-1.9576,-1.9305,-1.8938,-1.8477,-1.75,-1.6781,-1.6225,0.0,0.0,0.0,0.0,0.0,0.0,0.0,0.0,0.0,0.0,0.0,0.0,0.0,0.0,0.0,0.0,0.0,0.0,0.0,0.0,0.0,0.0,0.0,0.0,0.0,0.0,0.0,0.0,0.0,0.0,0.0,0.0,-3.6794,-3.6874,-3.7729,-3.8584,-3.9172,-3.9573,-3.9893,-4.0107,-4.0187,-4.0374,-4.0642,-4.0855,-4.0761,-4.0387,-3.9242,-3.9613,-4.1572,-4.0456,-4.0729,-4.2448,-4.3797,-4.4061,-4.3117,-4.4193,-4.4351,-4.3529,-4.3529,-4.3087,-4.2392,-4.3539,-4.3838,-4.3813,-4.3607,-4.0142,-3.5261,-3.5172,-3.4347,-3.3057,-3.3615,-3.3784,-3.3849,-2.1456,-2.151,-2.167,-2.2098,-2.2071,-2.2124,-2.2552,-2.2739,-2.3126,-2.353,-2.1438,-2.0095,-2.087,-1.8213,-1.6619,-1.7148,-1.7188,-1.7066,-1.6768,-1.6388,-1.6225,-1.632,-1.6809,-1.727,-1.769,-1.7989,-1.8355,-1.8816,-1.9115,-1.9468,-1.9861,-2.0078,-2.0227,-2.0282,-2.0227,-2.0105,-1.9929,-1.9644,-1.9427,-1.9196,-1.8409,-1.7717,-1.7121,-1.6605,-1.6171,-1.5778,-1.5493,-1.5262,-1.5059,-1.5004,0.0,0.0,0.0,0.0,0.0,0.0,0.0,0.0,0.0,0.0,0.0,0.0,0.0,0.0,0.0,0.0,0.0,0.0,0.0,0.0,0.0,0.0,0.0,0.0,-3.6767,-3.7889,-3.8263,-3.8771,-3.9306,-3.9893,-4.0214,-4.0048,-3.8966,-3.8745,-3.8922,-3.9326,-3.9604,-3.9447,-3.844,-3.9659,-4.0002,-3.9447,-3.922,-3.9386,-3.9926,-4.1743,-4.1818,-4.0166,-4.349,-4.3298,-4.0382,-4.0382,-3.8808,0.0,-3.9498,-4.0622,-4.0622,-4.0454,-3.7941,0.0,0.0,0.0,0.0,0.0,-3.3936,-3.4218,-2.1937,-2.1804,-2.183,-2.2418,-2.2311,-2.2311,-2.2873,-2.3006,-2.3093,-2.304,-2.1337,-2.0084,-2.019,-1.7933,-1.67,-1.7148,-1.7202,-1.7107,-1.6849,-1.6564,-1.6605,-1.7039,-1.7229,-1.7582,-1.8165,-1.8464,-1.8816,-1.925,-1.9549,-1.9861,-2.0132,-2.0282,-2.0417,-2.0539,-2.0417,-2.0349,-2.0309,-1.9902,-1.9725,-1.9685,-1.9237,-1.8708,-1.8111,-1.7541,-1.7229,-1.7053,-1.6632,-1.6293,-1.6008,-1.5886,0.0,0.0,0.0,0.0,0.0,0.0,0.0,0.0,0.0,0.0,0.0,0.0,0.0,0.0,0.0,0.0,0.0,0.0,0.0,0.0,0.0,0.0,0.0,0.0,-3.7622,-3.8691,-3.9573,-3.9786,-4.0027,-4.0561,-4.0882,-4.0017,-3.7504,-3.6766,-3.6698,-3.7211,-3.7729,-3.6475,0.0,0.0,0.0,0.0,0.0,-3.744,-3.5225,-3.7964,-3.7713,-3.442,-4.0758,-4.0214,-3.3889,-3.3889,-3.0307,-2.4496,-3.114,-3.3889,-3.3889,-3.3869,-3.3453,-3.3232,-3.5715,-3.263,-2.7258,-3.3634,-3.6031,0.0,-2.2017,-2.2124,-2.2445,-2.306,-2.3113,-2.3193,-2.3541,-2.3808,-2.4382,-2.5531,-2.2466,-2.0947,-2.2519,-1.8923,-1.67,-1.7148,-1.7311,-1.7351,-1.7297,-1.7121,-1.7175,-1.75,-1.7894,-1.8274,-1.8626,-1.8925,-1.9237,-1.9576,-1.9875,-2.0105,-2.0295,-2.0431,-2.0526,-2.0539,-2.0512,-2.0431,-2.0336,-2.0241,-2.0132,-1.9997,-1.9657,-1.9169,-1.8586,-1.8233,-1.8002,-1.784,-1.7636,-1.7365,-1.7107,-1.708,-1.6714,-1.6239,-1.613,-1.5818,0.0,0.0,0.0,0.0,0.0,0.0,0.0,0.0,0.0,0.0,0.0,0.0,0.0,0.0,0.0,0.0,0.0,0.0,0.0,-3.7141,-3.8397,-3.9573,-4.0214,-4.0909,-4.1416,-4.1523,-4.179,-4.1938,-4.1726,-3.9145,-3.7445,-3.7748,-3.8269,-3.8284,-3.778,-3.6553,0.0,-4.3011,-3.7686,-3.7708,-4.2985,-4.0558,-3.9171,-3.8534,0.0,0.0,-3.4354,-3.4354,-3.3514,-3.2411,-3.3794,-3.4354,-3.4354,-3.4152,-3.2011,-2.9054,-2.6526,-2.4477,-2.3335,-2.4676,-2.5224,-2.5771,-2.2445,-2.2418,-2.2605,-2.322,-2.3327,-2.338,-2.3514,-2.3915,-2.4271,-2.4585,-2.32,-2.2527,-2.3184,-2.0235,-1.8442,-1.8662,-1.7685,-1.7324,-1.7623,-1.75,-1.7623,-1.807,-1.8369,-1.8667,-1.8979,-1.9278,-1.9576,-1.9888,-2.0105,-2.0295,-2.0431,-2.0594,-2.0607,-2.0539,-2.0634,-2.058,-2.0431,-2.0363,-2.0282,-2.0187,-1.9983,-1.9657,-1.9278,-1.883,-1.8599,-1.8518,-1.8369,-1.8165,-1.7989,-1.7989,-1.769,-1.7283,-1.7134,-1.6836,-1.6483,0.0,0.0,0.0,0.0,0.0,0.0,0.0,0.0,0.0,0.0,0.0,0.0,0.0,0.0,-3.4362,0.0,0.0,-3.7622,-3.837,-3.9359,-4.0294,-4.1016,-4.163,-4.2004,-4.2004,-4.2405,-4.2088,-4.1045,-3.7382,-3.619,-3.8471,-3.5432,-3.453,-3.6301,-3.6924,-3.7887,-3.9726,-3.7775,-3.8556,-4.2314,-3.8578,-3.664,-3.6749,-3.482,-3.2921,-3.1363,-3.1363,-3.0262,-2.8858,-3.0524,-3.1363,-3.1363,-3.127,-2.8932,-2.5249,-2.3454,-2.2574,-2.284,-2.4482,-2.5301,-2.5855,-2.2873,-2.2659,-2.2549,-2.2802,-2.2793,-2.2678,-2.232,-2.295,-2.3451,-2.2764,-2.3492,-2.3805,-2.3386,-2.1639,-2.0328,-1.9991,-1.8541,-1.7572,-1.7772,-1.7772,-1.7962,-1.8518,-1.8708,-1.8938,-1.9196,-1.9535,-1.9834,-2.0105,-2.0282,-2.0431,-2.0539,-2.0661,-2.0661,-2.0539,-2.0661,-2.0661,-2.0539,-2.0417,-2.0363,-2.0363,-2.02,-2.0051,-1.9861,-1.9359,-1.9128,-1.9061,-1.8898,-1.8749,-1.8613,-1.8613,-1.845,-1.8192,-1.8002,-1.7785,-1.7514,-1.7093,-1.6971,0.0,0.0,0.0,0.0,0.0,0.0,0.0,0.0,-2.7686,-2.8572,-3.3694,-3.495,-3.5538,-3.6714,-3.7569,-3.8397,-3.9412,-4.0214,-4.0989,-4.1737,-4.2271,-4.2592,-4.2592,-4.2993,-4.243,-4.0029,-3.5736,-3.4532,-3.8259,-3.2384,-3.0279,-3.3934,-3.723,-3.7809,-3.5325,-3.7543,-3.8556,-3.8328,-3.4379,-3.2725,-3.2764,-3.1954,-3.0047,-2.7305,-2.7353,-2.5697,-2.3197,-2.601,-2.7418,-2.7418,-2.7418,-2.5475,-2.2954,-2.2954,-2.2954,-2.3224,-2.6136,-2.7207,-2.7486,-2.2873,-2.2846,-2.2349,-2.1096,-2.0912,-2.0434,-1.8613,-2.0161,-2.1722,-2.2341,-2.2681,-2.3481,-2.4583,-2.2971,-2.115,-1.9593,-1.9589,-1.9153,-1.7623,-1.7894,-1.8192,-1.8518,-1.8816,-1.9047,-1.9196,-1.963,-1.9929,-2.0105,-2.0376,-2.0526,-2.0539,-2.0553,-2.0553,-2.0539,-2.0553,-2.0553,-2.0539,-2.0526,-2.0526,-2.0512,-2.0363,-2.02,-2.0051,-1.9861,-1.9603,-1.9359,-1.9196,-1.9061,-1.8938,-1.8938,-1.883,-1.864,-1.8355,-1.8247,-1.8165,-1.7826,-1.7745,-1.7745,-1.7717,-1.7745,-1.7978,-1.8184,-2.1849,-2.5742,0.0,-3.0987,-3.4606,-3.5805,-3.6313,-3.6767,-3.6901,-3.8076,-3.9118,-3.9519,-4.0722,-4.1737,-4.2111,-4.3127,-4.3821,-4.3821,-4.3848,-4.3877,-4.4167,-3.7873,-3.3849,-3.4646,-3.0804,-3.0333,-3.4155,-3.5221,-3.665,-3.9223,-3.6694,-3.4893,-3.4667,-3.0881,-2.8932,-2.8841,-2.5773,-2.4189,-2.3744,-2.3883,-2.3664,-2.3375,-2.3815,-2.4161,-2.4161,-2.4161,-2.3856,-2.3578,-2.3578,-2.3578,-2.351,-2.3536,-2.3327,-2.3327,-2.1446,-2.1308,-2.0364,-1.7511,-1.8964,-2.0025,-1.7898,-1.8685,-2.0236,-2.2107,-2.2717,-2.3794,-2.5999,-2.4615,-2.2384,-1.9405,-1.961,-1.9345,-1.7923,-1.8057,-1.8355,-1.8654,-1.8952,-1.9183,-1.9318,-1.9698,-1.9997,-2.0241,-2.0363,-2.0458,-2.0539,-2.0634,-2.0634,-2.0539,-2.0634,-2.0634,-2.0539,-2.0539,-2.0539,-2.0539,-2.0471,-2.0309,-2.0105,-2.0037,-1.982,-1.9549,-1.9481,-1.9427,0.0,-1.9373,-1.9223,-1.8993,-1.8776,-1.8586,-1.8396,-1.8097,-1.8111,-1.8287,-1.8464,-1.8314,-1.8192,-1.8464,-2.0184,-2.2984,-2.6867,-2.9661,-3.2431,-3.6341,-3.7275,-3.7595,-3.813,-3.8878,-3.9733,0.0,-4.1523,-4.2325,-4.3127,-4.3688,-4.4195,-4.4703,-4.4756,-4.4863,-4.5104,-3.8442,-3.4944,-3.7399,-2.9982,-2.7253,-3.1012,-3.1351,-3.2186,-3.3371,-3.3814,-3.4233,-3.3874,-3.0172,-2.8611,-2.863,-2.4962,-2.3347,-2.3483,-2.3551,-2.3592,-2.3592,-2.3646,-2.3687,-2.3687,-2.3687,-2.3687,-2.3687,-2.3687,-2.3687,-2.3646,-2.3402,-2.3307,-2.3307,-1.9785,-1.9785,-1.8927,-1.5132,-1.7038,-1.8414,-1.6318,-1.6727,-1.834,-2.1029,-2.2117,-2.3913,-2.6852,-2.6067,-2.3831,-1.9976,-2.0242,-1.9979,-1.7841,-1.8043,-1.8409,-1.8749,-1.9006,-1.9223,-1.9359,-1.9657,-1.9942,-2.02,-2.0295,-2.0376,-2.0485,-2.0634,-2.0648,-2.0539,-2.0661,-2.0634,-2.0485,-2.0485,-2.0458,-2.0417,-2.0417,-2.0254,-2.0037,-2.0037,-1.9888,-1.9657,-1.9603,-1.959,-1.959,-1.9508,-1.9373,-1.9223,-1.8993,-1.883,-1.8667,-1.8409,-1.8491,-1.8708,-1.8938,-1.8776,-1.8654,-1.902,-1.9641,-2.1356,-2.5997,-2.8328,-3.0857,-3.5459,-3.7233,-3.8263,-3.8905,-3.9546,-4.0321,-4.1497,-4.2191,-4.2913,-4.3848,-4.4222,-4.4596,-4.5237,-4.5398,-4.5398,-4.5318,-3.9451,-3.6479,-3.8411,-3.007,-2.5897,-2.8798,-2.9135,-2.9067,-2.8597,-3.136,-3.2168,-3.0968,-2.8513,-2.7269,-2.7523,-2.4949,-2.3578,-2.3687,-2.3714,-2.3768,-2.3809,-2.3809,-2.3809,-2.3809,-2.3809,-2.3809,-2.3809,-2.3809,-2.3809,-2.3809,-2.3754,-2.3714,-2.3687,-1.8089,-1.8787,-1.8927,-1.5132,-1.4728,-1.4343,-1.2283,-1.3707,-1.5789,-1.807,-2.0407,-2.3047,-2.6507,-2.7121,-2.5731,-2.168,-2.2202,-2.12,-1.736,-1.7772,-1.8301,-1.8749,-1.8925,-1.9061,-1.9196,-1.9508,-1.9739,-1.9888,-2.0187,-2.0336,-2.0349,-2.0485,-2.0539,-2.0539,-2.0539,-2.0471,-2.0336,-2.0336,-2.0241,-2.0119,-2.0119,-2.001,-1.9875,-1.9875,-1.978,-1.9644,-1.9481,-1.9427,-1.94,-1.9115,-1.9196,-1.9345,-1.8898,-1.8952,-1.9156,-1.9006,-1.8979,-1.8979,-1.8993,-1.9074,-1.9223,-1.9373,-2.1541,-2.3892,-2.4146,-2.8672,-3.2919,-3.3172,-3.6167,-3.8691,-3.8718,-3.9893,-4.0989,-4.131,-4.2539,-4.3607,-4.3955,-4.473,-4.5264,-4.5318,-4.5558,-4.5638,0.0,-4.167,-3.8163,-3.5016,-3.065,-2.8396,-2.8864,-2.905,-2.905,-2.8864,-2.949,-2.7587,-2.3719,-2.387,-2.3966,-2.3966,-2.366,-2.3687,-2.3687,-2.3822,-2.3958,-2.4107,-2.4107,-2.4107,-2.4107,-2.4107,-2.4107,-2.4107,-2.4107,-2.4107,-2.408,-2.3944,-2.3809,-2.3687,-1.7633,-1.6901,-1.5758,-1.3184,-1.2941,-1.2777,-1.2141,-1.27,-1.4501,-1.797,-2.1684,0.0,0.0,0.0,0.0,0.0,-2.231,-2.1022,-1.7332,-1.7568,-1.8097,-1.8721,-1.8816,-1.8952,-1.9196,-1.94,-1.959,-1.9739,-2.0037,-2.0227,-2.0336,-2.0471,-2.0539,-2.0539,-2.0431,-2.0376,-2.0336,-2.0227,-2.0159,-2.0105,-2.0105,-2.001,-1.9888,-1.9983,-1.9752,-1.9359,0.0,-1.9427,-1.94,-1.9196,-1.9128,-1.9115,-1.8952,-1.8925,-1.8938,-1.9074,-1.9196,-1.9318,-1.9522,-1.9603,-1.9712,-1.9956,-2.0767,-2.2219,-2.4155,-2.6304,-2.8376,-3.0398,-3.3724,-3.6209,-3.6621,-3.9254,-4.163,-4.2138,-4.3127,-4.3216,-4.12,-4.3349,-4.3436,-3.8853,-4.0442,0.0,0.0,0.0,0.0,-3.8389,-3.2168,-2.8898,-2.9219,-2.7008,-2.5588,-2.5529,-2.5647,-2.5093,-2.3605,-2.366,-2.3727,-2.3822,-2.4039,-2.4121,-2.4121,-2.4284,-2.4365,-2.4419,-2.4419,-2.4419,-2.4419,-2.4419,-2.4419,-2.4419,-2.4419,-2.4351,-2.4256,-2.4202,-2.4107,-2.3944,-1.5958,-1.5207,-1.4163,-1.2206,-1.2047,0.0,0.0,0.0,0.0,0.0,0.0,0.0,0.0,0.0,0.0,0.0,0.0,-2.1229,-1.8159,-1.76,-1.7717,-1.8409,-1.8491,-1.8654,-1.8952,-1.9115,-1.9278,-1.9413,-1.9766,-1.9997,-2.0105,-2.0295,-2.0376,-2.0376,-2.0295,-2.0227,-2.0159,-2.0064,-2.0051,-2.0078,-1.9929,-1.9875,-1.9875,-1.9807,-1.9508,0.0,-1.9183,-1.9156,-1.9074,-1.8938,-1.8898,-1.8884,-1.8776,-1.883,-1.8952,-1.9156,-1.9345,-1.959,-1.9942,-2.0037,-2.0119,-2.0485,-2.0526,-2.0978,-2.2984,-2.4381,-2.5725,-2.7557,-3.1799,-3.5145,-3.545,-3.8922,-4.2004,-4.2699,-4.3688,-4.3636,-4.1621,-4.3607,-4.3813,-3.8831,-3.9176,-3.8693,0.0,0.0,0.0,-3.6029,-3.2634,-2.9415,-2.7298,-2.5035,-2.3632,-2.3687,-2.3727,-2.3754,-2.3754,-2.3809,-2.3904,-2.4053,-2.4256,-2.4379,-2.4419,-2.4528,-2.4568,-2.4568,-2.4568,-2.4568,-2.4568,-2.4568,-2.4568,-2.4568,-2.4568,-2.4473,-2.4351,-2.4297,-2.4175,-2.4012,-1.3217,-1.3793,-1.4334,0.0,0.0,0.0,0.0,0.0,0.0,0.0,0.0,0.0,0.0,0.0,0.0,0.0,0.0,0.0,-1.9527,-1.7822,-1.7202,-1.7812,-1.7989,-1.8192,-1.8491,-1.8654,-1.8816,-1.8938,-1.94,-1.963,-1.963,-1.9929,-2.0064,-2.0064,-2.0064,-1.9983,-1.9834,-1.982,-1.9888,-1.9983,-1.9549,-1.9549,-1.9766,-1.9345,-1.9101,-1.8938,-1.8816,-1.8654,-1.8477,-1.8369,-1.8531,-1.8749,-1.8464,-1.8762,-1.9223,-1.9223,-1.9454,-1.9807,-2.0227,-2.0363,-2.0471,-2.0906,-2.0919,-2.0824,-2.0824,-2.3106,-2.5081,-2.5064,-3.0496,-3.5239,-3.5474,-3.8947,-4.2111,-4.2993,-4.4115,-4.497,-4.5019,-4.5285,-4.5338,0.0,0.0,-3.8961,0.0,0.0,0.0,-2.8577,0.0,-3.0542,-2.4298,-2.3746,-2.3537,-2.3687,-2.3822,-2.3904,-2.3904,-2.4053,-2.4202,-2.4365,-2.4365,-2.4433,-2.4582,-2.4582,-2.4582,-2.4582,-2.4582,-2.4582,-2.4582,-2.4582,-2.4582,-2.4582,-2.4582,-2.4487,-2.4351,-2.4189,-2.4053,-2.3931,0.0,0.0,0.0,0.0,0.0,0.0,0.0,0.0,0.0,0.0,0.0,0.0,0.0,0.0,0.0,0.0,0.0,0.0,-1.9321,-1.7466,-1.6673,-1.75,-1.7568,-1.7785,-1.8192,-1.8355,-1.8396,-1.8314,-1.8884,-1.9101,-1.9006,-1.9413,-1.9603,-1.959,-1.9481,-1.9413,-1.9359,-1.9128,-1.9006,-1.8925,-1.8816,-1.8816,-1.8884,-1.9006,-1.8816,-1.8531,-1.883,-1.8545,-1.8097,-1.8518,-1.8843,-1.9074,-1.9006,-1.9237,-1.9535,-1.9535,-1.9902,-2.0349,-2.0458,-2.0729,-2.1041,-2.1258,-2.1394,-2.1448,-2.1448,-2.4238,-2.6379,-2.5956,-3.1311,-3.6202,-3.6085,-3.9503,-4.2646,-4.3314,-4.4222,-4.4134,-4.1372,-4.3684,-4.3163,-3.7499,-3.5902,-3.4063,-3.1268,-3.0198,0.0,0.0,-2.7913,-3.0602,-3.2199,-2.6903,-2.3809,-2.3836,-2.3985,-2.4066,-2.4066,-2.4202,-2.4365,-2.4514,-2.4636,-2.4704,-2.4745,-2.484,-2.4894,-2.4894,-2.4894,-2.4894,-2.4894,-2.4894,-2.4894,-2.4894,-2.4894,-2.4745,-2.4514,-2.446,-2.4284,-2.4066,0.0,0.0,0.0,0.0,0.0,0.0,0.0,0.0,0.0,0.0,0.0,0.0,0.0,0.0,0.0,0.0,0.0,0.0,0.0,-1.7512,-1.613,-1.6904,-1.6998,-1.7202,-1.7595,-1.7758,-1.7785,-1.7704,-1.8165,-1.8396,-1.8369,-1.8694,-1.8884,-1.8938,-1.8776,-1.8708,-1.8694,-1.8464,-1.8396,0.0,0.0,-1.8314,-1.8437,-1.8477,-1.8301,-1.8057,-1.8314,-1.8247,-1.8124,-1.8599,-1.8871,-1.902,-1.9169,-1.9413,-1.9698,-1.9888,-2.0227,-2.058,-2.0783,-2.1068,-2.1353,-2.1516,-2.1652,-2.1747,-2.1692,-2.3199,-2.4858,-2.5935,-3.0496,-3.4899,-3.6414,-3.9907,-4.31,-4.3821,-4.4703,-4.4475,-4.2666,-4.4112,-4.3761,-3.9451,-3.7277,-3.5478,-3.3257,-3.1695,-3.0226,0.0,-2.8296,-2.9067,-3.0104,-2.6162,-2.3931,-2.3999,-2.4134,-2.4243,-2.4311,-2.4406,-2.4514,-2.4663,-2.4758,-2.4826,-2.4894,-2.4989,-2.5016,-2.5016,0.0,-2.5016,-2.5016,-2.5016,-2.5016,-2.5016,-2.5016,-2.4826,-2.4568,-2.4568,-2.4365,-2.4121,0.0,0.0,0.0,0.0,0.0,0.0,0.0,0.0,0.0,-1.8659,-2.1534,-2.4124,-2.6626,-2.7383,0.0,0.0,0.0,0.0,0.0,0.0,-1.5628,-1.6198,-1.6361,-1.6578,-1.689,-1.7026,-1.7093,-1.708,-1.7378,-1.7568,-1.7663,-1.7867,-1.8016,-1.8138,-1.8016,-1.7962,-1.7962,-1.7812,-1.788,-1.8084,-1.7826,-1.788,-1.8084,0.0,-1.7704,-1.7595,-1.765,-1.7948,-1.8342,-1.8654,-1.8816,-1.8925,-1.9183,-1.9481,-1.9834,-2.0241,-2.0471,-2.0702,-2.1109,-2.134,-2.1516,-2.1652,-2.1815,-2.1882,-2.176,-2.1878,-2.298,-2.5968,-2.9418,-3.3017,-3.6855,-4.0595,-4.3314,-4.4302,-4.5104,-4.5665,-4.5745,-4.5718,-4.5311,-4.4528,-4.1176,-3.8578,-3.8054,-3.5498,-3.3514,-3.3186,-3.0389,-2.7476,-2.4734,-2.4213,-2.4012,-2.4175,-2.4311,-2.4433,-2.4596,-2.4596,-2.4663,-2.4826,-2.4826,-2.4894,-2.5016,-2.5016,-2.5016,-2.5016,0.0,0.0,-2.5016,-2.5016,-2.5016,-2.5016,-2.5016,-2.4826,-2.4568,-2.4568,-2.4365,-2.4121,0.0,0.0,0.0,0.0,0.0,0.0,0.0,0.0,0.0,0.0,-1.9551,-2.1871,0.0,0.0,0.0,0.0,0.0,0.0,0.0,0.0,0.0,-1.5737,-1.5886,-1.6117,-1.6415,-1.6564,-1.6578,-1.6469,-1.6768,-1.6795,-1.6592,-1.6985,-1.7188,-1.7216,-1.7311,-1.7351,-1.7338,-1.7188,-1.7093,-1.7012,-1.6958,-1.6971,-1.7039,-1.7229,-1.7297,0.0,-1.769,-1.7948,-1.8192,-1.8626,-1.9101,-1.9522,-1.9576,-1.9875,-2.0254,-2.0458,-2.0702,-2.096,-2.1163,-2.1421,-2.1665,-2.1815,-2.195,-2.2059,-2.2045,-2.4315,-2.6953,-2.9799,-3.3081,-3.6571,-4.0181,-4.158,-4.2833,-4.4222,-4.4756,-4.5211,-4.5665,-4.5531,-4.4255,-4.1147,-3.7178,-3.3894,-3.0723,-3.0354,-2.8898,0.0,0.0,0.0,-2.8523,-2.5895,-2.4338,-2.4473,-2.4514,-2.4596,-2.4758,-2.4758,-2.4826,-2.4989,-2.4989,-2.5003,-2.5016,-2.5016,-2.5016,-2.5016,0.0,0.0,-2.5016,-2.5016,-2.5016,-2.5016,-2.5016,-2.4826,-2.4568,-2.4568,-2.4365,-2.4121,0.0,0.0,0.0,0.0,0.0,0.0,0.0,-1.3702,-1.4291,-1.598,-1.8059,-2.0656,-2.3847,-2.5471,-2.5763,0.0,0.0,0.0,0.0,0.0,0.0,-1.5506,-1.5588,-1.5764,-1.6062,-1.6062,-1.6062,-1.6076,0.0,-1.6144,-1.6076,-1.6293,-1.6442,-1.651,-1.6497,-1.6537,-1.6605,-1.6456,-1.6402,-1.6415,-1.6483,-1.6524,-1.6537,-1.6768,-1.689,0.0,-1.7568,-1.784,-1.8057,-1.8586,-1.9169,-1.9685,-1.9752,-2.0078,-2.0485,-2.0716,-2.0933,-2.1136,-2.1285,-2.1543,-2.1801,-2.1869,-2.2004,-2.2072,-2.1923,-2.3091,-2.4936,-2.7737,-3.1159,-3.4764,-3.8424,-4.1126,-4.2939,-4.3821,-4.4623,-4.5211,-4.5505,-4.5531,-4.4959,-4.3016,-4.1317,-3.8621,-3.494,-3.4759,-3.2716,-2.7366,0.0,0.0,0.0,-2.5227,-2.4528,-2.4663,-2.4691,-2.4758,-2.4921,-2.4921,-2.4948,-2.5016,-2.5016,-2.5016,-2.5016,-2.5016,-2.5016,-2.5016,0.0,0.0,-2.5016,-2.5016,-2.5016,-2.5016,-2.5016,-2.4826,-2.4568,-2.4568,-2.4365,-2.4121,0.0,0.0,0.0,0.0,0.0,0.0,0.0,-1.4163,-1.4434,-1.5316,-1.7124,-1.9445,-2.2733,-2.3764,-2.3872,0.0,0.0,0.0,0.0,0.0,0.0,0.0,-1.5316,-1.5452,-1.575,0.0,0.0,-1.5764,-1.5642,0.0,0.0,0.0,0.0,0.0,-1.5845,-1.5886,-1.6022,-1.59,-1.594,0.0,0.0,-1.6266,-1.6279,0.0,0.0,0.0,0.0,-1.7758,-1.8002,-1.8572,-1.9115,-1.959,-1.9766,-2.0159,-2.0594,-2.0906,-2.1068,-2.1218,-2.1421,-2.1692,-2.1882,-2.1923,-2.2018,-2.2045,-2.1747,-2.153,-2.231,-2.5173,-2.8664,-3.2069,-3.5701,-3.9806,-4.2993,-4.3527,-4.4463,-4.5157,-4.5318,-4.5558,-4.517,-4.3417,-4.407,-4.2563,-3.7146,-3.8364,-3.655,-3.0019,0.0,0.0,0.0,-2.4541,-2.4691,-2.484,-2.484,-2.4894,-2.5016,-2.5016,-2.5016,-2.5016,-2.5016,-2.5016,-2.5016,-2.5016,-2.5016,-2.5016,0.0,0.0,0.0,-2.5016,-2.5016,-2.5016,-2.5016,-2.484,-2.4623,-2.4582,-2.4406,-2.4175,0.0,0.0,0.0,0.0,0.0,0.0,0.0,-1.4896,-1.533,-1.6103,-1.6398,-1.7137,-1.9108,-2.0922,-2.1263,0.0,0.0,0.0,0.0,0.0,0.0,0.0,0.0,0.0,0.0,0.0,0.0,-1.5452,-1.5438,0.0,0.0,0.0,0.0,0.0,0.0,-1.5737,-1.5872,-1.5859,0.0,0.0,0.0,0.0,0.0,0.0,0.0,0.0,0.0,-1.7826,-1.8138,-1.8599,-1.8979,-1.9291,-1.959,-2.0078,-2.0594,-2.0906,-2.1014,-2.1109,-2.153,-2.176,-2.1923,-2.2059,-2.2099,-2.2045,-2.1747,-2.1448,-2.2181,-2.514,-2.8188,-3.1693,-3.5654,-3.9326,-4.2378,-4.3741,-4.4249,-4.4703,-4.5237,-4.5558,-4.3117,-3.5881,-3.8757,-3.6864,-2.6229,-3.1862,-3.4368,0.0,0.0,0.0,0.0,-2.4758,-2.484,-2.5003,-2.5003,-2.5003,-2.5016,-2.5016,-2.5016,-2.5016,-2.5016,-2.5016,-2.5016,-2.5016,-2.5016,-2.5016,0.0,0.0,0.0,-2.5016,-2.5016,-2.5016,-2.5016,-2.4921,-2.4758,-2.4623,-2.446,-2.4311,0.0,0.0,0.0,0.0,0.0,0.0,-1.4746,-1.5045,-1.552,-1.6456,-1.6659,-1.6918,-1.7181,-1.7874,-1.8322,-1.7948,0.0,0.0,0.0,0.0,0.0,0.0,0.0,0.0,0.0,0.0,-1.5357,-1.5547,-1.5452,0.0,0.0,0.0,0.0,0.0,0.0,-1.5669,-1.5723,-1.5723,0.0,0.0,0.0,0.0,0.0,0.0,0.0,0.0,0.0,0.0,-1.8016,-1.8477,-1.8884,-1.925,-1.9576,-2.001,-2.0471,-2.077,-2.1055,-2.1313,-2.1597,-2.1842,-2.2059,-2.2221,-2.2181,-2.2045,-2.1747,-2.1435,-2.1356,-2.2478,-2.6841,-3.107,-3.2483,-3.7775,-4.2031,-4.2806,-4.3634,-4.4329,-4.473,-4.5505,-4.3923,-3.8298,-3.9706,-3.727,-2.8134,-2.9951,-3.0467,0.0,0.0,0.0,0.0,0.0,-2.4948,-2.5016,-2.5016,-2.5016,-2.5016,-2.5016,-2.5016,-2.5016,-2.5016,-2.5016,-2.5016,-2.5016,-2.5016,-2.5016,0.0,0.0,0.0,-2.5016,-2.5016,-2.5016,-2.5016,-2.4935,-2.4772,-2.4623,-2.4473,-2.4338,0.0,0.0,0.0,0.0,0.0,-1.3987,-1.4841,-1.5208,-1.571,-1.6632,-1.689,-1.6822,-1.6415,-1.6117,-1.6208,-1.7024,-1.697,0.0,0.0,0.0,0.0,0.0,0.0,0.0,0.0,0.0,-1.533,-1.5506,-1.5493,-1.5479,0.0,0.0,-1.552,-1.533,0.0,0.0,0.0,0.0,0.0,0.0,0.0,0.0,0.0,0.0,0.0,0.0,0.0,0.0,0.0,0.0,0.0,-1.9115,-1.9373,-1.9807,-2.0295,-2.077,-2.1123,-2.1462,-2.1828,-2.2059,-2.2235,-2.2425,-2.2316,-2.2099,-2.1747,-2.1435,-2.1082,-2.0634,-2.503,-2.9268,-3.0264,-3.5788,-4.0258,-4.0722,-4.1701,-4.2499,-4.286,-4.2965,-4.213,-4.0243,-3.9836,-3.7097,-3.0363,-2.9828,0.0,0.0,0.0,0.0,0.0,0.0,-2.5016,-2.5016,-2.5016,-2.5016,-2.5016,-2.5016,-2.5016,-2.5016,-2.5016,-2.5016,-2.5016,-2.5016,-2.5016,0.0,0.0,0.0,0.0,-2.5043,-2.5043,-2.507,-2.5043,-2.4948,-2.484,-2.4691,-2.4541,-2.4392,0.0,0.0,0.0,0.0,0.0,0.0,-1.4855,-1.5466,-1.6062,-1.6673,-1.689,-1.6863,-1.6551,-1.5995,-1.5574,-1.5411,-1.4991,0.0,0.0,0.0,0.0,0.0,0.0,0.0,0.0,0.0,-1.533,-1.5194,-1.5493,-1.5642,-1.5642,-1.5642,-1.5642,-1.5628,0.0,0.0,0.0,0.0,0.0,0.0,0.0,0.0,-1.613,0.0,0.0,0.0,0.0,0.0,0.0,0.0,0.0,0.0,0.0,-1.94,-2.0051,-2.0946,-2.1218,-2.1408,-2.2303,-2.2452,-2.2411,-2.271,-2.2547,-2.2221,-2.1774,-2.1435,-2.1082,-2.0634,-2.3298,-2.6537,-2.9786,-3.3882,-3.6736,-3.7306,-3.8081,-3.8739,-3.9551,-3.6908,-3.6256,-4.0198,-3.7922,-3.4288,-3.0587,-3.0149,0.0,0.0,0.0,0.0,0.0,0.0,-2.5016,-2.5016,-2.5016,-2.5016,-2.5016,-2.5016,-2.5016,-2.5016,-2.5016,-2.5016,-2.5016,-2.5016,0.0,0.0,0.0,0.0,0.0,-2.507,-2.5111,-2.522,-2.507,-2.5016,-2.5003,-2.484,-2.4691,-2.4541,0.0,0.0,0.0,0.0,0.0,0.0,0.0,-1.5018,-1.5615,-1.6212,-1.651,-1.6632,-1.6537,-1.6076,-1.5723,-1.5574,-1.5153,0.0,0.0,0.0,0.0,0.0,0.0,0.0,0.0,0.0,-1.5384,-1.5343,-1.575,-1.5832,-1.5642,-1.5954,-1.5872,-1.5493,-1.5805,-1.5913,0.0,0.0,0.0,0.0,0.0,-1.6103,-1.6415,0.0,0.0,0.0,0.0,0.0,0.0,0.0,0.0,0.0,0.0,0.0,0.0,-2.0702,-2.1123,-2.1462,-2.1842,-2.2059,-2.2194,-2.2303,-2.2181,-2.1964,-2.172,-2.1435,-2.1109,-2.077,-2.3375,-2.652,-2.9786,-3.3632,-3.7517,-4.0442,-4.1389,-4.131,-3.9741,-3.899,-3.8298,-3.6729,-3.3827,-3.0395,-2.6624,0.0,0.0,0.0,0.0,0.0,0.0,0.0,-2.5016,-2.5016,-2.5016,-2.5016,-2.5016,-2.5016,-2.5016,-2.5016,-2.5016,-2.5016,-2.5016,-2.5016,0.0,0.0,0.0,0.0,0.0,-2.5043,-2.5057,-2.5084,-2.5043,-2.5016,-2.5016,-2.4962,-2.4921,-2.4867,0.0,0.0,0.0,0.0,0.0,0.0,0.0,-1.4638,-1.5194,-1.5683,-1.6008,-1.6225,-1.6347,-1.5954,-1.5696,-1.5723,-1.5357,0.0,0.0,0.0,0.0,0.0,0.0,0.0,0.0,-1.5235,-1.552,-1.5574,-1.6022,-1.6212,-1.6144,-1.6374,-1.6239,-1.5845,-1.6062,-1.609,0.0,0.0,0.0,0.0,-1.5886,-1.6144,-1.6469,0.0,0.0,0.0,0.0,0.0,0.0,0.0,0.0,0.0,0.0,0.0,0.0,0.0,-2.0838,-2.1285,-2.172,-2.1937,-2.2059,-2.2167,-2.2072,-2.1896,-2.1638,-2.1394,-2.1109,-2.0756,-2.236,-2.4527,-2.8039,-3.0816,-3.382,-3.7888,-3.9008,-3.9472,-3.9421,-3.7487,-3.49,-3.1408,-3.0518,-2.8696,0.0,0.0,0.0,0.0,0.0,0.0,0.0,0.0,-2.5016,-2.5016,-2.5016,-2.5016,-2.5016,-2.5016,-2.5016,-2.5016,-2.5016,-2.5016,-2.5016,0.0,0.0,0.0,0.0,0.0,0.0,-2.5043,-2.5057,-2.5111,-2.5111,-2.5111,-2.5111,-2.5165,-2.5138,-2.5111,0.0,0.0,0.0,0.0,0.0,0.0,0.0,-1.434,-1.4814,-1.5113,-1.5411,-1.571,-1.6008,-1.5655,-1.5506,-1.5791,0.0,0.0,0.0,0.0,0.0,0.0,0.0,0.0,0.0,-1.533,-1.571,-1.5859,-1.632,-1.67,-1.6958,-1.6849,-1.67,-1.651,-1.6388,-1.6225,0.0,0.0,0.0,0.0,-1.6022,-1.6185,0.0,0.0,0.0,0.0,0.0,0.0,0.0,0.0,0.0,0.0,0.0,0.0,0.0,0.0,0.0,0.0,0.0,-2.1923,-2.1896,-2.2181,-2.214,-2.1923,-2.1516,-2.1285,0.0,-2.0648,-2.0539,-2.1555,-2.4795,-2.5719,-2.7285,-3.1228,-3.2231,-3.3927,-3.8122,-3.2857,-2.7539,-2.5128,-2.8179,-2.8921,0.0,0.0,0.0,0.0,0.0,0.0,0.0,0.0,0.0,-2.5016,-2.5016,-2.5016,-2.5016,-2.5016,-2.5016,-2.5016,-2.5016,-2.5016,-2.5016,0.0,0.0,0.0,0.0,0.0,0.0,-2.507,-2.5111,-2.5233,-2.5233,-2.5233,-2.526,-2.5423,-2.5396,-2.526,0.0,0.0,0.0,0.0,0.0,0.0,0.0,0.0,0.0,0.0,-1.5099,-1.5357,-1.5547,-1.5371,-1.5316,0.0,0.0,0.0,0.0,0.0,0.0,0.0,0.0,0.0,0.0,-1.533,-1.571,-1.5859,-1.6537,-1.6849,-1.6809,-1.7121,-1.6998,-1.6524,-1.6483,-1.6266,0.0,0.0,0.0,0.0,-1.6022,-1.6239,0.0,0.0,0.0,0.0,-1.7392,-1.765,0.0,0.0,0.0,0.0,0.0,0.0,0.0,0.0,-2.0241,-2.0648,-2.0865,0.0,-2.1353,-2.1313,-2.1285,-2.1231,0.0,-2.0987,-2.0838,-2.0743,-2.0634,-2.1569,-2.4976,-2.5922,-2.7497,-3.1467,-3.2615,-3.272,-3.1215,-3.021,-2.9058,-2.8535,-2.9589,-2.897,0.0,0.0,0.0,0.0,0.0,0.0,0.0,0.0,0.0,-2.5016,-2.5016,-2.5016,-2.5016,-2.5016,-2.5016,-2.5016,-2.5016,-2.5016,-2.5016,0.0,0.0,0.0,0.0,0.0,-2.507,-2.5043,-2.5111,-2.5233,-2.5233,-2.5301,-2.5423,-2.5586,-2.5627,-2.5599,0.0,0.0,0.0,0.0,0.0,0.0,0.0,0.0,0.0,0.0,0.0,-1.514,-1.5289,-1.5235,0.0,0.0,0.0,0.0,0.0,0.0,0.0,0.0,0.0,0.0,-1.4733,-1.533,-1.5805,-1.6157,-1.6714,-1.7107,-1.7365,-1.7473,-1.7311,-1.6917,-1.6578,-1.6252,0.0,0.0,0.0,-1.5967,-1.6049,0.0,0.0,0.0,0.0,0.0,-1.7541,-1.7812,0.0,-1.8491,-1.8721,-1.8938,0.0,0.0,0.0,0.0,-2.0051,-2.0349,-2.0349,-2.077,-2.119,-2.1123,-2.1163,-2.1177,-2.1109,-2.0987,-2.0865,-2.0783,-2.0648,-2.1089,-2.3018,-2.376,-2.5111,-2.9335,-3.0481,-3.0366,-2.8983,-2.9591,-2.9111,-2.7458,-2.7374,-2.7011,0.0,0.0,0.0,0.0,0.0,0.0,0.0,0.0,0.0,0.0,-2.5016,-2.5016,-2.5016,-2.5016,-2.5016,-2.5016,-2.5016,-2.5057,-2.5125,0.0,0.0,0.0,0.0,0.0,-2.522,-2.5138,-2.5192,-2.5342,-2.541,-2.5491,-2.5586,-2.5722,-2.5803,-2.5803,0.0,0.0,0.0,0.0,0.0,0.0,0.0,0.0,0.0,0.0,0.0,0.0,0.0,0.0,0.0,0.0,0.0,0.0,0.0,0.0,0.0,0.0,0.0,-1.4733,-1.4801,-1.533,-1.59,-1.6524,-1.6876,-1.7392,-1.8057,-1.7867,-1.765,-1.7392,-1.6686,-1.6279,0.0,0.0,-1.6076,-1.6076,-1.6076,0.0,0.0,0.0,0.0,0.0,0.0,0.0,0.0,-1.8816,-1.8993,-1.9101,-1.9508,0.0,0.0,0.0,0.0,0.0,-2.0159,-2.0716,-2.1245,-2.1136,-2.1231,-2.1299,-2.1136,-2.1014,-2.0892,-2.077,-2.0648,-2.0634,-2.0838,-2.1095,-2.248,-2.5915,-2.6978,-2.7667,-2.92,-2.9045,-2.8116,-2.5513,-2.49,0.0,0.0,0.0,0.0,0.0,0.0,0.0,0.0,0.0,0.0,0.0,-2.5016,-2.5016,-2.5016,-2.5016,-2.5016,-2.5016,-2.5043,-2.5111,-2.5233,-2.5247,0.0,0.0,0.0,0.0,-2.545,-2.5315,-2.5355,-2.5518,-2.564,-2.5708,-2.5749,-2.5844,-2.5898,-2.5898,0.0,0.0,0.0,0.0,0.0,0.0,0.0,0.0,0.0,0.0,0.0,0.0,0.0,0.0,0.0,0.0,0.0,0.0,0.0,0.0,0.0,0.0,0.0,0.0,-1.5113,-1.533,-1.5805,-1.6524,-1.708,-1.7541,-1.7894,-1.8233,-1.8057,-1.7405,-1.6904,-1.6524,-1.6266,-1.613,-1.6076,-1.6076,-1.6076,0.0,0.0,0.0,0.0,0.0,0.0,0.0,0.0,-1.8694,-1.8952,-1.9196,-1.94,0.0,0.0,0.0,0.0,0.0,-2.0431,-2.1014,-2.1448,-2.0811,-2.0756,-2.0838,-2.0689,-2.0634,-2.0607,-2.058,-2.0661,-2.0865,-2.1258,-2.1475,-2.2057,-2.3172,-2.3651,-2.519,-2.8611,-2.6672,-2.5807,-2.8744,0.0,0.0,0.0,0.0,0.0,0.0,0.0,0.0,0.0,0.0,0.0,0.0,0.0,-2.5016,-2.5016,-2.5016,-2.5016,-2.5016,-2.5138,-2.522,-2.5233,-2.5369,-2.545,0.0,0.0,-2.545,-2.5464,-2.545,-2.5518,-2.5654,-2.5667,-2.5762,-2.5871,-2.5898,-2.5898,-2.5871,0.0,0.0,0.0,0.0,0.0,0.0,0.0,0.0,0.0,0.0,0.0,0.0,0.0,0.0,0.0,0.0,0.0,0.0,0.0,0.0,0.0,0.0,0.0,0.0,0.0,-1.5655,-1.6225,-1.6876,-1.7568,-1.8138,-1.8586,-1.8477,-1.8111,-1.7514,-1.6985,-1.6592,-1.6307,-1.6239,-1.6198,-1.6198,0.0,0.0,0.0,0.0,0.0,0.0,0.0,0.0,0.0,0.0,-1.902,-1.9237,-1.9373,0.0,0.0,0.0,0.0,0.0,-2.0512,-2.096,-2.1353,-2.1082,-2.1313,-2.1597,-2.153,-2.1516,-2.1516,-2.1516,-2.1435,-2.1475,-2.1869,-2.1991,-2.2289,-2.3049,-2.3334,-2.4175,-2.6341,-2.5356,-2.4926,0.0,0.0,0.0,0.0,0.0,0.0,0.0,0.0,0.0,0.0,0.0,0.0,0.0,0.0,0.0,-2.5016,-2.5016,-2.5016,-2.5016,-2.5165,-2.5274,-2.5355,-2.5518,-2.5627,-2.5694,0.0,-2.5627,-2.5694,-2.5627,-2.5667,-2.5803,-2.5803,-2.5844,-2.5898,-2.5898,-2.5844,-2.5762,0.0,0.0,0.0,0.0,0.0,0.0,0.0,0.0,0.0,0.0,0.0,0.0,0.0,0.0,0.0,0.0,0.0,0.0,0.0,0.0,0.0,0.0,0.0,0.0,0.0,-1.6103,-1.67,-1.7297,-1.8057,-1.8708,-1.9237,-1.8654,-1.8138,-1.7717,-1.7121,-1.6686,-1.6415,-1.6374,-1.6361,-1.6361,0.0,0.0,0.0,0.0,0.0,0.0,0.0,0.0,0.0,0.0,0.0,0.0,0.0,0.0,0.0,-1.9888,-2.0119,-2.0376,-2.0594,-2.0946,-2.1313,-2.1489,-2.1815,-2.2113,-2.2221,-2.2194,-2.2194,-2.2276,-2.214,-2.2127,-2.2398,-2.2547,-2.2886,-2.3605,-2.3782,-2.3958,-2.4351,0.0,0.0,0.0,0.0,0.0,0.0,0.0,0.0,0.0,0.0,0.0,0.0,0.0,0.0,0.0,0.0,0.0,-2.5016,-2.5057,-2.507,-2.507,-2.522,-2.5369,-2.5518,-2.5667,-2.5803,-2.5898,-2.5776,-2.5803,-2.5898,-2.5776,-2.5803,-2.5898,-2.5898,-2.5898,-2.5898,-2.5898,-2.5817,-2.5667,0.0,0.0,0.0,0.0,0.0,0.0,0.0,0.0,0.0,0.0,0.0,0.0,0.0,0.0,0.0,0.0,0.0,0.0,0.0,0.0,0.0,0.0,0.0,0.0,0.0,-1.6619,-1.7012,-1.7609,-1.8355,-1.8979,-1.94,-1.8789,-1.8355,-1.8043,-1.7433,-1.6998,-1.6714,-1.6564,-1.651,-1.651,-1.651,0.0,0.0,0.0,0.0,0.0,0.0,0.0,0.0,0.0,0.0,0.0,0.0,0.0,-1.9888,-2.0051,-2.02,-2.0417,-2.0865,-2.119,-2.1489,-2.1774,-2.157,-2.1408,-2.1815,-2.1815,-2.1801,-2.2072,-2.233,-2.2547,-2.271,-2.3198,-2.3646,-2.3836,-2.4121,-2.4216,0.0,0.0,0.0,0.0,0.0,0.0,0.0,0.0,0.0,0.0,0.0,0.0,0.0,0.0,0.0,0.0,0.0,0.0,-2.5016,-2.5138,-2.522,-2.522,-2.5369,-2.5532,-2.5667,-2.5817,-2.5884,-2.5898,-2.5884,-2.5884,-2.5898,-2.5884,-2.5884,-2.5898,-2.5898,-2.5898,-2.5898,-2.5898,-2.5817,-2.5667,0.0,0.0,0.0,0.0,0.0,0.0,0.0,0.0,0.0,0.0,0.0,0.0,0.0,0.0,0.0,0.0,0.0,0.0,0.0,0.0,0.0,0.0,0.0,-1.6293,-1.6917,-1.727,-1.7745,-1.8342,-1.9183,-1.963,-1.9698,-1.8898,-1.8369,-1.8057,-1.7365,-1.6944,-1.6741,-1.6686,-1.6659,-1.6659,-1.6659,-1.6754,0.0,0.0,0.0,0.0,0.0,0.0,0.0,0.0,-1.9169,-1.9373,-1.9603,-1.9834,-2.0051,-2.02,-2.0349,-2.0526,-2.0783,-2.1218,-2.1638,-2.1828,-2.1896,-2.2018,-2.2479,-2.2696,-2.2832,-2.3049,-2.3103,-2.3103,-2.3063,-2.347,-2.3863,-2.4012,-2.4134,-2.4202,0.0,0.0,0.0,0.0,0.0,0.0,0.0,0.0,0.0,0.0,0.0,0.0,0.0,0.0,0.0,0.0,0.0,0.0,0.0,-2.5192,-2.5287,-2.5369,-2.5532,-2.564,-2.5694,-2.583,-2.5898,-2.5898,-2.5898,-2.5898,-2.5898,-2.5898,-2.5898,-2.5898,-2.5898,-2.5898,-2.5898,-2.5898,-2.5749,-2.5532,0.0,0.0,0.0,0.0,0.0,0.0,0.0,0.0,0.0,0.0,0.0,0.0,0.0,0.0,0.0,0.0,0.0,0.0,-1.5262,-1.5086,-1.5221,-1.5778,-1.5981,-1.6388,-1.7039,-1.7636,-1.8219,-1.8762,-1.9603,-1.9956,-1.978,-1.8979,-1.8477,-1.8192,-1.75,-1.7134,-1.7026,-1.6931,-1.689,-1.689,-1.689,-1.6931,0.0,0.0,0.0,0.0,0.0,0.0,0.0,0.0,-1.9156,-1.94,-1.9644,-1.9888,-2.0132,-2.0282,-2.0526,-2.077,-2.0878,-2.1245,-2.1665,-2.195,-2.214,-2.2411,-2.2954,-2.3239,-2.3456,-2.37,-2.366,-2.3537,-2.3402,-2.366,-2.3944,-2.4107,-2.4189,0.0,0.0,0.0,0.0,0.0,0.0,0.0,0.0,0.0,0.0,0.0,0.0,0.0,0.0,0.0,0.0,0.0,0.0,0.0,0.0,-2.5287,-2.5369,-2.5532,-2.5694,-2.5722,-2.5694,-2.583,-2.5898,-2.5898,-2.5898,-2.5898,-2.5898,-2.5898,-2.5898,-2.5898,-2.5898,-2.5898,-2.5898,-2.5844,-2.5667,-2.5464,0.0,0.0,0.0,0.0,0.0,0.0,0.0,0.0,0.0,0.0,0.0,0.0,0.0,0.0,0.0,0.0,0.0,0.0,-1.4977,-1.4964,-1.5031,-1.5181,-1.5764,-1.6279,-1.6727,-1.7623,-1.8301,-1.8762,-1.9508,-1.9807,-1.9644,-1.9047,-1.8667,-1.8491,-1.7907,-1.765,-1.7623,-1.7324,-1.7188,-1.7188,-1.7188,-1.7107,-1.7039,0.0,0.0,0.0,0.0,0.0,0.0,0.0,-1.9318,-1.9345,-2.0078,-2.0227,-2.0132,-2.0295,-2.0756,-2.1218,-2.1218,-2.1313,-2.1584,-2.2181,-2.2235,-2.2316,-2.3063,-2.3225,-2.3347,-2.3809,-2.389,-2.3836,-2.3714,-2.3809,-2.3944,-2.4107,0.0,0.0,0.0,0.0,0.0,0.0,0.0,0.0,0.0,0.0,0.0,0.0,0.0,0.0,0.0,0.0,0.0,0.0,0.0,0.0,0.0,-2.5396,-2.5532,-2.5694,-2.583,-2.583,-2.5694,-2.583,-2.5898,-2.5898,-2.5898,-2.5898,-2.5898,-2.5898,-2.5898,-2.5898,-2.5898,-2.5898,-2.5884,-2.5749,-2.5586,-2.545,0.0,0.0,0.0,0.0,0.0,0.0,0.0,0.0,0.0,0.0,0.0,0.0,0.0,0.0,0.0,0.0,0.0,0.0,-1.4964,-1.4774,-1.4814,-1.5167,-1.556,-1.5927,-1.6266,-1.727,-1.8247,-1.9237,-1.9549,-1.959,-1.9332,-1.883,-1.8464,-1.8192,0.0,-1.7595,-1.7473,-1.727,-1.7256,-1.7351,-1.7351,-1.7324,-1.7324,0.0,0.0,0.0,0.0,0.0,0.0,0.0,0.0,0.0,-1.9875,-2.0119,-2.0295,-2.0431,-2.0594,-2.077,-2.0878,-2.1394,-2.195,-2.2127,-2.2696,-2.328,-2.3483,-2.3537,-2.3605,-2.3836,-2.3809,-2.3768,-2.3822,-2.4039,0.0,0.0,0.0,0.0,0.0,0.0,0.0,0.0,0.0,0.0,0.0,0.0,0.0,0.0,0.0,0.0,0.0,0.0,0.0,0.0,0.0,0.0,0.0,0.0,-2.5477,-2.5532,-2.5667,-2.5722,-2.5694,-2.583,-2.5844,-2.5762,-2.5871,-2.5898,-2.5898,-2.5898,-2.5898,-2.5898,-2.5898,-2.5898,-2.5884,-2.5749,-2.5586,-2.5464,0.0,0.0,0.0,0.0,0.0,0.0,0.0,0.0,-1.4679,-1.4774,-1.4896,-1.5004,0.0,0.0,0.0,-1.5181,-1.4964,0.0,-1.4882,-1.476,-1.4814,-1.5086,-1.5452,-1.5886,-1.6429,-1.7229,-1.8057,-1.8898,-1.9169,-1.921,-1.902,-1.8871,-1.864,-1.8355,-1.8233,-1.8043,-1.7758,-1.7555,-1.7514,-1.7595,-1.7595,-1.7568,-1.7541,0.0,0.0,0.0,0.0,0.0,0.0,0.0,0.0,0.0,-1.9766,-1.9997,-2.02,-2.0471,-2.0756,-2.1055,-2.1313,-2.1828,-2.2357,-2.2656,-2.3076,-2.3483,-2.3782,-2.3863,-2.3836,-2.3822,-2.3836,-2.3836,-2.3822,-2.4107,0.0,0.0,0.0,0.0,0.0,0.0,0.0,0.0,0.0,0.0,0.0,0.0,0.0,0.0,0.0,0.0,0.0,0.0,0.0,0.0,0.0,0.0,0.0,0.0,-2.5464,-2.5464,-2.5545,-2.5572,-2.5518,-2.5776,-2.5844,-2.5776,-2.5871,-2.5898,-2.5898,-2.5898,-2.5898,-2.5898,-2.5898,-2.5898,-2.5884,-2.5749,-2.564,-2.5545,0.0,0.0,0.0,0.0,0.0,0.0,0.0,-1.4584,-1.4502,-1.4529,-1.4774,-1.4964,0.0,0.0,0.0,-1.5181,-1.5059,-1.4909,-1.4774,-1.4882,-1.4964,-1.4991,-1.5438,-1.6076,-1.6944,-1.7365,-1.7717,-1.8043,-1.8491,-1.8749,-1.8762,-1.9047,-1.9047,-1.8803,-1.8925,-1.8749,-1.8301,-1.7989,-1.7867,-1.788,-1.788,-1.7812,-1.7717,-1.8016,0.0,0.0,0.0,0.0,0.0,0.0,0.0,0.0,-1.9712,-1.9861,-1.9956,-2.0404,-2.1041,-2.1706,-2.2167,-2.2425,-2.2764,-2.3483,-2.3375,-2.3293,-2.3944,-2.4107,-2.4053,-2.3768,-2.3931,-2.4053,-2.3782,0.0,0.0,0.0,0.0,0.0,0.0,0.0,0.0,0.0,0.0,0.0,0.0,0.0,0.0,0.0,0.0,0.0,0.0,0.0,0.0,0.0,0.0,0.0,0.0,-2.5396,-2.5464,0.0,-2.5464,-2.5369,-2.526,-2.5667,-2.5871,-2.5884,-2.5898,-2.5898,-2.5898,-2.5898,-2.5898,-2.5898,-2.5898,-2.5898,-2.5898,-2.5749,-2.5694,-2.5694,0.0,0.0,0.0,0.0,0.0,0.0,-1.4557,-1.4434,-1.4434,-1.4665,-1.4746,-1.4882,-1.5113,-1.5167,0.0,-1.5181,-1.5059,-1.495,-1.4923,-1.4841,-1.4896,-1.5126,-1.5683,-1.6239,-1.6781,-1.689,-1.7148,-1.7568,-1.8138,-1.8531,-1.8762,-1.8952,-1.9006,-1.8938,-1.8979,-1.8749,-1.8301,-1.7989,-1.7935,-1.8043,-1.8043,-1.8016,-1.8016,-1.8314,-1.8179,0.0,0.0,0.0,0.0,0.0,0.0,0.0,-1.9603,-1.978,-1.9942,-2.0282,-2.0729,-2.1245,-2.1692,-2.2357,-2.3008,-2.3402,-2.37,-2.389,-2.3931,-2.4039,-2.4107,-2.4039,-2.4066,-2.4134,0.0,0.0,0.0,0.0,0.0,0.0,0.0,0.0,0.0,0.0,0.0,0.0,0.0,0.0,0.0,0.0,0.0,0.0,0.0,0.0,0.0,0.0,0.0,0.0,-2.5586,-2.5505,-2.5518,0.0,-2.5396,-2.5315,-2.541,-2.5518,-2.5627,-2.5749,-2.5844,-2.5898,-2.5898,-2.5898,-2.5898,-2.5898,-2.5898,-2.5966,-2.6047,-2.5776,-2.5762,-2.583,0.0,0.0,0.0,0.0,0.0,0.0,0.0,0.0,-1.4462,-1.4611,-1.4692,-1.4828,-1.5059,-1.514,0.0,0.0,-1.5113,-1.5045,-1.4977,-1.5031,-1.5194,-1.5493,-1.594,-1.6334,-1.6632,-1.6714,-1.6931,-1.7311,-1.7704,-1.8138,-1.8654,-1.902,-1.9169,-1.9101,-1.9169,-1.8952,-1.8518,-1.8219,-1.8219,-1.8409,-1.8342,-1.8301,-1.8314,-1.8477,-1.8301,-1.8016,-1.8396,0.0,0.0,0.0,0.0,0.0,0.0,0.0,-1.9834,-2.0227,-2.0594,-2.1068,-2.1882,-2.2479,-2.3008,-2.3456,-2.3836,-2.408,-2.3931,-2.4066,-2.4229,-2.4229,-2.4229,0.0,0.0,0.0,0.0,0.0,0.0,0.0,0.0,0.0,0.0,0.0,0.0,0.0,0.0,0.0,0.0,0.0,0.0,0.0,0.0,0.0,0.0,0.0,0.0,-2.5396,-2.5477,-2.5396,-2.5355,-2.5369,-2.522,-2.5179,-2.5247,-2.5477,-2.5627,-2.5694,-2.5844,-2.5898,-2.5898,-2.5898,-2.5898,-2.5898,-2.5993,-2.6061,-2.6115,-2.5952,-2.5952,-2.5993,0.0,0.0,0.0,0.0,0.0,0.0,0.0,0.0,0.0,-1.4543,-1.4665,-1.4801,-1.4991,-1.5113,-1.5194,0.0,0.0,0.0,-1.5059,-1.5303,-1.5574,-1.5845,-1.6171,-1.6402,-1.6524,-1.6673,-1.6876,-1.7161,-1.7338,-1.7812,-1.8545,-1.9115,-1.9359,-1.9291,-1.9413,-1.9223,-1.8776,-1.8477,-1.8491,-1.8708,-1.8545,-1.8518,-1.8531,-1.8531,-1.8369,-1.8165,-1.8464,-1.8545,-1.8586,-1.8884,0.0,0.0,0.0,0.0,-1.9752,-2.02,-2.0539,-2.1001,-2.2072,-2.2601,-2.2995,-2.3578,-2.3931,-2.408,-2.3931,-2.4121,-2.4351,-2.4379,-2.4406,0.0,0.0,0.0,0.0,0.0,0.0,0.0,0.0,0.0,0.0,0.0,0.0,0.0,0.0,0.0,0.0,0.0,0.0,0.0,0.0,0.0,0.0,0.0,-2.526,-2.5287,-2.5301,-2.526,-2.5179,-2.5098,-2.507,-2.507,-2.5111,-2.5518,-2.5694,-2.5708,-2.5871,-2.5952,-2.5979,-2.5979,-2.5979,-2.5993,-2.6115,-2.6183,-2.6196,-2.6142,-2.6142,-2.6142,0.0,0.0,0.0,0.0,0.0,0.0,0.0,0.0,0.0,0.0,-1.4733,-1.4841,-1.5126,-1.5167,-1.5235,-1.5371,-1.5262,-1.5235,-1.5343,0.0,0.0,-1.5845,-1.6266,-1.6497,-1.6524,-1.6673,-1.6836,-1.7012,-1.7283,-1.7812,-1.8545,-1.9006,-1.9359,-1.9603,-1.963,-1.9373,-1.8938,-1.864,-1.8531,-1.8545,-1.8409,-1.8423,-1.8531,-1.8531,-1.8423,-1.8314,-1.8626,-1.864,-1.8586,-1.8884,-1.9074,0.0,0.0,0.0,-1.9752,-2.02,-2.0539,-2.0892,-2.1435,-2.2357,-2.328,-2.3754,-2.3999,-2.408,-2.3931,-2.4121,-2.4379,0.0,0.0,0.0,0.0,0.0,0.0,0.0,0.0,0.0,0.0,0.0,0.0,0.0,0.0,0.0,0.0,0.0,0.0,0.0,0.0,0.0,0.0,0.0,-2.5274,-2.5423,-2.5423,-2.5491,-2.5627,-2.5369,-2.5287,-2.541,-2.5274,-2.5274,-2.541,-2.5599,-2.5694,-2.5708,-2.5966,-2.6183,-2.6305,-2.6305,-2.6305,-2.6305,-2.6332,-2.6413,-2.6481,-2.6224,-2.6224,-2.6291,0.0,0.0,0.0,0.0,0.0,0.0,0.0,0.0,0.0,0.0,0.0,-1.4855,-1.5153,-1.5181,-1.5248,-1.5398,-1.5343,-1.5371,-1.5533,-1.5683,-1.5832,-1.5967,-1.6252,-1.6442,-1.6524,-1.6592,-1.67,-1.6849,-1.7148,-1.769,-1.8423,-1.8952,-1.9413,-1.9766,-1.9522,-1.9345,-1.9196,-1.8721,-1.864,-1.8776,-1.8626,-1.8708,-1.8884,-1.8721,-1.8667,-1.8708,-1.8843,-1.8843,-1.8816,-1.9047,-1.9196,-1.9359,-1.9481,0.0,0.0,0.0,-2.0173,-2.0634,-2.1665,-2.2642,-2.3415,-2.37,-2.3944,-2.4066,-2.3822,-2.4134,-2.4487,-2.4541,0.0,0.0,0.0,0.0,0.0,0.0,0.0,0.0,0.0,0.0,0.0,0.0,0.0,0.0,0.0,0.0,0.0,0.0,0.0,0.0,0.0,-2.5165,-2.5301,-2.5464,-2.5369,-2.541,-2.5572,-2.5274,-2.5138,-2.522,-2.5315,-2.5355,-2.5342,-2.5762,-2.5939,-2.5952,-2.6169,-2.6291,-2.6359,-2.6359,-2.6359,-2.6359,-2.6454,-2.6522,-2.6549,-2.6346,-2.6305,-2.6332,0.0,0.0,0.0,0.0,0.0,0.0,0.0,0.0,0.0,0.0,0.0,-1.4896,-1.5153,0.0,0.0,0.0,-1.5466,-1.552,-1.5628,-1.5778,-1.5927,-1.6076,-1.6266,-1.6402,-1.6469,-1.6537,-1.6632,-1.6754,-1.7053,-1.7623,-1.845,-1.8925,-1.9468,-2.0037,-1.9576,-1.9413,-1.9454,-1.8925,-1.8816,-1.8993,-1.8952,-1.9061,-1.9237,-1.9101,-1.9128,-1.925,-1.9183,-1.9169,-1.9169,-1.9237,-1.9345,-1.9454,-1.9522,-1.959,0.0,0.0,0.0,-2.0458,-2.176,-2.2601,-2.3185,-2.3483,-2.3822,-2.4012,-2.3836,-2.4189,-2.4582,0.0,0.0,0.0,0.0,0.0,0.0,0.0,0.0,0.0,0.0,0.0,0.0,0.0,0.0,0.0,0.0,0.0,0.0,0.0,0.0,0.0,-2.507,-2.522,-2.5355,-2.5518,-2.5369,-2.5342,-2.5464,-2.5165,-2.5043,-2.507,-2.5301,-2.541,-2.5423,-2.5898,-2.6169,-2.6251,-2.6359,-2.6427,-2.6468,-2.6468,-2.6468,-2.6481,-2.659,-2.6631,-2.6603,-2.6427,-2.6359,-2.6332,0.0,0.0,0.0,0.0,0.0,0.0,0.0,0.0,0.0,0.0,0.0,-1.5018,-1.5167,-1.5316,-1.5466,-1.5615,-1.5628,-1.5628,-1.5642,-1.5778,-1.5927,-1.6076,-1.6361,0.0,-1.632,-1.6592,-1.6741,-1.6754,-1.7053,-1.7717,-1.8749,-1.8925,-1.9535,-2.0485,-2.0037,-1.9766,-1.963,-1.9305,-1.9101,-1.9006,-1.9291,-1.9413,-1.9454,-1.9712,-1.9902,-2.001,-1.9725,-1.963,-1.9603,0.0,-1.9427,-1.9481,-1.9766,-1.9766,-1.9712,0.0,0.0,0.0,-2.1285,-2.1828,-2.2357,-2.3063,-2.3578,-2.3944,-2.4066,-2.4338,-2.4596,0.0,0.0,0.0,0.0,0.0,0.0,0.0,0.0,0.0,0.0,0.0,0.0,0.0,0.0,0.0,0.0,0.0,0.0,0.0,0.0,0.0,-2.522,-2.5369,-2.5518,-2.5667,-2.5532,-2.5464,-2.5464,-2.5165,-2.5084,-2.522,-2.5233,-2.5464,-2.5871,-2.6047,-2.6291,-2.6549,-2.6549,-2.6644,-2.678,-2.678,-2.678,-2.678,-2.678,-2.678,-2.6753,-2.6468,-2.6359,-2.6332,0.0,0.0,0.0,0.0,0.0,0.0,0.0,0.0,0.0,0.0,0.0,0.0,0.0,-1.5371,-1.5506,-1.575,-1.5872,-1.5886,-1.5778,-1.5913,-1.6062,-1.6225,-1.6415,-1.6497,-1.6442,-1.6646,-1.67,-1.6605,-1.6998,-1.7636,-1.8477,-1.8925,-1.959,-2.0376,-2.0037,-1.9956,-2.0064,-1.9549,-1.9318,-1.9291,-1.9508,-1.9698,-1.9875,-1.9983,-2.0173,-2.0363,-2.0254,-2.0105,0.0,0.0,0.0,-1.9847,-1.9766,-1.9766,-1.9834,-2.0051,-2.0282,-2.0634,-2.1394,-2.1991,-2.2506,-2.2981,-2.3483,-2.3877,-2.3836,-2.4216,-2.4582,-2.4636,0.0,0.0,0.0,0.0,0.0,0.0,0.0,0.0,0.0,0.0,0.0,0.0,0.0,0.0,0.0,0.0,0.0,0.0,0.0,0.0,-2.5233,-2.5369,-2.5532,-2.5694,-2.5545,-2.5369,-2.5179,-2.5165,-2.5179,-2.5233,-2.5423,-2.5599,-2.5776,-2.602,-2.6237,-2.6454,-2.6536,-2.6658,-2.6807,-2.6807,-2.6807,-2.6807,-2.6807,-2.6807,-2.6766,-2.6468,-2.6359,-2.6332,0.0,0.0,0.0,0.0,0.0,0.0,0.0,0.0,0.0,0.0,0.0,0.0,0.0,0.0,-1.5737,-1.5981,-1.6103,-1.6117,-1.6008,-1.6049,-1.6212,-1.6524,-1.6524,-1.6551,-1.6592,-1.6754,-1.6754,-1.6605,-1.7093,-1.769,-1.8342,-1.8925,-1.9576,-2.0241,-2.0105,-2.0173,-2.0363,-1.9875,-1.963,-1.9603,-1.9956,-2.0132,-2.02,-2.0458,-2.058,-2.0634,0.0,0.0,0.0,0.0,0.0,-2.0512,-2.0214,-2.0037,-1.9956,-2.001,-2.0282,-2.0661,-2.1218,-2.1815,-2.2357,-2.2818,-2.328,-2.366,-2.3917,-2.4243,-2.4528,-2.4691,0.0,0.0,0.0,0.0,0.0,0.0,0.0,0.0,0.0,0.0,0.0,0.0,0.0,0.0,0.0,0.0,0.0,0.0,0.0,0.0,-2.5301,-2.541,-2.5532,-2.5694,-2.5545,-2.5369,-2.5179,-2.522,-2.5287,-2.5396,-2.5586,-2.5708,-2.5776,-2.602,-2.6224,-2.6359,-2.6522,-2.6658,-2.6807,-2.6807,-2.6807,-2.6807,-2.6807,-2.6807,-2.6766,-2.6468,-2.6359,-2.6332,0.0,0.0,0.0,0.0,0.0,0.0,0.0,0.0,0.0,0.0,0.0,0.0,0.0,0.0,0.0,-1.6307,-1.632,-1.632,-1.632,-1.6185,-1.6374,-1.6958,-1.67,-1.6605,-1.6754,-1.6904,-1.6904,-1.6754,-1.7351,-1.788,-1.8314,-1.8925,-1.9522,-2.0105,-2.0254,-2.0404,-2.0526,-2.0227,-2.0037,-1.9956,-2.0689,-2.0729,-2.0431,-2.1177,-2.1177,-2.0838,-2.1136,-2.1163,0.0,0.0,0.0,0.0,-2.1082,-2.058,-2.0064,-1.9929,-2.02,-2.058,0.0,0.0,0.0,-2.2588,-2.2886,-2.328,-2.4297,-2.4419,-2.446,-2.4908,0.0,0.0,0.0,0.0,0.0,0.0,0.0,0.0,0.0,0.0,0.0,0.0,0.0,0.0,0.0,0.0,0.0,0.0,0.0,-2.5138,-2.545,-2.5464,-2.5532,-2.5667,-2.5532,-2.5464,-2.5464,-2.5301,-2.5396,-2.5694,-2.5694,-2.5762,-2.5898,-2.6061,-2.6224,-2.6359,-2.6508,-2.6658,-2.6807,-2.6807,-2.6807,-2.6807,-2.6807,-2.6807,-2.6766,-2.6468,-2.6359,-2.6332,0.0,0.0,0.0,0.0,0.0,-1.5466,-1.5506,-1.5601,-1.5642,0.0,0.0,0.0,0.0,0.0,0.0,-1.6456,-1.6564,-1.6632,-1.6632,-1.6686,-1.6849,-1.7121,-1.7053,-1.6985,-1.6917,-1.7066,-1.7012,-1.6754,-1.7351,-1.7772,-1.8002,-1.8708,-1.9305,-1.9807,-2.0051,-2.0241,-2.0376,-2.0295,-2.0295,-2.0376,-2.058,-2.0865,0.0,0.0,0.0,0.0,0.0,-2.195,0.0,0.0,-2.1747,-2.1353,0.0,-2.0404,-2.0119,-2.0187,-2.0431,-2.077,-2.1014,0.0,0.0,0.0,0.0,0.0,-2.3483,-2.3727,-2.3999,-2.4433,0.0,0.0,0.0,0.0,0.0,0.0,0.0,0.0,0.0,0.0,0.0,0.0,0.0,0.0,0.0,0.0,0.0,0.0,-2.5016,-2.5138,-2.545,-2.5654,-2.5708,-2.5532,-2.5477,-2.541,-2.5301,-2.5355,-2.5491,-2.5694,-2.5803,-2.5871,-2.5898,-2.5939,-2.6115,-2.6359,-2.64,-2.6576,-2.6807,-2.6807,-2.6807,-2.6807,-2.6807,-2.6807,-2.6766,-2.6468,-2.6359,-2.6332,0.0,0.0,-1.5805,-1.5628,-1.5723,-1.5818,-1.5818,-1.5954,-1.5995,0.0,0.0,0.0,0.0,0.0,0.0,-1.6822,-1.6944,-1.6998,-1.6944,-1.6958,-1.7107,-1.7365,-1.7256,-1.7148,-1.7066,-1.7216,-1.7148,-1.6849,-1.7514,-1.784,-1.788,-1.864,-1.9169,-1.9481,-1.978,-2.0064,-2.0336,-2.0336,-2.0376,-2.0485,-2.0865,0.0,0.0,-2.1787,-2.1937,0.0,0.0,0.0,-2.214,-2.2601,-2.2371,0.0,0.0,-2.0811,-2.0471,-2.0431,-2.0661,-2.1001,-2.1163,-2.1516,-2.1923,-2.2249,0.0,0.0,-2.3415,-2.3646,-2.3863,0.0,0.0,0.0,0.0,0.0,0.0,0.0,0.0,0.0,0.0,0.0,0.0,0.0,0.0,0.0,0.0,0.0,0.0,0.0,-2.5016,-2.5138,-2.545,-2.5749,-2.583,-2.5654,-2.5532,-2.5477,-2.5518,-2.5477,-2.5572,-2.5776,-2.5871,-2.5898,-2.5898,-2.5898,-2.6047,-2.6278,-2.6332,-2.6481,-2.6712,-2.678,-2.6807,-2.6807,-2.6807,-2.6807,-2.6766,-2.6536,-2.6413,-2.6332,0.0,0.0,-1.5927,-1.5927,-1.6062,-1.6185,-1.6198,-1.6334,-1.6374,0.0,0.0,0.0,0.0,0.0,0.0,-1.7283,-1.7378,-1.7405,-1.7256,-1.7134,-1.7256,-1.765,-1.7392,-1.7243,-1.7243,-1.7365,-1.7297,-1.7053,-1.7758,-1.8016,-1.7894,-1.8626,-1.9047,-1.9183,-1.9508,-1.9875,-2.0282,-2.0349,-2.0376,-2.0471,-2.1299,-2.1516,0.0,0.0,-2.2127,0.0,-2.2425,-2.2534,-2.2534,-2.3347,-2.3158,0.0,0.0,0.0,-2.1068,-2.0702,-2.0933,-2.1285,-2.1245,-2.1353,-2.1611,-2.2167,-2.2099,0.0,-2.3605,-2.3754,0.0,0.0,0.0,0.0,0.0,0.0,0.0,0.0,0.0,0.0,0.0,0.0,0.0,0.0,0.0,0.0,0.0,0.0,-2.5016,-2.5016,-2.5057,-2.5179,-2.545,-2.5749,-2.5898,-2.5884,-2.5599,-2.5599,-2.5884,-2.5599,-2.5599,-2.5898,-2.5898,-2.5898,-2.5898,-2.5898,-2.5993,-2.6169,-2.6305,-2.6454,-2.6603,-2.6753,-2.6807,-2.6807,-2.6807,-2.6807,-2.678,-2.6631,-2.6481,-2.6346,-1.6062,-1.6225,-1.6388,-1.6388,-1.6619,-1.6849,-1.6958,-1.7107,-1.7148,-1.6998,-1.7134,0.0,0.0,0.0,-1.7772,-1.7582,-1.769,-1.7717,-1.7568,-1.765,-1.7717,-1.7812,-1.765,-1.7555,-1.7555,-1.7473,-1.7446,-1.7514,-1.7894,-1.807,-1.8057,-1.8572,-1.8884,-1.9047,-1.9345,-1.9657,-1.9997,-2.0471,-2.0756,-2.0892,-2.1177,0.0,-2.214,-2.2411,-2.2601,-2.2778,-2.3008,-2.2995,-2.29,0.0,-2.3049,-2.2805,0.0,0.0,-2.1923,-2.1136,-2.1313,-2.1706,-2.1462,-2.1597,-2.1828,-2.1937,-2.2018,0.0,-2.2588,-2.2927,-2.3253,0.0,0.0,0.0,0.0,0.0,0.0,0.0,0.0,0.0,0.0,0.0,0.0,0.0,0.0,0.0,0.0,0.0,-2.5016,-2.5016,-2.5233,-2.541,-2.5464,-2.5749,-2.5844,-2.5749,-2.5545,-2.5545,-2.5722,-2.5545,-2.5599,-2.5898,-2.5898,-2.5898,-2.5898,-2.5898,-2.6061,-2.6332,-2.6346,-2.6522,-2.6766,-2.678,-2.6807,-2.6807,-2.6807,-2.6807,-2.678,-2.6631,-2.6481,-2.6346,-1.6415,-1.6469,-1.6592,-1.6822,-1.7053,-1.727,-1.75,-1.765,-1.7663,-1.7446,-1.7609,-1.7812,-1.7962,-1.8179,-1.8219,-1.8002,-1.8111,-1.8111,-1.788,-1.7935,-1.7948,-1.7867,-1.7785,-1.7717,-1.765,-1.765,-1.769,-1.7758,-1.8057,-1.8247,-1.8314,-1.8626,-1.9047,-1.9535,-1.9468,-1.9807,-2.0431,-2.0594,-2.0878,-2.1245,-2.1611,0.0,-2.2479,-2.2778,-2.2981,-2.313,-2.3198,-2.328,-2.3347,-2.3347,-2.3198,0.0,0.0,-2.2452,-2.2221,-2.1611,-2.1706,-2.1923,-2.1543,-2.1597,-2.1815,-2.195,-2.1937,0.0,0.0,0.0,-2.2954,-2.3537,-2.3863,-2.408,0.0,0.0,0.0,0.0,0.0,0.0,0.0,0.0,0.0,0.0,0.0,0.0,0.0,0.0,-2.5084,-2.5016,-2.5233,-2.5369,-2.5464,-2.5667,-2.5803,-2.5803,-2.5586,-2.5572,-2.5803,-2.5572,-2.5599,-2.5898,-2.5898,-2.5898,-2.5898,-2.5898,-2.602,-2.6251,-2.6332,-2.6481,-2.6698,-2.6766,-2.6807,-2.6807,-2.6807,-2.6807,-2.678,-2.6712,-2.6549,-2.6346,-1.6822,-1.6741,-1.6768,-1.7161,-1.7392,-1.7609,-1.7948,-1.8097,-1.8097,-1.784,-1.8057,-1.8287,-1.8477,-1.8762,-1.8816,-1.8518,-1.8654,-1.8586,-1.8192,-1.8179,-1.8124,-1.8002,-1.788,-1.7826,-1.7826,-1.784,-1.7894,-1.7989,-1.8233,-1.8423,-1.8586,-1.8708,-1.9196,-1.9956,-1.9671,-2.0064,-2.0906,-2.0811,-2.1068,-2.1611,0.0,-2.2466,-2.2642,-2.3063,-2.3239,-2.328,-2.3293,-2.3483,-2.3714,-2.37,0.0,-2.3171,-2.3158,-2.29,-2.2547,-2.2059,-2.2113,-2.2221,-2.1747,-2.1747,-2.1923,-2.2072,-2.2004,-2.2072,0.0,0.0,0.0,0.0,0.0,-2.3727,-2.4175,0.0,0.0,0.0,0.0,0.0,0.0,0.0,0.0,0.0,0.0,0.0,0.0,0.0,-2.5138,-2.5016,-2.5125,-2.5274,-2.545,-2.5599,-2.5762,-2.5898,-2.5627,-2.5599,-2.5898,-2.5599,-2.5627,-2.5939,-2.5925,-2.5925,-2.5939,-2.5925,-2.6006,-2.6183,-2.6305,-2.6468,-2.6631,-2.6753,-2.6807,-2.6807,-2.6807,-2.6807,-2.6807,-2.6807,-2.6631,-2.64,-1.7188,-1.7134,-1.7175,-1.7365,-1.7623,-1.7948,-1.8396,-1.8477,-1.8464,-1.8437,-1.8586,-1.8803,-1.9074,-1.9373,-1.9427,-1.9128,0.0,0.0,-1.8531,-1.8477,-1.8477,-1.8464,-1.7948,-1.7907,-1.8423,-1.8057,-1.8057,-1.8464,-1.8491,-1.8586,-1.8749,-1.8762,-1.902,-1.9522,-1.9875,-2.0241,-2.0634,-2.1272,-2.1747,0.0,-2.2398,-2.2628,0.0,-2.3103,-2.3307,-2.3456,-2.3578,-2.3727,-2.3863,0.0,-2.3727,-2.3687,0.0,-2.3239,-2.351,-2.2411,-2.2574,-2.2981,-2.2398,-2.2452,-2.2574,-2.2194,-2.2398,-2.2588,-2.2303,0.0,-2.2995,-2.3076,0.0,-2.3415,-2.3863,0.0,0.0,0.0,0.0,0.0,-2.408,-2.4256,-2.4528,0.0,0.0,0.0,0.0,0.0,0.0,-2.5016,-2.5043,-2.5165,-2.545,-2.5599,-2.5762,-2.5898,-2.5627,-2.5599,-2.5898,-2.5599,-2.5667,-2.6101,-2.5966,-2.5966,-2.6101,-2.5966,-2.6061,-2.6346,-2.6359,-2.6522,-2.678,-2.6807,-2.6807,-2.6807,-2.6807,-2.6807,-2.6807,-2.6807,-2.6698,-2.6549,-1.7419,-1.7392,-1.75,-1.765,-1.7772,-1.8016,-1.8464,-1.8694,-1.8762,-1.8667,-1.8871,-1.9061,-1.9183,-1.94,0.0,0.0,0.0,0.0,0.0,0.0,-1.8966,-1.8816,-1.8477,-1.8369,-1.8531,-1.8355,-1.8342,-1.8531,-1.8531,-1.8599,-1.8762,-1.8843,-1.9278,-1.9956,-2.0241,-2.077,-2.1475,-2.1787,-2.2099,0.0,0.0,0.0,0.0,-2.328,-2.3456,-2.3592,-2.366,-2.3768,-2.3877,0.0,-2.3727,0.0,0.0,-2.3605,-2.3415,-2.3008,-2.2995,-2.2995,-2.2479,-2.2628,-2.2846,-2.2574,-2.2642,-2.2764,-2.2656,0.0,-2.2696,0.0,0.0,0.0,0.0,0.0,0.0,0.0,-2.3958,-2.4066,-2.4039,-2.4134,-2.4338,-2.4623,0.0,0.0,0.0,0.0,0.0,0.0,0.0,-2.5138,-2.545,-2.5599,-2.5722,-2.5776,-2.5572,-2.5599,-2.5898,-2.5694,-2.5722,-2.5993,-2.602,-2.6061,-2.6129,-2.6061,-2.6196,-2.6481,-2.6481,-2.6603,-2.6807,-2.6807,-2.6807,-2.6807,-2.6807,-2.6807,-2.6807,-2.6807,-2.6698,-2.6576,-1.7704,-1.7663,-1.7717,-1.7785,-1.784,-1.8016,-1.8518,-1.8776,-1.8952,-1.9006,0.0,0.0,-1.9549,-1.978,0.0,0.0,0.0,-2.0132,0.0,0.0,-1.9495,-1.9359,-1.9006,0.0,0.0,-1.8749,-1.8654,-1.8654,-1.8613,-1.8667,-1.883,-1.8938,-1.9427,-2.0227,-2.058,-2.1177,-2.1937,0.0,-2.2452,-2.2696,-2.2927,-2.3171,-2.3415,-2.3524,-2.3646,-2.3754,-2.3782,-2.389,-2.4012,-2.3958,-2.3809,0.0,-2.4107,-2.3877,-2.3483,-2.3551,-2.3483,-2.3293,-2.2873,-2.3022,-2.3239,-2.2981,-2.294,-2.2954,0.0,0.0,0.0,0.0,-2.3049,0.0,0.0,0.0,-2.3171,-2.3632,0.0,-2.3782,-2.3809,-2.3849,-2.4012,-2.4406,0.0,0.0,0.0,0.0,0.0,0.0,0.0,0.0,-2.5505,-2.564,-2.5708,-2.5749,-2.5572,-2.5599,-2.5898,-2.5762,-2.5803,-2.602,-2.6156,-2.6196,-2.6196,-2.6196,-2.6305,-2.6522,-2.6549,-2.6658,-2.6807,-2.6807,-2.6807,-2.6807,-2.6807,-2.6807,-2.6807,-2.6807,-2.6725,-2.6644,-1.8124,-1.7948,-1.7812,-1.769,-1.7772,-1.8057,-1.8654,-1.8762,-1.8979,0.0,0.0,0.0,0.0,0.0,0.0,0.0,0.0,-2.1136,-2.0539,0.0,-1.9983,0.0,0.0,0.0,0.0,-1.9278,-1.8979,-1.8979,-1.883,-1.883,-1.8993,-1.8993,-1.9305,-1.9929,-2.0811,-2.1299,-2.1516,-2.2398,-2.2846,-2.2995,-2.3008,-2.3361,-2.3877,0.0,-2.3877,-2.3904,-2.4053,0.0,0.0,-2.4161,-2.4107,0.0,0.0,0.0,0.0,-2.3931,-2.408,-2.4243,-2.3931,0.0,0.0,-2.3361,0.0,0.0,0.0,0.0,-2.3415,0.0,-2.3429,-2.3524,-2.3822,-2.3402,-2.3063,-2.3225,-2.3361,0.0,0.0,-2.3171,-2.347,-2.4066,-2.4392,0.0,0.0,0.0,0.0,0.0,0.0,0.0,-2.5654,-2.5694,-2.5762,-2.5884,-2.5627,-2.5599,-2.5898,-2.5762,-2.5925,-2.6346,-2.6346,-2.6359,-2.6359,-2.6359,-2.6359,-2.6373,-2.6522,-2.6658,-2.6807,-2.6807,-2.6807,-2.6807,-2.6807,-2.6807,-2.6807,-2.6807,-2.6807,-2.6807,-1.8301,-1.8192,-1.8097,-1.7826,-1.7921,-1.8179,-1.8694,-1.9006,0.0,0.0,0.0,0.0,0.0,0.0,-2.1231,0.0,0.0,-2.1462,-2.1163,-2.0811,0.0,0.0,0.0,-1.9875,0.0,0.0,-1.9427,-1.9427,-1.9074,-1.9047,-1.9291,-1.9291,-1.9495,-1.9929,-2.1014,-2.1652,-2.1937,-2.2846,0.0,0.0,0.0,-2.3714,-2.3904,0.0,0.0,-2.4216,-2.4365,-2.4433,0.0,-2.4433,-2.4351,-2.4297,-2.4433,-2.4311,-2.4161,-2.4297,-2.4256,0.0,0.0,0.0,-2.4419,-2.3822,0.0,0.0,0.0,0.0,0.0,-2.3429,-2.3537,-2.3605,-2.3592,-2.3524,-2.3402,-2.3239,-2.3253,-2.3253,0.0,-2.328,-2.3347,-2.3239,-2.3754,-2.4216,-2.4473,0.0,0.0,0.0,0.0,0.0,0.0,-2.5694,-2.5708,-2.5762,-2.5572,-2.5545,-2.5762,-2.5898,-2.6006,-2.6061,-2.6359,-2.6508,-2.6508,-2.6508,-2.6549,-2.6658,-2.6698,-2.6753,-2.6807,-2.6807,-2.6807,-2.6807,-2.6807,-2.6807,-2.6807,-2.6807,-2.6807,-2.6807,-1.8531,-1.8423,-1.8314,-1.807,-1.8138,-1.8396,-1.8843,0.0,0.0,0.0,-2.0539,0.0,0.0,0.0,-2.172,0.0,-2.1937,-2.1896,-2.1692,-2.1408,0.0,-2.1435,-2.0892,0.0,0.0,0.0,0.0,-1.9902,-1.9508,-1.94,-1.959,-1.9535,-1.9698,-2.0078,-2.1123,-2.176,-2.2099,-2.3049,-2.3483,0.0,0.0,-2.4053,0.0,0.0,-2.4406,0.0,0.0,-2.4596,-2.465,-2.465,-2.4582,-2.4541,-2.4786,-2.4636,-2.4419,-2.4718,-2.4663,-2.4541,-2.4636,-2.4813,0.0,-2.4338,-2.4284,0.0,-2.366,0.0,-2.3646,-2.3754,-2.3768,-2.3782,-2.3904,-2.3754,-2.3551,-2.3415,-2.3253,-2.3117,0.0,-2.3117,-2.313,-2.2886,-2.3429,-2.3985,-2.4365,-2.4256,0.0,0.0,0.0,0.0,0.0,0.0,-2.5762,-2.5762,-2.5572,-2.5572,-2.5762,-2.6006,-2.6115,-2.6074,-2.6468,-2.6631,-2.6576,-2.6576,-2.6603,-2.6644,-2.6698,-2.6712,-2.6725,-2.678,-2.6807,-2.6807,-2.6807,-2.6807,-2.6807,-2.6807,-2.6807,-2.6807,-1.8803,-1.8667,-1.8531,-1.8369,-1.8477,-1.8708,0.0,0.0,-2.001,0.0,-2.1285,-2.1638,-2.2099,-2.2398,-2.2574,-2.2574,0.0,0.0,-2.2167,-2.1869,0.0,0.0,-2.1638,-2.1543,-2.1706,0.0,0.0,0.0,-2.0037,-1.9875,-1.9888,-1.9752,-1.9902,-2.0363,-2.1123,-2.1611,-2.1977,-2.3008,-2.3551,-2.3727,-2.4189,-2.4351,-2.4365,-2.4663,0.0,-2.4175,-2.4473,-2.4691,-2.4813,-2.4813,-2.4813,-2.484,-2.4989,-2.4935,-2.4867,-2.5138,-2.522,-2.522,-2.5233,-2.5233,-2.5165,-2.4867,0.0,0.0,0.0,0.0,-2.4365,-2.4379,-2.4161,-2.4121,-2.465,-2.4066,-2.3524,-2.3632,-2.328,-2.2886,-2.2588,-2.2696,-2.2846,-2.2981,-2.3415,-2.3809,-2.4066,-2.3727,-2.4039,-2.5342,-2.5043,-2.5125,-2.5871,0.0,-2.5871,-2.5925,-2.5627,-2.5599,-2.5884,-2.6061,-2.6196,-2.6346,-2.6658,-2.6712,-2.6549,-2.6576,-2.6508,-2.6359,-2.6522,-2.6576,-2.659,-2.6725,-2.6807,-2.6807,-2.6807,-2.6807,-2.6807,-2.6807,-2.6807,-2.6807,-1.8952,-1.9074,-1.9115,-1.8871,-1.8938,-1.9183,0.0,0.0,0.0,0.0,-2.1652,-2.1991,-2.2547,-2.2683,-2.2723,-2.2723,-2.2723,0.0,0.0,0.0,0.0,-2.2534,-2.2045,-2.1896,-2.2167,-2.1408,0.0,-2.0987,-2.0132,-1.9888,-2.02,-1.9942,-2.0064,-2.0526,-2.1285,-2.1842,-2.2276,-2.3103,-2.366,-2.4039,-2.4365,-2.4311,0.0,0.0,-2.4487,-2.4351,-2.4758,-2.4935,-2.4989,-2.5084,-2.5125,-2.5125,-2.5165,-2.5138,-2.5111,-2.5084,-2.507,-2.5084,-2.5192,-2.5233,-2.5165,-2.4867,-2.488,-2.488,0.0,0.0,0.0,0.0,-2.4786,-2.4636,-2.4351,-2.4189,-2.3904,-2.3293,-2.2995,-2.2723,-2.2425,-2.271,-2.2927,-2.2846,-2.3429,-2.3822,-2.3809,-2.3999,-2.4351,-2.4921,-2.5057,-2.5396,-2.6047,0.0,0.0,-2.6061,-2.5776,-2.5667,-2.5749,-2.6115,-2.6196,-2.602,-2.6549,-2.6658,-2.6413,-2.6522,-2.6508,-2.6359,-2.6522,-2.6576,-2.659,-2.6725,-2.6807,-2.6807,-2.6807,-2.6807,-2.6807,-2.6807,-2.6807,-2.6807,-1.9373,-1.963,-1.9712,-1.9345,-1.9685,0.0,-2.0159,0.0,0.0,-2.176,0.0,0.0,0.0,-2.29,-2.2981,-2.2981,-2.2981,0.0,0.0,0.0,0.0,-2.2778,-2.252,-2.2466,-2.2628,-2.2072,0.0,-2.1408,0.0,-2.0404,-2.0336,-2.0227,-2.0295,-2.058,-2.134,-2.1882,-2.2303,-2.3239,-2.3822,-2.4134,-2.4446,-2.4406,0.0,-2.4541,-2.4609,-2.4582,-2.4894,-2.5057,-2.5138,-2.5287,-2.5342,-2.5342,-2.5342,-2.5342,-2.5342,-2.5315,-2.5274,-2.5274,-2.5464,-2.5477,-2.541,-2.5301,-2.5342,-2.5315,-2.5016,-2.5016,-2.5125,0.0,0.0,-2.5016,0.0,-2.4596,-2.3958,-2.3063,-2.2723,-2.2534,-2.2357,-2.2601,0.0,0.0,-2.3117,-2.3375,-2.3293,-2.3931,-2.4433,-2.4663,-2.484,-2.5179,-2.5708,-2.5342,-2.5396,-2.6006,-2.5817,-2.5722,-2.5776,-2.6101,-2.6169,-2.6006,-2.6481,-2.659,-2.6359,-2.6454,-2.64,-2.6278,-2.6346,-2.6413,-2.6481,-2.6644,-2.6753,-2.6807,-2.6807,-2.6807,-2.6807,-2.6807,-2.6807,-2.6807,-1.9902,-2.0173,-2.0241,-1.9807,-2.0471,0.0,0.0,-2.1068,0.0,-2.2127,0.0,-2.2683,0.0,-2.3103,-2.3253,0.0,0.0,-2.3171,0.0,-2.3022,-2.3049,-2.29,-2.3022,-2.3076,-2.3063,-2.2886,0.0,0.0,0.0,-2.1041,-2.0363,-2.0471,-2.0553,-2.0661,-2.1313,-2.1842,-2.2303,-2.347,-2.4012,-2.4134,-2.4446,-2.4541,-2.4541,-2.4691,-2.4758,-2.4813,-2.4962,-2.5084,-2.5233,-2.541,-2.5464,-2.5464,-2.5477,-2.5505,-2.5518,-2.5627,-2.5572,-2.5518,-2.5776,-2.5762,-2.5694,-2.5817,-2.5871,-2.5817,-2.5572,-2.5518,-2.5572,-2.5708,-2.545,-2.5342,0.0,-2.5003,-2.389,-2.3049,-2.2669,-2.2493,0.0,0.0,0.0,0.0,0.0,0.0,-2.2818,-2.3687,-2.4284,-2.4406,-2.4419,-2.465,-2.5192,-2.5165,-2.5369,-2.5925,-2.5817,0.0,-2.5898,0.0,-2.6142,-2.6129,-2.6413,-2.6468,-2.6332,-2.6332,-2.6251,-2.6101,-2.6129,-2.6224,-2.6373,-2.6522,-2.6658,-2.6807,-2.6807,-2.6807,-2.6807,-2.678,-2.678,-2.6807,-1.9897,-2.0431,-2.0566,0.0,0.0,-2.1584,0.0,-2.1828,-2.2127,-2.2601,-2.2818,0.0,-2.3307,-2.3375,-2.347,-2.3592,-2.3592,0.0,0.0,0.0,0.0,-2.3524,-2.3551,-2.351,-2.3375,-2.2995,-2.2479,0.0,0.0,-2.0878,-2.0512,-2.0417,-2.0634,-2.1109,-2.1231,-2.1882,-2.2927,-2.3877,-2.4202,-2.4134,-2.4446,-2.4487,-2.4379,-2.4419,-2.4582,-2.4813,-2.4962,-2.5043,-2.5098,-2.5369,-2.5464,-2.5477,-2.5599,-2.5654,-2.564,-2.5532,-2.5477,-2.5477,-2.5532,-2.5518,-2.5518,-2.5532,-2.564,-2.5749,-2.5817,-2.583,-2.5871,-2.602,-2.5993,-2.583,-2.5464,0.0,0.0,-2.3632,-2.3375,0.0,0.0,0.0,0.0,0.0,0.0,-2.3917,-2.3049,-2.3361,-2.3632,-2.3646,-2.3646,-2.4107,-2.5179,-2.4772,-2.4989,0.0,-2.6061,0.0,0.0,0.0,-2.6251,-2.6129,-2.6305,-2.6332,-2.6169,-2.6169,-2.6101,-2.5952,-2.6074,-2.6224,-2.6373,-2.6522,-2.6658,-2.6807,-2.6807,-2.6807,-2.678,-2.6658,-2.6698,-2.682,0.0,0.0,0.0,0.0,0.0,0.0,0.0,-2.2479,0.0,-2.2886,-2.2886,-2.2981,-2.3198,-2.3293,-2.3361,-2.3429,-2.3456,-2.3456,0.0,-2.3456,-2.3483,-2.3551,-2.3551,0.0,-2.3578,0.0,-2.2764,-2.2004,0.0,-2.1177,-2.0431,-2.0594,-2.0783,-2.1014,-2.1706,-2.2344,-2.2954,-2.4012,0.0,-2.4053,-2.4487,-2.4596,-2.4473,-2.4541,-2.4718,-2.4921,-2.4989,-2.5016,-2.507,-2.5355,-2.5518,-2.5586,-2.5667,-2.5749,-2.5776,-2.5708,-2.564,-2.5599,-2.5667,-2.564,-2.5599,-2.5667,-2.5749,-2.5817,-2.5884,-2.5952,-2.6047,-2.6115,-2.6129,-2.5952,-2.5342,-2.4935,0.0,0.0,0.0,0.0,0.0,0.0,-2.3822,0.0,0.0,0.0,-2.3334,-2.3429,-2.3592,-2.3687,-2.3605,-2.408,-2.5287,-2.4786,-2.4935,-2.5966,0.0,0.0,0.0,0.0,0.0,-2.6251,-2.6237,-2.6196,-2.6129,-2.6129,-2.6047,-2.5898,-2.5979,-2.6101,-2.6251,-2.6481,-2.6658,-2.6807,-2.6807,-2.6753,-2.6685,-2.6698,-2.6698,-2.6698,0.0,-2.0915,0.0,0.0,-2.1964,0.0,0.0,-2.2954,-2.3185,-2.3063,-2.2954,-2.294,-2.3076,-2.3198,-2.3293,-2.3307,-2.3334,-2.3334,-2.3334,-2.3334,-2.3375,-2.3483,-2.3524,-2.3578,-2.3632,-2.3578,-2.3103,0.0,0.0,-2.157,-2.0526,-2.0824,-2.096,-2.1055,-2.2289,-2.2886,-2.3049,0.0,-2.4311,-2.4039,-2.4541,-2.4663,-2.4582,-2.4745,-2.488,-2.5016,-2.5016,-2.5016,-2.5057,-2.5287,-2.5464,-2.5599,-2.564,-2.5722,-2.5817,-2.5844,-2.5776,-2.5722,-2.5871,-2.5817,-2.5762,-2.5871,-2.5898,-2.5898,-2.5898,-2.5993,-2.6074,-2.6074,-2.6074,-2.5925,-2.5423,-2.5192,0.0,0.0,0.0,0.0,0.0,0.0,-2.4297,-2.4406,-2.4419,-2.4229,-2.3727,-2.3578,-2.3646,-2.4012,-2.3754,-2.4039,-2.507,-2.4772,-2.4962,-2.583,0.0,-2.6061,-2.6074,0.0,-2.6115,0.0,-2.6196,-2.6129,-2.6129,-2.6101,-2.6006,-2.5898,-2.5898,-2.6006,-2.6196,-2.6468,-2.6658,-2.6807,-2.6766,-2.6685,-2.659,-2.6685,-2.6644,-2.6576,0.0,0.0,0.0,0.0,0.0,0.0,0.0,-2.3022,-2.3225,-2.3198,-2.3185,-2.3239,-2.3402,-2.3415,-2.3483,-2.3632,-2.3646,-2.3646,-2.3646,-2.3646,-2.3646,-2.366,-2.3782,-2.3727,-2.3483,-2.3714,-2.3415,0.0,0.0,-2.1774,-2.1123,-2.0892,-2.1136,-2.1815,-2.2628,-2.3225,0.0,-2.4161,-2.4351,-2.4311,-2.4514,-2.4582,-2.4582,-2.4745,-2.488,-2.5016,-2.5016,-2.5016,-2.5016,-2.5057,-2.5165,-2.5301,-2.545,-2.5505,-2.5532,-2.5667,-2.5708,-2.5722,-2.5871,-2.5884,-2.5884,-2.5898,-2.5898,-2.5898,-2.5898,-2.5925,-2.5925,-2.5925,-2.5925,-2.5871,-2.5667,-2.5844,-2.5776,0.0,0.0,0.0,0.0,0.0,-2.488,-2.5287,-2.4528,-2.408,-2.4419,-2.3483,-2.3334,-2.4419,-2.3727,-2.3483,-2.4012,-2.4365,-2.4921,-2.5694,-2.5722,-2.5803,-2.5925,-2.6183,0.0,-2.6359,-2.6196,-2.6129,-2.6129,-2.5993,-2.5925,-2.5898,-2.5898,-2.6061,-2.6346,-2.6508,-2.6658,-2.678,-2.6644,-2.659,-2.6549,-2.6454,-2.6468,-2.6576,0.0,0.0,0.0,0.0,0.0,0.0,0.0,-2.3198,-2.3293,-2.3233,-2.3361,-2.3239,-2.3307,-2.3402,-2.347,-2.3537,-2.3632,-2.3646,-2.3551,-2.366,-2.3434,-2.3434,-2.3608,-2.3635,-2.3782,-2.3501,-2.3483,0.0,0.0,0.0,-2.1489,-2.1543,-2.1882,-2.2452,-2.3198,-2.3646,-2.3836,-2.4392,-2.4568,-2.4487,-2.4636,-2.4704,-2.4718,-2.4867,-2.4962,-2.5016,-2.5016,-2.5016,-2.5016,-2.5016,-2.5111,-2.5247,-2.5301,-2.5396,-2.5477,-2.5532,-2.5545,-2.5572,-2.5627,-2.5708,-2.5776,-2.5776,-2.583,-2.5898,-2.5898,-2.5898,-2.5898,-2.5898,-2.5966,-2.5993,-2.5844,-2.5925,-2.5952,0.0,0.0,0.0,0.0,-2.5722,-2.5572,-2.583,-2.5491,-2.5233,-2.5233,-2.4311,-2.3809,-2.4012,-2.328,-2.3225,-2.4121,-2.4338,-2.465,-2.5138,-2.5667,-2.5939,-2.5898,-2.602,-2.6183,-2.6359,-2.6115,-2.6047,-2.6129,-2.5966,-2.5898,-2.5898,-2.6006,-2.6169,-2.6359,-2.6413,-2.6536,-2.6658,-2.659,-2.6522,-2.6468,-2.6576,-2.6603,-2.659,-0.7685,0.0,-1.4161,0.0,-1.9013,-2.2884,-2.347,-2.3402,-2.3415,-2.3434,-2.2042,-2.16,-2.3085,-2.347,-2.3524,-2.3524,-2.3578,-2.3592,-2.3537,-2.334,-2.2526,-2.0162,-1.9719,0.0,-2.1485,-2.299,-2.3367,-2.3198,-2.29,0.0,-2.2059,-2.2181,-2.2534,0.0,-2.3646,-2.3999,-2.4189,-2.4609,-2.4718,-2.4636,-2.4758,-2.4786,-2.4813,-2.4962,-2.5016,-2.5016,-2.5016,-2.5016,-2.5016,-2.5016,-2.5084,-2.5165,-2.5165,-2.5247,-2.5342,-2.5369,-2.5396,-2.541,-2.545,-2.5532,-2.5627,-2.5627,-2.5694,-2.5776,-2.5776,-2.5817,-2.5844,-2.5898,-2.5993,-2.6047,-2.5979,-2.5966,-2.602,-2.6196,0.0,0.0,0.0,-2.6061,-2.5939,-2.6047,-2.5762,-2.5599,-2.5749,-2.4786,-2.4189,-2.4256,-2.3483,-2.3375,-2.4243,-2.4406,-2.4636,0.0,0.0,0.0,0.0,-2.5925,-2.6074,-2.6291,-2.6074,-2.6006,-2.6061,-2.5993,-2.5966,-2.5979,-2.6129,-2.6291,-2.6427,-2.6427,-2.6508,-2.6644,-2.659,-2.6522,-2.6454,-2.6658,-2.6658,-2.659,-1.9036,-2.3008,-2.1326,-1.3604,-1.8561,-2.3551,-2.366,-2.33,-2.3286,-2.3447,-1.8951,-1.7743,-2.2859,-2.3714,-2.3687,-2.3687,-2.3537,-2.3537,-2.3447,-2.3327,-1.9731,0.0,0.0,-1.3096,-1.595,-2.1,-2.3728,-2.3687,0.0,0.0,-2.2995,-2.2696,-2.294,-2.3687,-2.3822,-2.4229,-2.4772,-2.4786,-2.4786,-2.4786,-2.4786,-2.4786,-2.4813,-2.4962,-2.5016,-2.5016,-2.5016,-2.5016,-2.5016,-2.5016,-2.5016,-2.5016,-2.5016,-2.5016,-2.5057,-2.5192,-2.5233,-2.526,-2.5423,-2.5464,-2.5464,-2.5464,-2.5464,-2.5464,-2.5464,-2.5586,-2.5722,-2.5871,-2.5898,-2.5952,-2.6101,-2.6129,-2.6074,-2.5939,0.0,0.0,0.0,-2.6006,-2.5898,-2.5898,-2.4867,-2.4609,-2.5776,-2.4568,-2.4243,-2.5572,-2.4704,-2.4107,-2.4121,0.0,0.0,-2.545,-2.5599,0.0,-2.5694,-2.5993,-2.6129,-2.6129,-2.6129,-2.6047,-2.5898,-2.6061,-2.6129,-2.6129,-2.6291,-2.6427,-2.6576,-2.6576,-2.6658,-2.678,-2.6631,-2.6576,-2.6576,-2.6576,-2.6576,-2.659,-0.6161,-0.7325,-1.028,-1.8743,-2.222,-2.3966,-2.3568,-2.3487,-2.1682,-1.6469,-1.4034,-1.5818,-2.3199,-2.3944,-2.3836,0.0,-2.3944,-2.3675,0.0,-2.3755,-2.2564,-1.9488,-0.9319,-0.4204,-0.5061,-1.7392,-2.4053,-2.389,0.0,0.0,0.0,-2.3361,-2.366,-2.4284,-2.4433,-2.4609,-2.4786,-2.4786,-2.4786,-2.4786,-2.4786,-2.4867,-2.4948,-2.5003,-2.5016,-2.5016,-2.5016,-2.5016,-2.5016,-2.5016,-2.5016,-2.5016,-2.5016,-2.5016,-2.5043,-2.507,-2.5084,-2.5098,-2.5138,-2.5233,-2.5301,-2.5301,-2.5396,-2.5464,-2.5464,-2.5586,-2.5722,-2.5871,-2.5898,-2.5925,-2.5966,-2.6061,-2.6142,-2.6196,-2.6346,0.0,-2.6427,-2.6224,-2.6129,-2.6346,-2.5844,-2.5762,0.0,-2.5532,0.0,0.0,-2.4433,-2.4107,-2.4406,0.0,0.0,0.0,-2.564,0.0,-2.5396,-2.5776,-2.5925,-2.583,-2.5939,-2.6006,-2.6061,-2.6115,-2.6183,-2.6291,-2.6454,-2.6536,-2.6576,-2.6576,-2.6603,-2.6644,-2.659,-2.6576,-2.659,-2.6698,-2.6725,-2.6725,0.0,0.0,-0.326,-1.3156,-1.758,-2.0527,-2.3431,-2.3675,-2.0656,-1.2946,-1.1725,-1.4754,-2.3094,-2.4148,0.0,-2.4066,-2.4094,0.0,-2.3903,-2.3669,-2.0913,-1.4788,-0.5139,0.0,0.0,0.0,0.0,-2.3782,-2.3822,-2.3782,-2.3931,-2.3931,-2.4189,-2.465,-2.4758,-2.4826,-2.488,-2.488,-2.488,-2.488,-2.488,-2.4935,-2.5016,-2.5016,-2.5016,-2.5016,-2.5016,-2.5016,-2.5016,-2.5016,-2.5016,-2.5016,-2.5016,-2.5016,-2.5016,-2.5016,-2.5016,-2.5016,-2.5016,-2.5084,-2.5138,-2.5138,-2.5233,-2.5301,-2.5355,-2.545,-2.5586,-2.5776,-2.5817,-2.583,-2.5884,-2.602,-2.6169,-2.6251,-2.6359,-2.6468,-2.6549,-2.6413,-2.6332,-2.64,-2.6156,0.0,0.0,-2.5844,0.0,0.0,-2.5003,-2.484,0.0,0.0,0.0,-2.5125,-2.5776,0.0,-2.5233,-2.5667,-2.583,-2.5694,-2.5884,-2.6047,-2.6129,-2.6251,-2.6346,-2.6454,-2.659,-2.6658,-2.6658,-2.6658,-2.6658,-2.6658,-2.6658,-2.6658,-2.6685,-2.6766,-2.6807,-2.6807,0.0,0.0,0.0,0.0,-0.6301,0.0,-2.1131,-2.2978,-2.082,-1.3878,-1.1785,-1.363,-2.1611,-2.3421,-2.397,-2.4243,0.0,0.0,0.0,-2.1815,-1.508,-0.0606,0.0,0.0,0.0,-1.4854,-2.3094,-2.4202,-2.4161,-2.4202,-2.4351,-2.4365,-2.4528,-2.4786,-2.4813,-2.488,-2.5003,-2.5016,-2.5016,-2.5003,-2.5016,-2.5016,-2.5016,-2.5016,-2.5016,-2.5016,-2.5016,-2.5016,-2.5016,-2.5016,-2.5016,-2.5016,-2.5016,-2.5016,-2.5016,-2.5016,-2.5016,-2.5016,-2.5016,-2.5016,-2.5016,-2.5016,-2.5016,-2.5057,-2.5192,-2.5233,-2.5315,-2.5627,-2.5694,-2.5722,-2.5871,-2.6006,-2.6115,-2.6129,-2.6359,-2.6549,-2.6576,-2.6576,-2.6468,-2.6196,0.0,0.0,0.0,-2.5694,-2.5817,0.0,0.0,0.0,0.0,0.0,-2.5111,-2.5694,-2.5966,-2.583,-2.5247,-2.5694,-2.583,-2.5708,-2.5993,-2.6129,-2.6142,-2.6454,-2.6576,-2.659,-2.6725,-2.6807,-2.6807,-2.6807,-2.6807,-2.6807,-2.6807,-2.6807,-2.6807,-2.6807,-2.6807,-2.6807,0.0,0.0,0.0,0.0,-0.1503,-0.3593,-0.5423,-1.6044,-2.312,-2.1575,-1.03,-0.3632,-0.5438,-1.6674,-2.4104,-2.4211,-2.4077,-1.8795,-0.6358,-0.5447,-0.3932,-0.0303,0.0,0.0,0.0,-0.3626,-1.1771,-2.4202,-2.4311,-2.4351,-2.4351,-2.4582,-2.4718,-2.4786,-2.4921,-2.4921,-2.4867,-2.4962,-2.4948,-2.4867,-2.4962,-2.5016,-2.5016,-2.5016,-2.5016,-2.5016,-2.5016,-2.5016,-2.5016,-2.5016,-2.5016,-2.5016,-2.5016,-2.5016,-2.5016,-2.5016,-2.5016,-2.5016,-2.5016,-2.5016,-2.5016,-2.5016,-2.5016,-2.5057,-2.5192,-2.5233,-2.5287,-2.5477,-2.5599,-2.5708,-2.5722,-2.5871,-2.5993,-2.6115,-2.6183,-2.6305,-2.6536,-2.6481,-2.6427,0.0,-2.6305,-2.6224,-2.6251,-2.6291,-2.6196,0.0,0.0,0.0,-2.5898,-2.5518,-2.5477,-2.583,-2.5925,-2.5776,-2.541,-2.5749,-2.5884,-2.5844,-2.6047,-2.6183,-2.6305,-2.6481,-2.6644,-2.6753,-2.678,-2.6807,-2.6807,-2.6807,-2.6807,-2.6807,-2.6807,-2.6807,-2.6807,-2.6807,-2.6807,-2.6807,0.0,0.0,0.0,0.0,0.0,0.0,0.0,-0.7581,-1.5857,-2.3261,-1.0065,0.0,0.0,-0.7937,-1.5955,-2.3506,-2.3987,-1.7109,-0.0916,0.0,0.0,0.0,0.0,0.0,0.0,0.0,-0.6056,-1.8711,-2.2441,-2.4365,-2.446,-2.4609,-2.4786,-2.4989,-2.5016,-2.5003,-2.4989,-2.5016,-2.4962,-2.4894,-2.4989,-2.5016,-2.5016,-2.4948,-2.4921,-2.4921,-2.4921,-2.4921,-2.4935,-2.5003,-2.5016,-2.5016,-2.5016,-2.5016,-2.5016,-2.5016,-2.5016,-2.5016,-2.5016,-2.5016,-2.5016,-2.5016,-2.5016,-2.5043,-2.5125,-2.5179,-2.5247,-2.5342,-2.5477,-2.5586,-2.5586,-2.5708,-2.583,-2.5925,-2.6101,-2.6291,-2.6454,-2.6468,-2.6481,-2.6549,-2.6373,-2.6251,-2.6251,-2.6251,-2.6183,-2.6006,0.0,0.0,-2.5898,-2.5627,-2.5599,-2.5884,-2.583,-2.5694,-2.5464,-2.5694,-2.583,-2.5898,-2.6129,-2.6278,-2.6359,-2.6576,-2.6725,-2.6807,-2.6807,-2.6807,-2.6807,-2.6807,-2.6807,-2.6807,-2.6807,-2.6807,-2.6807,-2.6807,-2.6807,-2.6807,0.0,0.0,0.0,0.0,0.0,0.0,0.0,0.0,-0.49,-1.8742,-0.8618,0.0,0.0,0.0,-0.5564,-1.9279,-2.0414,-1.4765,-0.0925,0.0,0.0,0.0,0.0,0.0,0.0,0.0,-0.335,-1.0265,-1.9687,-2.4379,-2.4541,-2.4582,-2.4813,-2.5165,-2.5057,-2.5084,-2.5192,-2.507,-2.5016,-2.5016,-2.5016,-2.5016,-2.4989,-2.4867,-2.4786,-2.4772,-2.4772,-2.4772,-2.4813,-2.4948,-2.5003,-2.5016,-2.5043,-2.5057,-2.5057,-2.507,-2.507,-2.5057,-2.5016,-2.5016,-2.5016,-2.5016,-2.5043,-2.5057,-2.5057,-2.5165,-2.526,-2.526,-2.5396,-2.5505,-2.5505,-2.5599,-2.5694,-2.5694,-2.602,-2.6291,-2.6291,0.0,-2.6536,-2.6508,-2.6278,-2.6101,-2.6061,-2.5966,-2.6006,-2.6278,-2.6101,-2.6006,0.0,-2.5749,-2.5627,-2.583,-2.5694,-2.5586,-2.5505,-2.5654,-2.5776,-2.5898,-2.6224,-2.6359,-2.6373,-2.6658,-2.6807,-2.6807,-2.6807,-2.6807,-2.6807,-2.6807,-2.6807,-2.6807,-2.6807,-2.6807,-2.6807,-2.6807,-2.6807,-2.6807,0.0,0.0,0.0,0.0,0.0,0.0,0.0,0.0,-0.0925,-0.3389,-0.1542,0.0,0.0,0.0,-0.0928,-0.3421,-0.3728,-0.279,-0.0309,0.0,0.0,0.0,0.0,0.0,0.0,0.0,-0.0614,-0.1824,-1.6852,-2.4278,-2.4144,-2.4663,-2.4786,-2.4867,-2.4962,-2.5043,-2.5057,-2.5043,-2.5016,-2.5016,-2.5016,-2.4975,-2.4894,-2.488,-2.4786,-2.4372,-2.4372,-2.4731,-2.4786,-2.4826,-2.4921,-2.5043,-2.5165,-2.5192,-2.5233,-2.5355,-2.5301,-2.5179,-2.5057,-2.5016,-2.5016,-2.5016,-2.5111,-2.5192,-2.5192,-2.5315,-2.5423,-2.5423,-2.5545,-2.5654,-2.5654,-2.5667,-2.5694,-2.5694,-2.5844,-2.5979,-2.5979,0.0,-2.6346,-2.6224,-2.6047,-2.5884,-2.5776,-2.5844,-2.5925,-2.5979,-2.6169,-2.6183,-2.5952,-2.5871,-2.5749,-2.5532,-2.5396,-2.541,-2.5654,-2.5803,-2.5884,-2.5898,-2.6224,-2.6359,-2.6373,-2.6658,-2.6807,-2.6807,-2.6807,-2.6807,-2.6807,-2.6807,-2.6807,-2.6807,-2.6807,-2.6807,-2.6807,-2.6807,-2.6807,-2.6807,0.0,0.0,0.0,0.0,0.0,0.0,0.0,0.0,0.0,0.0,0.0,0.0,0.0,0.0,0.0,0.0,0.0,0.0,0.0,0.0,0.0,0.0,0.0,0.0,0.0,0.0,0.0,-0.0,-0.7368,-1.5684,-2.4372,-2.4479,-2.4599,-2.5016,-2.5016,-2.5057,-2.5125,-2.5057,-2.5016,-2.5016,-2.5016,-2.4975,-2.488,-2.4799,-2.1864,-1.8659,-2.2692,-2.4305,-2.4731,-2.4772,-2.4948,-2.5138,-2.522,-2.5287,-2.5369,-2.545,-2.5355,-2.5192,-2.5057,-2.5016,-2.5043,-2.5111,-2.5179,-2.5247,-2.5342,-2.5477,-2.5572,-2.5477,-2.5586,-2.5667,-2.5586,-2.5572,-2.5627,-2.5776,-2.5939,0.0,0.0,-2.6196,-2.6183,-2.602,-2.5884,-2.5762,-2.5694,-2.5749,-2.5817,-2.5898,-2.5884,-2.5817,-2.5667,-2.5667,-2.5532,-2.5233,-2.5396,-2.5545,-2.5694,-2.583,-2.5898,-2.5898,-2.6224,-2.6359,-2.6373,-2.6658,-2.6807,-2.6807,-2.6807,-2.6807,-2.6807,-2.6807,-2.6807,-2.6807,-2.6807,-2.6807,-2.6807,-2.6807,-2.6807,-2.6807,0.0,0.0,0.0,0.0,0.0,0.0,0.0,0.0,0.0,0.0,0.0,0.0,0.0,0.0,0.0,0.0,0.0,0.0,0.0,0.0,0.0,0.0,0.0,0.0,0.0,0.0,0.0,0.0,0.0,-0.7397,-2.1689,-2.3597,-2.4653,-2.5125,-2.5057,-2.507,-2.5179,-2.507,-2.5016,-2.5016,-2.5016,-2.4948,-2.484,-2.2537,-1.6833,-1.0626,-1.8545,-2.2667,-2.4412,-2.4731,-2.4989,-2.5287,-2.5287,-2.5396,-2.5518,-2.5545,-2.5464,-2.5301,-2.5165,-2.5125,-2.5138,-2.5247,-2.5315,-2.5369,-2.5477,-2.564,-2.5708,-2.5586,-2.5654,-2.5708,-2.5586,-2.5532,-2.5586,-2.5817,0.0,0.0,0.0,-2.6169,-2.6074,-2.5925,-2.5776,-2.5694,-2.5694,-2.5694,-2.5749,-2.5844,-2.5667,-2.5545,-2.5518,-2.5545,-2.5423,-2.5125,-2.5464,-2.564,-2.564,-2.5817,-2.5898,-2.5898,-2.6224,-2.6359,-2.6373,-2.6658,-2.6807,-2.6807,-2.6807,-2.6807,-2.6807,-2.6807,-2.6807,-2.6807,-2.6807,-2.6807,-2.6807,-2.6807,-2.6807,-2.6807,0.0,0.0,0.0,0.0,0.0,0.0,0.0,0.0,0.0,0.0,0.0,0.0,0.0,0.0,0.0,0.0,0.0,0.0,0.0,0.0,0.0,0.0,0.0,0.0,0.0,0.0,0.0,0.0,0.0,-0.4632,-1.3531,-2.1063,-2.4853,-2.4826,-2.4962,-2.5016,-2.5043,-2.5016,-2.5016,-2.5016,-2.5016,-2.4921,-2.4132,-1.6305,-0.8233,-0.2114,-0.9953,-1.8021,-2.4826,-2.465,-2.4975,-2.545,-2.545,-2.5545,-2.5708,-2.583,-2.5762,-2.5627,-2.5477,-2.5423,-2.5423,-2.545,-2.5545,-2.5654,-2.5667,-2.5776,-2.5884,-2.5871,-2.5884,-2.5884,-2.5871,-2.5762,-2.5667,-2.5708,0.0,0.0,-2.5762,-2.5966,-2.6074,-2.5925,-2.5776,-2.5694,-2.5694,-2.5694,-2.5694,-2.5708,-2.5817,-2.5817,-2.5667,-2.5803,-2.5722,-2.545,-2.5464,-2.5477,-2.5477,-2.5762,-2.5898,-2.5898,-2.6224,-2.6359,-2.6373,-2.6658,-2.6807,-2.6807,-2.6807,-2.6807,-2.6807,-2.6807,-2.6807,-2.6807,-2.6807,-2.6807,-2.6807,-2.6807,-2.6807,-2.6807,0.0,0.0,0.0,0.0,0.0,0.0,0.0,0.0,0.0,0.0,0.0,0.0,0.0,0.0,0.0,0.0,0.0,0.0,0.0,0.0,0.0,0.0,0.0,0.0,0.0,0.0,0.0,0.0,0.0,-0.4366,-1.2736,-2.0937,-2.5016,-2.4935,-2.5003,-2.5016,-2.5016,-2.5016,-2.5016,-2.5016,-2.5016,-2.4921,-2.4119,-1.5684,-0.7323,-0.1209,-0.9044,-1.7374,-2.4772,-2.4609,-2.4894,-2.5342,-2.5423,-2.5572,-2.5722,-2.5871,-2.5803,-2.5694,-2.5722,-2.5599,-2.5477,-2.5586,-2.5654,-2.5708,-2.5803,-2.5871,-2.5898,-2.5898,-2.5898,-2.5898,-2.5898,-2.5776,-2.5749,-2.5939,0.0,-2.5925,-2.5952,-2.5966,-2.5939,-2.5803,-2.5722,-2.5694,-2.5694,-2.5694,-2.5694,-2.5694,-2.5654,-2.5599,-2.5545,-2.5518,-2.5477,-2.5464,-2.5464,-2.5464,-2.5464,-2.5762,-2.5898,-2.5898,-2.6224,-2.6359,-2.6373,-2.6658,-2.6807,-2.6807,-2.6807,-2.6807,-2.6807,-2.6807,-2.6807,-2.6807,-2.6807,-2.6807,-2.6807,-2.6807,-2.6807,-2.6807,0.0,0.0,0.0,0.0,0.0,0.0,0.0,0.0,0.0,0.0,0.0,0.0,0.0,0.0,0.0,0.0,0.0,0.0,0.0,0.0,0.0,0.0,0.0,0.0,0.0,0.0,0.0,0.0,0.0,-0.2822,-0.8757,-1.9781,-2.5138,-2.5057,-2.5016,-2.5016,-2.5016,-2.5016,-2.5016,-2.5016,-2.5016,-2.4894,-2.4106,-1.5684,-0.7323,-0.0605,-0.6351,-1.5267,-2.4492,-2.4704,-2.4948,-2.5315,-2.5369,-2.5491,-2.564,-2.5749,-2.5694,-2.5654,-2.5803,-2.5694,-2.5572,-2.5722,-2.5762,-2.5776,-2.5884,-2.5898,-2.5898,-2.5898,-2.5898,-2.5898,-2.5898,-2.5817,-2.583,-2.602,-2.5966,-2.5939,-2.6047,-2.5966,-2.5871,-2.5762,-2.5762,-2.5762,-2.5762,-2.5762,-2.5762,-2.5762,-2.5654,-2.5599,-2.5599,-2.5464,-2.541,-2.5464,-2.5518,-2.5518,-2.5464,-2.5762,-2.5898,-2.5898,-2.6224,-2.6359,-2.6373,-2.6658,-2.6807,-2.6807,-2.6807,-2.6807,-2.6807,-2.6807,-2.6807,-2.6807,-2.6807,-2.6807,-2.6807,-2.6807,-2.6807,-2.6807,0.0,0.0,0.0,0.0,0.0,0.0,0.0,0.0,0.0,0.0,0.0,0.0,0.0,0.0,0.0,0.0,0.0,0.0,0.0,0.0,0.0,0.0,0.0,0.0,0.0,0.0,0.0,0.0,0.0,0.0,-0.0313,-1.6951,-2.4854,-2.5111,-2.5057,-2.5016,-2.5016,-2.5016,-2.5016,-2.5016,-2.5016,-2.488,-2.3721,-1.5675,-0.7315,0.0,0.0,-1.0439,-2.4626,-2.4586,-2.5138,-2.5423,-2.5287,-2.5342,-2.5464,-2.5464,-2.5464,-2.5505,-2.5654,-2.5694,-2.5722,-2.5871,-2.5898,-2.5898,-2.5898,-2.5898,-2.5898,-2.5898,-2.5898,-2.5898,-2.5898,-2.5898,-2.5898,-2.5898,-2.5898,-2.5898,-2.5898,-2.5898,-2.5898,-2.5898,-2.5898,-2.5898,-2.5898,-2.5898,-2.5898,-2.5898,-2.5898,-2.5898,-2.5898,-2.5762,-2.5627,-2.5464,-2.5599,-2.5627,-2.5464,-2.5762,-2.5898,-2.5898,-2.6224,-2.6359,-2.6373,-2.6658,-2.6807,-2.6807,-2.6807,-2.6807,-2.6807,-2.6807,-2.6807,-2.6807,-2.6807,-2.6807,-2.6807,-2.6807,-2.6807,-2.6807,0.0,0.0,0.0,0.0,0.0,0.0,0.0,0.0,0.0,0.0,0.0,0.0,0.0,0.0,0.0,0.0,0.0,0.0,0.0,0.0,0.0,0.0,0.0,0.0,0.0,0.0,0.0,0.0,0.0,0.0,-0.0,-0.5009,-1.377,-2.5111,-2.5084,-2.5057,-2.5016,-2.5016,-2.5016,-2.5016,-2.5016,-2.4935,-2.4492,-2.1937,-1.2243,0.0,0.0,-0.7042,-1.6974,-2.2648,-2.5003,-2.5165,-2.522,-2.526,-2.5315,-2.5423,-2.5396,-2.5355,-2.5627,-2.5694,-2.5722,-2.5871,-2.5898,-2.5898,-2.5898,-2.5898,-2.5898,-2.5898,-2.5898,-2.5898,-2.5898,-2.5898,-2.5898,-2.5898,-2.5898,-2.5898,-2.5898,-2.5898,-2.5898,-2.5898,-2.5898,-2.5898,-2.5898,-2.5898,-2.5898,-2.5898,-2.5898,-2.5898,-2.5898,-2.5762,-2.5627,-2.5464,-2.5599,-2.5627,-2.5464,-2.5762,-2.5898,-2.5898,-2.6224,-2.6359,-2.6373,-2.6658,-2.6807,-2.6807,-2.6807,-2.6807,-2.6807,-2.6807,-2.6807,-2.6807,-2.6807,-2.6807,-2.6807,-2.6807,-2.6807,-2.6807,0.0,0.0,0.0,0.0,0.0,0.0,0.0,0.0,0.0,0.0,0.0,0.0,0.0,0.0,0.0,0.0,0.0,0.0,0.0,0.0,0.0,0.0,0.0,0.0,0.0,0.0,0.0,0.0,0.0,0.0,0.0,0.0,-0.5319,-1.5321,-2.1939,-2.5084,-2.5057,-2.5043,-2.5016,-2.5016,-2.5016,-2.4921,-2.4758,-2.4758,-1.6565,-0.4872,-0.4897,-0.8292,-1.3883,-2.2105,-2.5016,-2.5043,-2.5125,-2.5138,-2.5165,-2.5274,-2.522,-2.522,-2.5518,-2.5599,-2.5654,-2.5844,-2.5898,-2.5898,-2.5898,-2.5898,-2.5898,-2.5898,-2.5898,-2.5898,-2.5898,-2.5898,-2.5898,-2.5898,-2.5898,-2.5898,-2.5898,-2.5898,-2.5898,-2.5898,-2.5898,-2.5898,-2.5898,-2.5898,-2.5898,-2.5898,-2.5898,-2.5898,-2.5898,-2.5762,-2.5654,-2.5545,-2.564,-2.564,-2.5545,-2.5776,-2.5898,-2.5898,-2.6224,-2.6359,-2.6373,-2.6658,-2.6807,-2.6807,-2.6807,-2.6807,-2.6807,-2.6807,-2.6807,-2.6807,-2.6807,-2.6807,-2.6807,-2.6807,-2.6807,-2.6807,0.0,0.0,0.0,0.0,0.0,0.0,0.0,0.0,0.0,0.0,0.0,0.0,0.0,0.0,0.0,0.0,0.0,0.0,0.0,0.0,0.0,0.0,0.0,0.0,0.0,0.0,0.0,0.0,0.0,0.0,0.0,0.0,0.0,-0.0626,-1.6584,-2.4152,-2.5111,-2.5043,-2.5016,-2.5016,-2.5016,-2.484,-2.4596,-2.501,-1.9658,-1.2195,-1.2338,-1.2392,-1.3658,-2.2262,-2.5125,-2.5016,-2.5016,-2.5016,-2.5016,-2.5016,-2.5016,-2.5084,-2.5369,-2.5464,-2.5532,-2.583,-2.5884,-2.5884,-2.5898,-2.5898,-2.5898,-2.5898,-2.5898,-2.5898,-2.5898,-2.5898,-2.5898,-2.5898,-2.5898,-2.5898,-2.5898,-2.5898,-2.5898,-2.5898,-2.5898,-2.5898,-2.5898,-2.5898,-2.5898,-2.5898,-2.5898,-2.5898,-2.5898,-2.5762,-2.5694,-2.5694,-2.5694,-2.5694,-2.5694,-2.583,-2.5898,-2.5898,-2.6196,-2.6346,-2.6373,-2.6658,-2.678,-2.6807,-2.6807,-2.6807,-2.6807,-2.6807,-2.6807,-2.6807,-2.6807,-2.6807,-2.6807,-2.6807,-2.6807,-2.6807,0.0,0.0,0.0,0.0,0.0,0.0,0.0,0.0,0.0,0.0,0.0,0.0,0.0,0.0,0.0,0.0,0.0,0.0,0.0,0.0,0.0,0.0,0.0,0.0,0.0,0.0,0.0,0.0,0.0,0.0,0.0,0.0,0.0,-0.0313,-1.0636,-1.8783,-2.5111,-2.5043,-2.5016,-2.5016,-2.5016,-2.4921,-2.4745,-2.4758,-1.9713,-1.227,-1.2352,-1.2392,-1.3643,-2.2178,-2.5043,-2.5016,-2.5016,-2.5016,-2.5016,-2.5016,-2.5016,-2.5084,-2.5369,-2.5464,-2.5532,-2.583,-2.5817,-2.5762,-2.5884,-2.5898,-2.5898,-2.5898,-2.5898,-2.5898,-2.5898,-2.5898,-2.5898,-2.5898,-2.5898,-2.5898,-2.5898,-2.5898,-2.5898,-2.5898,-2.5898,-2.5898,-2.5898,-2.5898,-2.5898,-2.5898,-2.5898,-2.5898,-2.5898,-2.5762,-2.5694,-2.5694,-2.5694,-2.5694,-2.5694,-2.583,-2.5898,-2.5898,-2.6101,-2.6237,-2.6359,-2.6536,-2.6698,-2.6807,-2.6807,-2.6807,-2.6807,-2.6807,-2.6807,-2.6807,-2.6807,-2.6807,-2.6807,-2.6807,-2.6807,-2.6807,0.0,0.0,0.0,0.0,0.0,0.0,0.0,0.0,0.0,0.0,0.0,0.0,0.0,0.0,0.0,0.0,0.0,0.0,0.0,0.0,0.0,0.0,0.0,0.0,0.0,0.0,0.0,0.0,0.0,0.0,0.0,0.0,0.0,-0.0313,-0.4693,-1.3451,-2.4841,-2.5084,-2.5043,-2.5016,-2.5016,-2.4935,-2.4786,-2.4532,-1.9503,-1.1723,-0.8057,-1.1813,-1.9053,-2.348,-2.5043,-2.5016,-2.5016,-2.5016,-2.5016,-2.5016,-2.5016,-2.507,-2.5287,-2.541,-2.5518,-2.5749,-2.5803,-2.5817,-2.5884,-2.5844,-2.5817,-2.5884,-2.5898,-2.5898,-2.5898,-2.5898,-2.5898,-2.5898,-2.5898,-2.5898,-2.5898,-2.5898,-2.5898,-2.5898,-2.5898,-2.5898,-2.5898,-2.5898,-2.5898,-2.5898,-2.5898,-2.5898,-2.5898,-2.5694,-2.564,-2.5776,-2.5654,-2.5654,-2.5803,-2.5871,-2.5898,-2.5898,-2.6129,-2.6291,-2.6359,-2.659,-2.6725,-2.6807,-2.6807,-2.6807,-2.6807,-2.6807,-2.6807,-2.6807,-2.6807,-2.6807,-2.6807,-2.6807,-2.6807,-2.682,0.0,0.0,0.0,0.0,0.0,0.0,0.0,0.0,0.0,0.0,0.0,0.0,0.0,0.0,0.0,0.0,0.0,0.0,0.0,0.0,0.0,0.0,0.0,0.0,0.0,0.0,0.0,0.0,0.0,0.0,0.0,0.0,0.0,0.0,0.0,-0.8449,-2.2971,-2.4503,-2.507,-2.5016,-2.5016,-2.4935,-2.4813,-2.4613,-1.929,-1.1162,-0.2798,-0.9989,-2.2958,-2.4489,-2.507,-2.5016,-2.5016,-2.5016,-2.5016,-2.5016,-2.5016,-2.5057,-2.5192,-2.5342,-2.5505,-2.5654,-2.5762,-2.583,-2.5871,-2.5803,-2.5762,-2.5884,-2.5898,-2.5898,-2.5898,-2.5898,-2.5898,-2.5898,-2.5898,-2.5898,-2.5898,-2.5898,-2.5898,-2.5898,-2.5898,-2.5898,-2.5898,-2.5898,-2.5898,-2.5898,-2.5898,-2.5898,-2.5898,-2.5654,-2.5627,-2.5898,-2.564,-2.564,-2.5898,-2.5898,-2.5898,-2.5898,-2.6183,-2.6346,-2.6373,-2.6644,-2.678,-2.6807,-2.6807,-2.6807,-2.6807,-2.6807,-2.6807,-2.6807,-2.6807,-2.6807,-2.6807,-2.6834,-2.6861,-2.6888,0.0,0.0,0.0,0.0,0.0,0.0,0.0,0.0,0.0,0.0,0.0,0.0,0.0,0.0,0.0,0.0,0.0,0.0,0.0,0.0,0.0,0.0,0.0,0.0,0.0,0.0,0.0,0.0,0.0,0.0,0.0,0.0,0.0,0.0,0.0,-0.5316,-1.4714,-2.1951,-2.507,-2.5016,-2.5016,-2.4935,-2.4813,-2.4935,-1.9599,-1.1162,-0.2798,-0.624,-1.5338,-2.2573,-2.507,-2.5016,-2.5016,-2.5016,-2.5016,-2.5016,-2.5016,-2.5057,-2.5192,-2.5342,-2.5505,-2.5654,-2.5599,-2.5545,-2.5694,-2.5803,-2.5884,-2.5898,-2.5898,-2.5898,-2.5898,-2.5898,-2.5898,-2.5898,-2.5898,-2.5898,-2.5898,-2.5898,-2.5898,-2.5898,-2.5898,-2.5898,-2.5898,-2.5898,-2.5898,-2.5898,-2.5898,-2.5898,-2.5898,-2.5749,-2.5722,-2.5898,-2.5749,-2.5749,-2.5898,-2.5898,-2.5898,-2.5898,-2.6074,-2.6237,-2.6359,-2.6536,-2.6685,-2.6807,-2.6807,-2.6807,-2.6807,-2.6807,-2.6807,-2.6807,-2.6807,-2.6807,-2.682,-2.6943,-2.7078,-2.7187,0.0,0.0,0.0,0.0,0.0,0.0,0.0,0.0,0.0,0.0,0.0,0.0,0.0,0.0,0.0,0.0,0.0,0.0,0.0,0.0,0.0,0.0,0.0,0.0,0.0,0.0,0.0,0.0,0.0,0.0,0.0,0.0,0.0,0.0,0.0,-0.2193,-0.6257,-1.9448,-2.5125,-2.507,-2.5043,-2.4989,-2.4935,-2.5057,-1.9695,-1.1217,-0.2812,-0.5319,-1.377,-2.2298,-2.5111,-2.5016,-2.5016,-2.5016,-2.5016,-2.5016,-2.5016,-2.5043,-2.5084,-2.522,-2.5355,-2.5423,-2.545,-2.5477,-2.5545,-2.5667,-2.5776,-2.5776,-2.5844,-2.5898,-2.5898,-2.5898,-2.5898,-2.5898,-2.5898,-2.5898,-2.5898,-2.5898,-2.5898,-2.5898,-2.5898,-2.5898,-2.5898,-2.5898,-2.5898,-2.5898,-2.5898,-2.5898,-2.5898,-2.5844,-2.583,-2.5898,-2.5844,-2.583,-2.5898,-2.5898,-2.5898,-2.5898,-2.6156,-2.6291,-2.6359,-2.6508,-2.6658,-2.6807,-2.6807,-2.6807,-2.6807,-2.6807,-2.6807,-2.6807,-2.6807,-2.6861,-2.6943,-2.7105,-2.7187,-2.7255]}]]